ftp/pub/palmer/observations_modified/2019/July/AR190706_BASE.txt

Download

Sample DateTime	Unit Id	WS Avg 2min	WD Avg 2min	WGS 10min	WGD 10min	Air Temp	Rel Humidity	Dew Point	Pyranometer	Quantum	Air Pressure	Snow Level	Rainfall	PW Current	Visibility	CBase 1	CBase 2	CBase 3	Vert Vis
2019/07/06  00:00:00  BASE  1.8816   53   2.1462   55   -4.6  100   -4.6  0     0     1004.7   NA       0.0000   9999     0     0     0    
2019/07/06  00:01:00  BASE  1.69932  48   2.1462   55   -4.6  100   -4.6  0     0     1004.7   NA       0.0000   9999     0     0     0    
2019/07/06  00:02:00  BASE  1.62876  49   2.1462   55   -4.6  100   -4.7  0     0     1004.7   NA       0.0000   9999     0     0     0    
2019/07/06  00:03:00  BASE  1.68756  52   2.1462   55   -4.7  100   -4.7  0     0     1004.7   NA       0.0000   9999     0     0     0    
2019/07/06  00:04:00  BASE  1.63464  55   2.1462   55   -4.7  99    -4.7  0     0     1004.7   NA       0.0000   9999     0     0     0    
2019/07/06  00:05:00  BASE  1.57584  55   2.1462   55   -4.7  99    -4.8  0     0     1004.8   NA       0.0000   9999     0     0     0    
2019/07/06  00:06:00  BASE  1.59348  55   2.1462   55   -4.6  99    -4.8  0     0     1004.8   NA       0.0000   9999     0     0     0    
2019/07/06  00:07:00  BASE  1.54644  59   2.1462   55   -4.6  99    -4.7  0     0     1004.8   NA       0.0000   9999     0     0     0    
2019/07/06  00:08:00  BASE  1.51116  60   2.1462   55   -4.6  99    -4.7  0     0     1004.7   NA       0.0000   9999     0     0     0    
2019/07/06  00:09:00  BASE  1.63464  57   2.1462   55   -4.5  99    -4.7  0     0     1004.7   NA       0.0000   9999     0     0     0    
2019/07/06  00:10:00  BASE  1.78752  54   1.96392  51   -4.5  99    -4.6  0     0     1004.7   NA       0.0000   9999     0     0     0    
2019/07/06  00:11:00  BASE  1.77576  53   1.9992   51   -4.5  99    -4.6  0     0     1004.7   NA       0.0000   9999     0     0     0    
2019/07/06  00:12:00  BASE  1.81692  53   2.0286   51   -4.5  99    -4.7  0     0     1004.7   NA       0.0000   9999     0     0     0    
2019/07/06  00:13:00  BASE  1.87572  52   2.0286   51   -4.5  98    -4.7  0     0     1004.7   NA       0.0000   9999     0     0     0    
2019/07/06  00:14:00  BASE  1.83456  48   2.0286   51   -4.5  98    -4.8  0     0     1004.7   NA       0.0000   9999     0     0     0    
2019/07/06  00:15:00  BASE  1.71108  44   2.0286   51   -4.6  98    -4.8  0     0     1004.7   NA       0.0000   9999     0     0     0    
2019/07/06  00:16:00  BASE  1.5876   45   2.0286   51   -4.6  98    -4.8  0     0     1004.7   NA       0.0000   9999     0     0     0    
2019/07/06  00:17:00  BASE  1.51704  48   2.0286   51   -4.6  98    -4.8  0     0     1004.7   NA       0.0000   9999     0     0     0    
2019/07/06  00:18:00  BASE  1.4994   49   2.0286   51   -4.6  98    -4.9  0     0     1004.7   NA       0.0000   9999     0     0     0    
2019/07/06  00:19:00  BASE  1.45824  46   2.0286   51   -4.5  98    -4.9  0     0     1004.7   NA       0.0000   9999     0     0     0    
2019/07/06  00:20:00  BASE  1.37592  40   2.0286   51   -4.5  97    -4.9  0     0     1004.7   NA       0.0000   9999     0     0     0    
2019/07/06  00:21:00  BASE  1.28772  33   2.0286   51   -4.5  97    -4.9  0     0     1004.7   NA       0.0000   9999     0     0     0    
2019/07/06  00:22:00  BASE  1.29948  32   1.96392  56   -4.5  96    -5.0  0     0     1004.6   NA       0.0000   9999     0     0     0    
2019/07/06  00:23:00  BASE  1.34652  33   1.84632  48   -4.5  96    -5.0  0     0     1004.6   NA       0.0000   9999     0     0     0    
2019/07/06  00:24:00  BASE  1.2936   29   1.72284  42   -4.5  96    -5.1  0     0     1004.6   NA       0.0000   9999     0     0     0    
2019/07/06  00:25:00  BASE  1.176    25   1.63464  50   -4.6  95    -5.2  0     0     1004.6   NA       0.0000   9999     0     0     0    
2019/07/06  00:26:00  BASE  1.12308  23   1.57584  48   -4.6  95    -5.3  0     0     1004.6   NA       0.0000   9999     0     0     0    
2019/07/06  00:27:00  BASE  1.22304  26   1.57584  48   -4.7  95    -5.4  0     0     1004.6   NA       0.0000   9999     0     0     0    
2019/07/06  00:28:00  BASE  1.2936   27   1.51116  48   -4.7  94    -5.5  0     0     1004.6   NA       0.0000   9999     0     0     0    
2019/07/06  00:29:00  BASE  1.24656  31   1.48176  27   -4.7  94    -5.5  0     0     1004.7   NA       0.0000   9999     0     0     0    
2019/07/06  00:30:00  BASE  1.2936   32   1.57584  29   -4.7  94    -5.6  0     0     1004.7   NA       0.0000   9999     0     0     0    
2019/07/06  00:31:00  BASE  1.35828  30   1.57584  29   -4.7  94    -5.6  0     0     1004.7   NA       0.0000   9999     0     0     0    
2019/07/06  00:32:00  BASE  1.34064  28   1.57584  29   -4.7  94    -5.5  0     0     1004.7   NA       0.0000   9999     0     0     0    
2019/07/06  00:33:00  BASE  1.22892  27   1.57584  29   -4.7  94    -5.5  0     0     1004.7   NA       0.0000   9999     0     0     0    
2019/07/06  00:34:00  BASE  1.2642   26   1.57584  29   -4.6  94    -5.5  0     0     1004.7   NA       0.0000   9999     0     0     0    
2019/07/06  00:35:00  BASE  1.42884  21   1.63464  16   -4.6  93    -5.5  0     0     1004.7   NA       0.0000   9999     0     0     0    
2019/07/06  00:36:00  BASE  1.45236  19   1.63464  16   -4.6  93    -5.6  0     0     1004.7   NA       0.0000   9999     0     0     0    
2019/07/06  00:37:00  BASE  1.3818   28   1.63464  16   -4.6  93    -5.6  0     0     1004.7   NA       0.0000   9999     0     0     0    
2019/07/06  00:38:00  BASE  1.34064  34   1.63464  16   -4.6  92    -5.7  0     0     1004.7   NA       0.0000   9999     0     0     0    
2019/07/06  00:39:00  BASE  1.3818   26   1.63464  16   -4.7  92    -5.8  0     0     1004.7   NA       0.0000   9999     0     0     0    
2019/07/06  00:40:00  BASE  1.4406   17   1.90512  10   -4.7  91    -5.8  0     0     1004.7   NA       0.0000   9999     0     0     0    
2019/07/06  00:41:00  BASE  1.63464  16   1.90512  19   -4.7  91    -5.9  0     0     1004.7   NA       0.0000   9999     0     0     0    
2019/07/06  00:42:00  BASE  1.72872  19   1.90512  19   -4.6  91    -5.9  0     0     1004.7   NA       0.0000   9999     0     0     0    
2019/07/06  00:43:00  BASE  1.72872  22   1.9992   24   -4.6  91    -5.9  0     0     1004.7   NA       0.0000   9999     0     0     0    
2019/07/06  00:44:00  BASE  1.9404   23   2.24028  19   -4.6  90    -6.0  0     0     1004.7   NA       0.0000   9999     0     0     0    
2019/07/06  00:45:00  BASE  2.06388  22   2.24028  25   -4.7  90    -6.0  0     0     1004.7   NA       0.0000   9999     0     0     0    
2019/07/06  00:46:00  BASE  1.8228   22   2.24028  25   -4.7  90    -6.1  0     0     1004.7   NA       0.0000   9999     0     0     0    
2019/07/06  00:47:00  BASE  1.62876  27   2.24028  25   -4.8  90    -6.1  0     0     1004.7   NA       0.0000   9999     0     0     0    
2019/07/06  00:48:00  BASE  1.63464  29   2.24028  25   -4.8  90    -6.2  0     0     1004.7   NA       0.0000   9999     0     0     0    
2019/07/06  00:49:00  BASE  1.51704  25   2.24028  25   -4.8  90    -6.2  0     0     1004.7   NA       0.0000   9999     0     0     0    
2019/07/06  00:50:00  BASE  1.45824  26   2.24028  25   -4.8  90    -6.2  0     0     1004.7   NA       0.0000   9999     0     0     0    
2019/07/06  00:51:00  BASE  1.49352  30   2.24028  25   -4.7  89    -6.2  0     0     1004.7   NA       0.0000   9999     0     0     0    
2019/07/06  00:52:00  BASE  1.35828  33   2.24028  25   -4.7  89    -6.3  0     0     1004.7   NA       0.0000   9999     0     0     0    
2019/07/06  00:53:00  BASE  1.1466   30   2.24028  25   -4.7  88    -6.3  0     0     1004.7   NA       0.0000   9999     0     0     0    
2019/07/06  00:54:00  BASE  1.0584   28   2.24028  25   -4.7  88    -6.4  0     0     1004.7   NA       0.0000   9999     0     0     0    
2019/07/06  00:55:00  BASE  1.1466   33   1.90512  25   -4.7  87    -6.5  0     0     1004.7   NA       0.0000   9999     0     0     0    
2019/07/06  00:56:00  BASE  1.1466   36   1.75224  31   -4.6  87    -6.5  0     0     1004.7   NA       0.0000   9999     0     0     0    
2019/07/06  00:57:00  BASE  1.00548  34   1.72284  32   -4.6  86    -6.5  0     0     1004.7   NA       0.0000   9999     0     0     0    
2019/07/06  00:58:00  BASE  0.89376  27   1.60524  28   -4.5  86    -6.5  0     0     1004.7   NA       0.0000   9999     0     0     0    
2019/07/06  00:59:00  BASE  0.9114   28   1.60524  28   -4.5  86    -6.5  0     0     1004.7   NA       0.0000   9999     0     0     0    
2019/07/06  01:00:00  BASE  0.93492  34   1.54056  30   -4.5  86    -6.5  0     0     1004.7   NA       0.0000   9999     0     0     0    
2019/07/06  01:01:00  BASE  0.78792  34   1.32888  35   -4.4  85    -6.5  0     0     1004.7   NA       0.0000   9999     0     0     0    
2019/07/06  01:02:00  BASE  0.51744  36   1.29948  33   -4.4  85    -6.6  0     0     1004.7   NA       0.0000   9999     0     0     0    
2019/07/06  01:03:00  BASE  0.18228  40   1.29948  33   -4.4  85    -6.6  0     0     1004.7   NA       0.0000   9999     0     0     0    
2019/07/06  01:04:00  BASE  0        39   1.29948  33   -4.4  84    -6.6  0     0     1004.7   NA       0.0000   9999     0     0     0    
2019/07/06  01:05:00  BASE  0.0294   46   1.18188  41   -4.4  84    -6.7  0     0     1004.7   NA       0.0000   9999     0     0     0    
2019/07/06  01:06:00  BASE  0.0294   51   1.0878   32   -4.3  84    -6.7  0     0     1004.7   NA       0.0000   9999     0     0     0    
2019/07/06  01:07:00  BASE  0        49   1.029    31   -4.3  83    -6.7  0     0     1004.7   NA       0.0000   9999     0     0     0    
2019/07/06  01:08:00  BASE  0        45   1.029    31   -4.2  83    -6.6  0     0     1004.7   NA       0.0000   9999     0     0     0    
2019/07/06  01:09:00  BASE  0        15   0.9702   38   -4.0  83    -6.5  0     0     1004.7   NA       0.0000   9999     0     0     0    
2019/07/06  01:10:00  BASE  0        318  0.87612  33   -3.9  83    -6.3  0     0     1004.7   NA       0.0000   9999     0     0     0    
2019/07/06  01:11:00  BASE  0        301  0.63504  57   -3.8  84    -6.2  0     0     1004.7   NA       0.0000   9999     0     0     0    
2019/07/06  01:12:00  BASE  0        307  0.63504  57   -3.7  84    -6.0  0     0     1004.7   NA       0.0000   9999     0     0     0    
2019/07/06  01:13:00  BASE  0        310  0.63504  57   -3.7  85    -5.9  0     0     1004.7   NA       0.0000   9999     0     0     0    
2019/07/06  01:14:00  BASE  0        304  0.63504  57   -3.8  85    -5.9  0     0     1004.7   NA       0.0000   9999     0     0     0    
2019/07/06  01:15:00  BASE  0        299  0        M    -3.8  85    -5.9  0     0     1004.7   NA       0.0000   9999     0     0     0    
2019/07/06  01:16:00  BASE  0        299  0        M    -3.9  85    -6.0  0     0     1004.7   NA       0.0000   9999     0     0     0    
2019/07/06  01:17:00  BASE  0        299  0        M    -4.0  85    -6.2  0     0     1004.8   NA       0.0000   9999     0     0     0    
2019/07/06  01:18:00  BASE  0        312  0        M    -4.2  85    -6.3  0     0     1004.8   NA       0.0000   9999     0     0     0    
2019/07/06  01:19:00  BASE  0.19404  346  0.84672  19   -4.3  84    -6.5  0     0     1004.8   NA       0.0000   9999     0     0     0    
2019/07/06  01:20:00  BASE  0.67032  17   1.0584   26   -4.4  84    -6.7  0     0     1004.8   NA       0.0000   9999     0     0     0    
2019/07/06  01:21:00  BASE  0.9996   31   1.1466   37   -4.4  83    -6.9  0     0     1004.9   NA       0.0000   9999     0     0     0    
2019/07/06  01:22:00  BASE  1.10544  38   1.24068  40   -4.5  83    -7.0  0     0     1004.9   NA       0.0000   9999     0     0     0    
2019/07/06  01:23:00  BASE  1.10544  40   1.24068  40   -4.5  82    -7.1  0     0     1004.9   NA       0.0000   9999     0     0     0    
2019/07/06  01:24:00  BASE  1.01136  38   1.24068  40   -4.5  82    -7.1  0     0     1004.9   NA       0.0000   9999     0     0     0    
2019/07/06  01:25:00  BASE  0.92904  35   1.24068  40   -4.5  82    -7.1  0     0     1004.9   NA       0.0000   9999     0     0     0    
2019/07/06  01:26:00  BASE  0.83496  34   1.24068  40   -4.5  82    -7.2  0     0     1004.9   NA       0.0000   9999     0     0     0    
2019/07/06  01:27:00  BASE  0.78792  34   1.24068  40   -4.5  82    -7.1  0     0     1004.9   NA       0.0000   9999     0     0     0    
2019/07/06  01:28:00  BASE  0.81144  34   1.24068  40   -4.5  81    -7.2  0     0     1004.9   NA       0.0000   9999     0     0     0    
2019/07/06  01:29:00  BASE  0.80556  34   1.24068  40   -4.4  81    -7.2  0     0     1004.9   NA       0.0000   9999     0     0     0    
2019/07/06  01:30:00  BASE  0.80556  33   1.24068  40   -4.4  81    -7.2  0     0     1004.9   NA       0.0000   9999     0     0     0    
2019/07/06  01:31:00  BASE  0.87024  30   1.24068  40   -4.4  81    -7.3  0     0     1004.9   NA       0.0000   9999     0     0     0    
2019/07/06  01:32:00  BASE  0.96432  25   1.18188  16   -4.4  80    -7.3  0     0     1004.9   NA       0.0000   9999     0     0     0    
2019/07/06  01:33:00  BASE  1.18188  16   1.48176  9    -4.5  80    -7.4  0     0     1004.9   NA       0.0000   9999     0     0     0    
2019/07/06  01:34:00  BASE  1.37592  10   1.48176  8    -4.5  80    -7.4  0     0     1004.9   NA       0.0000   9999     0     0     0    
2019/07/06  01:35:00  BASE  1.40532  14   1.48176  8    -4.6  80    -7.5  0     0     1004.9   NA       0.0000   9999     0     0     0    
2019/07/06  01:36:00  BASE  1.42296  13   1.48176  12   -4.6  80    -7.5  0     0     1004.9   NA       0.0000   9999     0     0     0    
2019/07/06  01:37:00  BASE  1.38768  10   1.48176  12   -4.7  80    -7.6  0     0     1004.9   NA       0.0000   9999     0     0     0    
2019/07/06  01:38:00  BASE  1.37592  11   1.48176  8    -4.7  80    -7.7  0     0     1004.9   NA       0.0000   9999     0     0     0    
2019/07/06  01:39:00  BASE  1.41708  12   1.48176  9    -4.7  80    -7.7  0     0     1004.9   NA       0.0000   9999     0     0     0    
2019/07/06  01:40:00  BASE  1.35828  15   1.48176  9    -4.7  79    -7.8  0     0     1004.9   NA       0.0000   9999     0     0     0    
2019/07/06  01:41:00  BASE  1.32888  19   1.48176  9    -4.8  79    -7.8  0     0     1005.0   NA       0.0000   9999     0     0     0    
2019/07/06  01:42:00  BASE  1.37004  22   1.48176  9    -4.8  79    -7.8  0     0     1005.0   NA       0.0000   9999     0     0     0    
2019/07/06  01:43:00  BASE  1.42296  24   1.57584  26   -4.8  79    -7.8  0     0     1005.1   NA       0.0000   9999     0     0     0    
2019/07/06  01:44:00  BASE  1.50528  25   1.57584  25   -4.8  80    -7.8  0     0     1005.1   NA       0.0000   9999     0     0     0    
2019/07/06  01:45:00  BASE  1.52292  24   1.57584  24   -4.8  80    -7.7  0     0     1005.1   NA       0.0000   9999     0     0     0    
2019/07/06  01:46:00  BASE  1.4406   21   1.57584  24   -4.8  80    -7.7  0     0     1005.1   NA       0.0000   9999     0     0     0    
2019/07/06  01:47:00  BASE  1.29948  21   1.57584  24   -4.8  80    -7.7  0     0     1005.1   NA       0.0000   9999     0     0     0    
2019/07/06  01:48:00  BASE  1.17012  21   1.57584  24   -4.8  80    -7.7  0     0     1005.1   NA       0.0000   9999     0     0     0    
2019/07/06  01:49:00  BASE  1.16424  18   1.57584  24   -4.8  80    -7.7  0     0     1005.1   NA       0.0000   9999     0     0     0    
2019/07/06  01:50:00  BASE  1.19364  19   1.57584  24   -4.8  80    -7.7  0     0     1005.1   NA       0.0000   9999     0     0     0    
2019/07/06  01:51:00  BASE  1.17012  20   1.57584  24   -4.7  80    -7.6  0     0     1005.1   NA       0.0000   9999     0     0     0    
2019/07/06  01:52:00  BASE  1.19364  19   1.57584  24   -4.7  80    -7.6  0     0     1005.1   NA       0.0000   9999     0     0     0    
2019/07/06  01:53:00  BASE  1.2348   17   1.57584  24   -4.7  80    -7.6  0     0     1005.1   NA       0.0000   9999     0     0     0    
2019/07/06  01:54:00  BASE  1.27596  18   1.57584  24   -4.7  80    -7.6  0     0     1005.1   NA       0.0000   9999     0     0     0    
2019/07/06  01:55:00  BASE  1.32888  22   1.48176  25   -4.7  80    -7.6  0     0     1005.1   NA       0.0000   9999     0     0     0    
2019/07/06  01:56:00  BASE  1.32888  25   1.48176  25   -4.7  80    -7.6  0     0     1005.1   NA       0.0000   9999     0     0     0    
2019/07/06  01:57:00  BASE  1.33476  24   1.48176  25   -4.7  80    -7.7  0     0     1005.1   NA       0.0000   9999     0     0     0    
2019/07/06  01:58:00  BASE  1.34652  19   1.48176  25   -4.8  80    -7.7  0     0     1005.0   NA       0.0000   9999     0     0     0    
2019/07/06  01:59:00  BASE  1.323    15   1.48176  25   -4.8  80    -7.7  0     0     1005.0   NA       0.0000   9999     0     0     0    
2019/07/06  02:00:00  BASE  1.34064  16   1.48176  25   -4.8  80    -7.7  0     0     1004.9   NA       0.0000   9999     0     0     0    
2019/07/06  02:01:00  BASE  1.37592  19   1.51116  24   -4.7  80    -7.7  0     0     1004.9   NA       0.0000   9999     0     0     0    
2019/07/06  02:02:00  BASE  1.37004  20   1.51116  24   -4.7  80    -7.6  0     0     1004.9   NA       0.0000   9999     0     0     0    
2019/07/06  02:03:00  BASE  1.33476  23   1.51116  24   -4.7  80    -7.6  0     0     1004.9   NA       0.0000   9999     0     0     0    
2019/07/06  02:04:00  BASE  1.44648  24   1.63464  24   -4.7  80    -7.7  0     0     1004.9   NA       0.0000   9999     0     0     0    
2019/07/06  02:05:00  BASE  1.5582   23   1.63464  21   -4.8  80    -7.7  0     0     1004.9   NA       0.0000   9999     0     0     0    
2019/07/06  02:06:00  BASE  1.57584  27   1.69344  23   -4.8  80    -7.8  0     0     1004.9   NA       0.0000   9999     0     0     0    
2019/07/06  02:07:00  BASE  1.60524  26   1.69344  27   -4.9  80    -7.8  0     0     1004.9   NA       0.0000   9999     0     0     0    
2019/07/06  02:08:00  BASE  1.62288  23   1.69344  27   -4.9  80    -7.8  0     0     1004.9   NA       0.0000   9999     0     0     0    
2019/07/06  02:09:00  BASE  1.56408  21   1.69344  27   -4.9  80    -7.8  0     0     1005.0   NA       0.0000   9999     0     0     0    
2019/07/06  02:10:00  BASE  1.49352  19   1.69344  27   -4.9  80    -7.7  0     0     1005.1   NA       0.0000   9999     0     0     0    
2019/07/06  02:11:00  BASE  1.42884  21   1.69344  27   -4.9  81    -7.7  0     0     1005.1   NA       0.0000   9999     0     0     0    
2019/07/06  02:12:00  BASE  1.45236  22   1.69344  19   -4.8  81    -7.6  0     0     1005.1   NA       0.0000   9999     0     0     0    
2019/07/06  02:13:00  BASE  1.42296  24   1.69344  19   -4.8  81    -7.6  0     0     1005.1   NA       0.0000   9999     0     0     0    
2019/07/06  02:14:00  BASE  1.39356  24   1.69344  19   -4.8  81    -7.6  0     0     1005.1   NA       0.0000   9999     0     0     0    
2019/07/06  02:15:00  BASE  1.43472  22   1.69344  19   -4.8  81    -7.6  0     0     1005.1   NA       0.0000   9999     0     0     0    
2019/07/06  02:16:00  BASE  1.49352  20   1.72284  2    -4.8  81    -7.6  0     0     1005.1   NA       0.0000   9999     0     0     0    
2019/07/06  02:17:00  BASE  1.56408  20   1.72284  2    -4.8  81    -7.5  0     0     1005.2   NA       0.0000   9999     0     0     0    
2019/07/06  02:18:00  BASE  1.59936  23   1.72284  25   -4.8  82    -7.5  0     0     1005.2   NA       0.0000   9999     0     0     0    
2019/07/06  02:19:00  BASE  1.69344  21   1.84632  18   -4.9  82    -7.5  0     0     1005.2   NA       0.0000   9999     0     0     0    
2019/07/06  02:20:00  BASE  1.69344  19   1.84632  18   -4.9  82    -7.5  0     0     1005.2   NA       0.0000   9999     0     0     0    
2019/07/06  02:21:00  BASE  1.58172  17   1.84632  18   -4.9  82    -7.5  0     0     1005.2   NA       0.0000   9999     0     0     0    
2019/07/06  02:22:00  BASE  1.47588  15   1.84632  18   -4.9  82    -7.5  0     0     1005.2   NA       0.0000   9999     0     0     0    
2019/07/06  02:23:00  BASE  1.3818   13   1.84632  18   -4.9  82    -7.5  0     0     1005.2   NA       0.0000   9999     0     0     0    
2019/07/06  02:24:00  BASE  1.29948  14   1.84632  18   -4.8  82    -7.4  0     0     1005.2   NA       0.0000   9999     0     0     0    
2019/07/06  02:25:00  BASE  1.22304  13   1.84632  18   -4.8  82    -7.4  0     0     1005.3   NA       0.0000   9999     0     0     0    
2019/07/06  02:26:00  BASE  1.12308  9    1.84632  18   -4.8  82    -7.4  0     0     1005.3   NA       0.0000   9999     0     0     0    
2019/07/06  02:27:00  BASE  1.10544  10   1.84632  18   -4.8  82    -7.4  0     0     1005.3   NA       0.0000   9999     0     0     0    
2019/07/06  02:28:00  BASE  1.16424  14   1.84632  18   -4.8  82    -7.4  0     0     1005.2   NA       0.0000   9999     0     0     0    
2019/07/06  02:29:00  BASE  1.21128  14   1.78752  17   -4.8  82    -7.5  0     0     1005.2   NA       0.0000   9999     0     0     0    
2019/07/06  02:30:00  BASE  1.15836  13   1.57584  16   -4.8  81    -7.5  0     0     1005.2   NA       0.0000   9999     0     0     0    
2019/07/06  02:31:00  BASE  1.01724  16   1.57584  16   -4.8  81    -7.5  0     0     1005.2   NA       0.0000   9999     0     0     0    
2019/07/06  02:32:00  BASE  0.87612  20   1.48176  17   -4.8  81    -7.5  0     0     1005.3   NA       0.0000   9999     0     0     0    
2019/07/06  02:33:00  BASE  0.79968  24   1.35828  5    -4.8  82    -7.4  0     0     1005.3   NA       0.0000   9999     0     0     0    
2019/07/06  02:34:00  BASE  0.84084  28   1.35828  5    -4.7  82    -7.4  0     0     1005.3   NA       0.0000   9999     0     0     0    
2019/07/06  02:35:00  BASE  0.91728  29   1.35828  5    -4.7  82    -7.3  0     0     1005.3   NA       0.0000   9999     0     0     0    
2019/07/06  02:36:00  BASE  0.87612  22   1.35828  5    -4.6  81    -7.3  0     0     1005.3   NA       0.0000   9999     0     0     0    
2019/07/06  02:37:00  BASE  0.58212  14   1.35828  5    -4.6  81    -7.3  0     0     1005.3   NA       0.0000   9999     0     0     0    
2019/07/06  02:38:00  BASE  0.34104  9    1.35828  5    -4.6  81    -7.3  0     0     1005.3   NA       0.0000   9999     0     0     0    
2019/07/06  02:39:00  BASE  0.48804  12   1.24068  11   -4.5  81    -7.3  0     0     1005.3   NA       0.0000   9999     0     0     0    
2019/07/06  02:40:00  BASE  0.49392  21   1.1466   14   -4.5  81    -7.2  0     0     1005.3   NA       0.0000   9999     0     0     0    
2019/07/06  02:41:00  BASE  0.39396  21   1.029    27   -4.4  82    -7.1  0     0     1005.3   NA       0.0000   9999     0     0     0    
2019/07/06  02:42:00  BASE  0.42924  13   1.029    27   -4.4  82    -7.0  0     0     1005.3   NA       0.0000   9999     0     0     0    
2019/07/06  02:43:00  BASE  0.38808  18   1.029    27   -4.3  82    -6.9  0     0     1005.3   NA       0.0000   9999     0     0     0    
2019/07/06  02:44:00  BASE  0.48216  25   1.029    27   -4.3  82    -6.9  0     0     1005.3   NA       0.0000   9999     0     0     0    
2019/07/06  02:45:01  BASE  0.44688  25   0.90552  18   -4.2  82    -6.8  0     0     1005.3   NA       0.0000   9999     0     0     0    
2019/07/06  02:46:00  BASE  0.52332  26   0.81732  30   -4.2  82    -6.8  0     0     1005.3   NA       0.0000   9999     0     0     0    
2019/07/06  02:47:00  BASE  0.4998   20   0.81732  30   -4.2  83    -6.7  0     0     1005.3   NA       0.0000   9999     0     0     0    
2019/07/06  02:48:00  BASE  0.48804  17   0.81732  30   -4.2  83    -6.7  0     0     1005.3   NA       0.0000   9999     0     0     0    
2019/07/06  02:49:00  BASE  0.65856  19   0.81732  30   -4.2  83    -6.7  0     0     1005.3   NA       0.0000   9999     0     0     0    
2019/07/06  02:50:01  BASE  0.54684  29   0.81732  30   -4.2  83    -6.6  0     0     1005.3   NA       0.0000   9999     0     0     0    
2019/07/06  02:51:00  BASE  0.36456  39   0.81732  30   -4.2  83    -6.6  0     0     1005.3   NA       0.0000   9999     0     0     0    
2019/07/06  02:52:00  BASE  0.40572  36   0.81732  38   -4.2  84    -6.6  0     0     1005.3   NA       0.0000   9999     0     0     0    
2019/07/06  02:53:00  BASE  0.45276  38   0.81732  38   -4.2  84    -6.5  0     0     1005.3   NA       0.0000   9999     0     0     0    
2019/07/06  02:54:00  BASE  0.18228  44   0.81732  38   -4.2  84    -6.4  0     0     1005.3   NA       0.0000   9999     0     0     0    
2019/07/06  02:55:00  BASE  0.05292  46   0.81732  38   -4.2  85    -6.4  0     0     1005.2   NA       0.0000   9999     0     0     0    
2019/07/06  02:56:00  BASE  0.2058   46   0.81732  38   -4.1  85    -6.3  0     0     1005.2   NA       0.0000   9999     0     0     0    
2019/07/06  02:57:00  BASE  0.3528   47   0.81732  43   -4.1  85    -6.2  0     0     1005.2   NA       0.0000   9999     0     0     0    
2019/07/06  02:58:00  BASE  0.54684  49   0.81732  59   -4.1  86    -6.2  0     0     1005.2   NA       0.0000   9999     0     0     0    
2019/07/06  02:59:00  BASE  0.75264  51   0.9702   58   -4.1  86    -6.1  0     0     1005.2   NA       0.0000   9999     0     0     0    
2019/07/06  03:00:00  BASE  0.68796  57   0.9702   58   -4.1  86    -6.1  0     0     1005.2   NA       0.0000   9999     0     0     0    
2019/07/06  03:01:00  BASE  0.38808  59   0.9702   58   -4.1  86    -6.1  0     0     1005.2   NA       0.0000   9999     0     0     0    
2019/07/06  03:02:00  BASE  0.10584  54   0.9702   58   -4.1  86    -6.1  0     0     1005.2   NA       0.0000   9999     0     0     0    
2019/07/06  03:03:00  BASE  0        47   0.9702   58   -4.1  87    -6.0  0     0     1005.2   NA       0.0000   9999     0     0     0    
2019/07/06  03:04:00  BASE  0        43   0.9702   58   -4.1  87    -5.9  0     0     1005.2   NA       0.0000   9999     0     0     0    
2019/07/06  03:05:00  BASE  0        40   0.9702   58   -4.1  88    -5.8  0     0     1005.2   NA       0.0000   9999     0     0     0    
2019/07/06  03:06:00  BASE  0        45   0.9702   58   -4.0  88    -5.8  0     0     1005.2   NA       0.0000   9999     0     0     0    
2019/07/06  03:07:00  BASE  0        55   0.9702   58   -4.0  88    -5.7  0     0     1005.2   NA       0.0000   9999     0     0     0    
2019/07/06  03:08:00  BASE  0        56   0.9702   58   -4.0  88    -5.6  0     0     1005.2   NA       0.0000   9999     0     0     0    
2019/07/06  03:09:00  BASE  0.21756  49   0.75852  63   -4.0  89    -5.6  0     0     1005.2   NA       0.0000   9999     0     0     0    
2019/07/06  03:10:00  BASE  0.588    43   0.81732  42   -4.0  89    -5.6  0     0     1005.2   NA       0.0000   9999     0     0     0    
2019/07/06  03:11:00  BASE  0.7056   40   0.81732  42   -4.0  89    -5.6  0     0     1005.2   NA       0.0000   9999     0     0     0    
2019/07/06  03:12:00  BASE  0.69384  36   0.81732  42   -4.0  89    -5.5  0     0     1005.2   NA       0.0000   9999     0     0     0    
2019/07/06  03:13:00  BASE  0.69972  34   0.81732  42   -4.1  89    -5.6  0     0     1005.1   NA       0.0000   9999     0     0     0    
2019/07/06  03:14:00  BASE  0.68208  38   0.81732  42   -4.2  90    -5.6  0     0     1005.1   NA       0.0000   9999     0     0     0    
2019/07/06  03:15:00  BASE  0.53508  42   0.81732  42   -4.3  90    -5.7  0     0     1005.1   NA       0.0000   9999     0     0     0    
2019/07/06  03:16:00  BASE  0.18816  47   0.81732  42   -4.3  90    -5.7  0     0     1005.1   NA       0.0000   9999     0     0     0    
2019/07/06  03:17:00  BASE  0        53   0.81732  42   -4.4  91    -5.7  0     0     1005.1   NA       0.0000   9999     0     0     0    
2019/07/06  03:18:00  BASE  0        58   0.81732  42   -4.4  91    -5.6  0     0     1005.1   NA       0.0000   9999     0     0     0    
2019/07/06  03:19:00  BASE  0        58   0.81732  42   -4.3  92    -5.5  0     0     1005.1   NA       0.0000   9999     0     0     0    
2019/07/06  03:20:00  BASE  0        60   0.78792  38   -4.3  92    -5.4  0     0     1005.1   NA       0.0000   9999     0     0     0    
2019/07/06  03:21:00  BASE  0        64   0.78792  38   -4.2  92    -5.3  0     0     1005.1   NA       0.0000   9999     0     0     0    
2019/07/06  03:22:00  BASE  0        64   0.75852  42   -4.2  92    -5.2  0     0     1005.1   NA       0.0000   9999     0     0     0    
2019/07/06  03:23:00  BASE  0        66   0.75852  42   -4.1  93    -5.2  0     0     1005.2   NA       0.0000   9999     0     0     0    
2019/07/06  03:24:00  BASE  0        71   0.69384  42   -4.1  93    -5.1  0     0     1005.2   NA       0.0000   9999     0     0     0    
2019/07/06  03:25:00  BASE  0        76   0        M    -4.1  93    -5.0  0     0     1005.2   NA       0.0000   9999     0     0     0    
2019/07/06  03:26:00  BASE  0        79   0        M    -4.0  93    -5.0  0     0     1005.2   NA       0.0000   9999     0     0     0    
2019/07/06  03:27:00  BASE  0        80   0        M    -4.0  93    -5.0  0     0     1005.3   NA       0.0000   9999     0     0     0    
2019/07/06  03:28:00  BASE  0        78   0        M    -4.0  93    -4.9  0     0     1005.3   NA       0.0000   9999     0     0     0    
2019/07/06  03:29:00  BASE  0        72   0        M    -4.0  94    -4.9  0     0     1005.3   NA       0.0000   9999     0     0     0    
2019/07/06  03:30:00  BASE  0        62   0        M    -4.0  94    -4.8  0     0     1005.3   NA       0.0000   9999     0     0     0    
2019/07/06  03:31:00  BASE  0        55   0        M    -4.0  94    -4.8  0     0     1005.3   NA       0.0000   9999     0     0     0    
2019/07/06  03:32:00  BASE  0        54   0        M    -4.0  94    -4.8  0     0     1005.3   NA       0.0000   9999     0     0     0    
2019/07/06  03:33:00  BASE  0        55   0        M    -4.0  94    -4.8  0     0     1005.3   NA       0.0000   9999     0     0     0    
2019/07/06  03:34:00  BASE  0        55   0        M    -4.0  94    -4.8  0     0     1005.3   NA       0.0000   9999     0     0     0    
2019/07/06  03:35:00  BASE  0        67   0        M    -4.0  94    -4.8  0     0     1005.3   NA       0.0000   9999     0     0     0    
2019/07/06  03:36:00  BASE  0        84   0        M    -4.0  94    -4.9  0     0     1005.3   NA       0.0000   9999     0     0     0    
2019/07/06  03:37:00  BASE  0        96   0        M    -4.1  94    -4.9  0     0     1005.3   NA       0.0000   9999     0     0     0    
2019/07/06  03:38:00  BASE  0        97   0        M    -4.1  94    -4.9  0     0     1005.4   NA       0.0000   9999     0     0     0    
2019/07/06  03:39:00  BASE  0        84   0        M    -4.1  94    -4.9  0     0     1005.4   NA       0.0000   9999     0     0     0    
2019/07/06  03:40:00  BASE  0        58   0        M    -4.1  95    -4.9  0     0     1005.4   NA       0.0000   9999     0     0     0    
2019/07/06  03:41:00  BASE  0        33   0        M    -4.1  95    -4.8  0     0     1005.4   NA       0.0000   9999     0     0     0    
2019/07/06  03:42:00  BASE  0        19   0        M    -4.2  95    -4.8  0     0     1005.4   NA       0.0000   9999     0     0     0    
2019/07/06  03:43:00  BASE  0        24   0        M    -4.2  95    -4.8  0     0     1005.4   NA       0.0000   9999     0     0     0    
2019/07/06  03:44:00  BASE  0        35   0        M    -4.2  95    -4.9  0     0     1005.4   NA       0.0000   9999     0     0     0    
2019/07/06  03:45:00  BASE  0.34692  41   0.81732  46   -4.3  95    -5.0  0     0     1005.4   NA       0.0000   9999     0     0     0    
2019/07/06  03:46:00  BASE  0.8526   50   1.1172   52   -4.4  95    -5.1  0     0     1005.4   NA       0.0000   9999     0     0     0    
2019/07/06  03:47:00  BASE  0.98196  49   1.1172   52   -4.5  95    -5.2  0     0     1005.4   NA       0.0000   9999     0     0     0    
2019/07/06  03:48:00  BASE  0.84672  45   1.1172   52   -4.6  94    -5.3  0     0     1005.4   NA       0.0000   9999     0     0     0    
2019/07/06  03:49:01  BASE  0.65856  40   1.1172   52   -4.7  94    -5.5  0     0     1005.5   NA       0.0000   9999     0     0     0    
2019/07/06  03:50:01  BASE  0.60564  37   1.1172   52   -4.7  94    -5.5  0     0     1005.6   NA       0.0000   9999     0     0     0    
2019/07/06  03:51:01  BASE  0.67032  38   1.1172   52   -4.6  93    -5.6  0     0     1005.6   NA       0.0000   9999     0     0     0    
2019/07/06  03:52:01  BASE  0.59388  38   1.1172   52   -4.6  93    -5.6  0     0     1005.6   NA       0.0000   9999     0     0     0    
2019/07/06  03:53:01  BASE  0.58212  38   1.1172   52   -4.5  92    -5.6  0     0     1005.6   NA       0.0000   9999     0     0     0    
2019/07/06  03:54:01  BASE  0.8232   40   1.18188  49   -4.5  92    -5.7  0     0     1005.6   NA       0.0000   9999     0     0     0    
2019/07/06  03:55:01  BASE  0.99372  39   1.18188  49   -4.5  91    -5.7  0     0     1005.6   NA       0.0000   9999     0     0     0    
2019/07/06  03:56:01  BASE  1.04076  36   1.18188  49   -4.5  91    -5.8  0     0     1005.6   NA       0.0000   9999     0     0     0    
2019/07/06  03:57:01  BASE  1.06428  34   1.18188  49   -4.5  90    -5.9  0     0     1005.6   NA       0.0000   9999     0     0     0    
2019/07/06  03:58:01  BASE  1.0584   34   1.18188  39   -4.6  90    -6.0  0     0     1005.6   NA       0.0000   9999     0     0     0    
2019/07/06  03:59:01  BASE  1.11132  35   1.24068  36   -4.7  90    -6.1  0     0     1005.6   NA       0.0000   9999     0     0     0    
2019/07/06  04:00:01  BASE  1.2054   34   1.29948  34   -4.7  90    -6.1  0     0     1005.7   NA       0.0000   9999     0     0     0    
2019/07/06  04:01:01  BASE  1.21128  37   1.29948  48   -4.8  90    -6.2  0     0     1005.7   NA       0.0000   9999     0     0     0    
2019/07/06  04:02:02  BASE  1.22304  42   1.35828  49   -4.8  90    -6.2  0     0     M        NA       0.0000   9999     0     0     0    
2019/07/06  04:03:02  BASE  1.07016  53   1.35828  49   -4.8  90    -6.3  0     0     1005.7   NA       0.0000   9999     0     0     0    
2019/07/06  04:04:02  BASE  0.94668  56   1.35828  49   -4.8  90    -6.3  0     0     1005.7   NA       0.0000   9999     0     0     0    
2019/07/06  04:05:01  BASE  1.15836  53   1.48176  54   -4.8  90    -6.2  0     0     1005.7   NA       0.0000   9999     0     0     0    
2019/07/06  04:06:02  BASE  1.39356  55   1.57584  59   -4.8  90    -6.2  0     0     1005.7   NA       0.0000   9999     0     0     0    
2019/07/06  04:07:01  BASE  1.48176  58   1.57584  59   -4.8  90    -6.1  0     0     1005.7   NA       0.0000   9999     0     0     0    
2019/07/06  04:08:02  BASE  1.4994   57   1.57584  56   -4.7  90    -6.1  0     0     1005.7   NA       0.0000   9999     0     0     0    
2019/07/06  04:09:02  BASE  1.4406   53   1.57584  56   -4.7  90    -6.0  0     0     1005.7   NA       0.0000   9999     0     0     0    
2019/07/06  04:10:01  BASE  1.43472  47   1.57584  40   -4.7  91    -6.0  0     0     1005.7   NA       0.0000   9999     0     0     0    
2019/07/06  04:11:02  BASE  1.49352  44   1.57584  40   -4.7  91    -6.0  0     0     1005.7   NA       0.0000   9999     0     0     0    
2019/07/06  04:12:01  BASE  1.47588  45   1.57584  40   -4.7  91    -6.0  0     0     1005.7   NA       0.0000   9999     0     0     0    
2019/07/06  04:13:02  BASE  1.4406   47   1.57584  40   -4.7  91    -6.0  0     0     1005.7   NA       0.0000   9999     0     0     0    
2019/07/06  04:14:02  BASE  1.3818   49   1.57584  40   -4.8  91    -6.0  0     0     1005.7   NA       0.0000   9999     0     0     0    
2019/07/06  04:15:01  BASE  1.39944  50   1.57584  40   -4.8  92    -6.0  0     0     1005.7   NA       0.0000   9999     0     0     0    
2019/07/06  04:16:02  BASE  1.4406   52   1.57584  40   -4.8  92    -5.9  0     0     1005.7   NA       0.0000   9999     0     0     0    
2019/07/06  04:17:02  BASE  1.45236  53   1.60524  52   -4.8  92    -5.8  0     0     1005.7   NA       0.0000   9999     0     0     0    
2019/07/06  04:18:02  BASE  1.42884  53   1.60524  52   -4.8  93    -5.8  0     0     1005.7   NA       0.0000   9999     0     0     0    
2019/07/06  04:19:02  BASE  1.2642   55   1.60524  52   -4.8  93    -5.8  0     0     1005.7   NA       0.0000   9999     0     0     0    
2019/07/06  04:20:01  BASE  1.02312  57   1.60524  52   -4.8  93    -5.7  0     0     1005.7   NA       0.0000   9999     0     0     0    
2019/07/06  04:21:02  BASE  0.62328  59   1.60524  52   -4.8  93    -5.7  0     0     1005.7   NA       0.0000   9999     0     0     0    
2019/07/06  04:22:02  BASE  0.38808  58   1.60524  52   -4.8  94    -5.6  0     0     1005.7   NA       0.0000   9999     0     0     0    
2019/07/06  04:23:02  BASE  0.64092  61   1.60524  52   -4.7  94    -5.6  0     0     1005.7   NA       0.0000   9999     0     0     0    
2019/07/06  04:24:02  BASE  0.88788  61   1.60524  52   -4.7  94    -5.5  0     0     1005.7   NA       0.0000   9999     0     0     0    
2019/07/06  04:25:02  BASE  1.02312  54   1.60524  52   -4.7  94    -5.5  0     0     1005.8   NA       0.0000   9999     0     0     0    
2019/07/06  04:26:02  BASE  1.18188  49   1.60524  52   -4.7  94    -5.5  0     0     1005.8   NA       0.0000   9999     0     0     0    
2019/07/06  04:27:02  BASE  1.28772  51   1.45236  53   -4.7  94    -5.5  0     0     1005.8   NA       0.0000   9999     0     0     0    
2019/07/06  04:28:01  BASE  1.42884  58   1.60524  69   -4.7  94    -5.4  0     0     1005.8   NA       0.0000   9999     0     0     0    
2019/07/06  04:29:01  BASE  1.33476  67   1.60524  69   -4.7  95    -5.4  0     0     1005.8   NA       0.0000   9999     0     0     0    
2019/07/06  04:30:01  BASE  1.19364  67   1.60524  69   -4.6  95    -5.3  0     0     1005.8   NA       0.0000   9999     0     0     0    
2019/07/06  04:31:02  BASE  1.03488  68   1.60524  69   -4.6  95    -5.3  0     0     1005.8   NA       0.0000   9999     0     0     0    
2019/07/06  04:32:01  BASE  1.02312  67   1.60524  69   -4.6  95    -5.2  0     0     1005.8   NA       0.0000   9999     0     0     0    
2019/07/06  04:33:01  BASE  1.323    61   1.60524  69   -4.6  96    -5.2  0     0     1005.8   NA       0.0000   9999     0     0     0    
2019/07/06  04:34:02  BASE  1.39356  57   1.60524  69   -4.6  96    -5.2  0     0     1005.8   NA       0.0000   9999     0     0     0    
2019/07/06  04:35:02  BASE  1.39356  52   1.60524  69   -4.6  96    -5.1  0     0     1005.8   NA       0.0000   9999     0     0     0    
2019/07/06  04:36:01  BASE  1.47588  47   1.60524  69   -4.7  96    -5.2  0     0     1005.8   NA       0.0000   9999     0     0     0    
2019/07/06  04:37:02  BASE  1.5876   46   1.75224  47   -4.7  97    -5.2  0     0     1005.8   NA       0.0000   9999     0     0     0    
2019/07/06  04:38:02  BASE  1.68756  47   1.75224  47   -4.8  97    -5.2  0     0     1005.8   NA       0.0000   9999     0     0     0    
2019/07/06  04:39:01  BASE  1.68756  48   1.75224  49   -4.8  97    -5.1  0     0     1005.8   NA       0.0000   9999     0     0     0    
2019/07/06  04:40:01  BASE  1.69932  49   1.81692  49   -4.8  98    -5.1  0     0     1005.8   NA       0.0000   9999     0     0     0    
2019/07/06  04:41:01  BASE  1.7346   51   1.81692  52   -4.8  98    -5.1  0     0     1005.8   NA       0.0000   9999     0     0     0    
2019/07/06  04:42:01  BASE  1.62288  53   1.81692  52   -4.8  98    -5.0  0     0     1005.8   NA       0.0000   9999     0     0     0    
2019/07/06  04:43:02  BASE  1.52292  52   1.81692  52   -4.8  99    -5.0  0     0     1005.8   NA       0.0000   9999     0     0     0    
2019/07/06  04:44:01  BASE  1.50528  50   1.81692  52   -4.8  99    -4.9  0     0     1005.8   NA       0.0000   9999     0     0     0    
2019/07/06  04:45:02  BASE  1.45236  48   1.81692  52   -4.8  99    -4.9  0     0     1005.9   NA       0.0000   9999     0     0     0    
2019/07/06  04:46:01  BASE  1.37592  48   1.81692  52   -4.8  100   -4.9  0     0     1005.9   NA       0.0000   9999     0     0     0    
2019/07/06  04:47:01  BASE  1.38768  49   1.81692  52   -4.8  100   -4.8  0     0     1005.9   NA       0.0000   9999     0     0     0    
2019/07/06  04:48:02  BASE  1.51116  48   1.81692  52   -4.8  100   -4.8  0     0     1005.9   NA       0.0000   9999     0     0     0    
2019/07/06  04:49:01  BASE  1.69344  46   1.90512  44   -4.8  100   -4.8  0     0     1005.9   NA       0.0000   9999     0     0     0    
2019/07/06  04:50:01  BASE  1.84632  43   1.96392  40   -4.8  100   -4.8  0     0     1005.9   NA       0.0000   9999     0     0     0    
2019/07/06  04:51:02  BASE  1.88748  41   1.96392  40   -4.8  100   -4.8  0     0     1005.9   NA       0.0000   9999     0     0     0    
2019/07/06  04:52:01  BASE  1.8522   40   1.96392  40   -4.9  100   -4.9  0     0     1005.9   NA       0.0000   9999     0     0     0    
2019/07/06  04:53:01  BASE  1.82868  42   1.96392  40   -4.9  100   -4.9  0     0     1005.9   NA       0.0000   9999     0     0     0    
2019/07/06  04:54:01  BASE  1.84632  43   1.96392  40   -5.0  100   -5.0  0     0     1005.9   NA       0.0000   9999     0     0     0    
2019/07/06  04:55:01  BASE  1.87572  44   1.96392  40   -5.0  100   -5.0  0     0     1005.9   NA       0.0000   9999     0     0     0    
2019/07/06  04:56:01  BASE  1.91688  42   2.0286   40   -5.0  100   -5.0  0     0     1005.9   NA       0.0000   9999     0     0     0    
2019/07/06  04:57:01  BASE  2.01684  42   2.1756   44   -5.1  100   -5.1  0     0     1005.9   NA       0.0000   9999     0     0     0    
2019/07/06  04:58:02  BASE  2.04036  41   2.1756   44   -5.1  100   -5.1  0     0     1005.9   NA       0.0000   9999     0     0     0    
2019/07/06  04:59:01  BASE  1.98156  40   2.1756   44   -5.2  100   -5.2  0     0     1005.9   NA       0.0000   9999     0     0     0    
2019/07/06  05:00:02  BASE  1.93452  40   2.1756   44   -5.3  100   -5.3  0     0     1005.9   NA       0.0000   9999     0     0     0    
2019/07/06  05:01:02  BASE  1.84632  38   2.1756   44   -5.3  100   -5.3  0     0     1005.9   NA       0.0000   9999     0     0     0    
2019/07/06  05:02:02  BASE  1.7346   38   2.1756   44   -5.3  100   -5.3  0     0     1005.9   NA       0.0000   9999     0     0     0    
2019/07/06  05:03:02  BASE  1.63464  40   2.1756   44   -5.3  100   -5.3  0     0     1005.9   NA       0.0000   9999     0     0     0    
2019/07/06  05:04:02  BASE  1.59348  40   2.1756   44   -5.3  100   -5.3  0     0     1005.9   NA       0.0000   9999     0     0     0    
2019/07/06  05:05:02  BASE  1.66404  41   2.1756   44   -5.2  100   -5.2  0     0     1005.9   NA       0.0000   9999     0     0     0    
2019/07/06  05:06:01  BASE  1.7934   43   2.1756   44   -5.2  100   -5.2  0     0     1005.9   NA       0.0000   9999     0     0     0    
2019/07/06  05:07:02  BASE  1.86396  44   2.0874   41   -5.1  100   -5.1  0     0     1005.9   NA       0.0000   9999     0     0     0    
2019/07/06  05:08:01  BASE  1.92864  44   2.0874   44   -5.1  100   -5.1  0     0     1005.9   NA       0.0000   9999     0     0     0    
2019/07/06  05:09:01  BASE  2.04624  45   2.1462   51   -5.1  100   -5.1  0     0     1005.9   NA       0.0000   9999     0     0     0    
2019/07/06  05:10:01  BASE  2.12268  48   2.24028  51   -5.2  100   -5.2  0     0     1005.9   NA       0.0000   9999     0     0     0    
2019/07/06  05:11:02  BASE  2.1168   49   2.24028  46   -5.2  100   -5.2  0     0     1005.9   NA       0.0000   9999     0     0     0    
2019/07/06  05:12:01  BASE  2.02272  47   2.24028  46   -5.2  100   -5.2  0     0     1005.9   NA       0.0000   9999     0     0     0    
2019/07/06  05:13:01  BASE  1.89336  44   2.24028  46   -5.3  100   -5.3  0     0     1005.9   NA       0.0000   9999     0     0     0    
2019/07/06  05:14:01  BASE  1.8816   43   2.24028  46   -5.3  100   -5.3  0     0     1005.9   NA       0.0000   9999     0     0     0    
2019/07/06  05:15:01  BASE  1.89924  41   2.24028  46   -5.3  100   -5.3  0     0     1005.9   NA       0.0000   9999     0     0     0    
2019/07/06  05:16:01  BASE  1.8522   41   2.24028  46   -5.3  100   -5.3  0     0     1006.0   NA       0.0000   9999     0     0     0    
2019/07/06  05:17:01  BASE  1.75812  46   2.24028  46   -5.3  100   -5.3  0     0     1006.1   NA       0.0000   9999     0     0     0    
2019/07/06  05:18:01  BASE  1.69344  49   2.24028  46   -5.2  100   -5.3  0     0     1006.1   NA       0.0000   9999     0     0     0    
2019/07/06  05:19:01  BASE  1.7052   49   2.24028  46   -5.3  100   -5.3  0     0     1006.1   NA       0.0000   9999     0     0     0    
2019/07/06  05:20:01  BASE  1.63464  47   2.24028  46   -5.3  100   -5.3  0     0     1006.1   NA       0.0000   9999     0     0     0    
2019/07/06  05:21:02  BASE  1.59348  46   2.0874   39   -5.3  100   -5.3  0     0     1006.1   NA       0.0000   9999     0     0     0    
2019/07/06  05:22:01  BASE  1.61112  45   2.0874   39   -5.3  100   -5.3  0     0     1006.1   NA       0.0000   9999     0     0     0    
2019/07/06  05:23:01  BASE  1.65816  44   2.0874   39   -5.3  100   -5.3  0     0     1006.1   NA       0.0000   9999     0     0     0    
2019/07/06  05:24:01  BASE  1.7346   42   2.0874   39   -5.3  100   -5.3  0     0     1006.1   NA       0.0000   9999     0     0     0    
2019/07/06  05:25:01  BASE  1.72872  39   2.0874   39   -5.3  100   -5.3  0     0     1006.1   NA       0.0000   9999     0     0     0    
2019/07/06  05:26:01  BASE  1.72284  43   1.96392  52   -5.3  100   -5.3  0     0     1006.1   NA       0.0000   9999     0     0     0    
2019/07/06  05:27:02  BASE  1.82868  50   2.0286   53   -5.3  100   -5.3  0     0     1006.1   NA       0.0000   9999     0     0     0    
2019/07/06  05:28:01  BASE  1.89336  48   2.0286   53   -5.3  100   -5.3  0     0     1006.1   NA       0.0000   9999     0     0     0    
2019/07/06  05:29:00  BASE  1.86396  46   2.0286   53   -5.3  100   -5.3  0     0     1006.1   NA       0.0000   9999     0     0     0    
2019/07/06  05:30:01  BASE  1.86984  50   2.058    52   -5.3  100   -5.3  0     0     1006.1   NA       0.0000   9999     0     0     0    
2019/07/06  05:31:02  BASE  1.89924  53   2.21088  57   -5.2  100   -5.2  0     0     1006.1   NA       0.0000   9999     0     0     0    
2019/07/06  05:32:01  BASE  1.82868  54   2.21088  57   -5.2  100   -5.2  0     0     1006.1   NA       0.0000   9999     0     0     0    
2019/07/06  05:33:02  BASE  1.6464   51   2.21088  57   -5.2  100   -5.2  0     0     1006.1   NA       0.0000   9999     0     0     0    
2019/07/06  05:34:02  BASE  1.45236  47   2.21088  57   -5.2  100   -5.2  0     0     1006.1   NA       0.0000   9999     0     0     0    
2019/07/06  05:35:03  BASE  1.51116  50   2.21088  57   -5.2  100   -5.2  0     0     1006.2   NA       0.0000   9999     0     0     0    
2019/07/06  05:36:02  BASE  1.71108  51   2.21088  57   -5.1  100   -5.2  0     0     1006.2   NA       0.0000   9999     0     0     0    
2019/07/06  05:37:01  BASE  1.83456  49   2.21088  57   -5.2  100   -5.2  0     0     1006.3   NA       0.0000   9999     0     0     0    
2019/07/06  05:38:02  BASE  1.96392  50   2.21088  57   -5.2  100   -5.2  0     0     1006.3   NA       0.0000   9999     0     0     0    
2019/07/06  05:39:01  BASE  2.09916  49   2.24028  46   -5.2  100   -5.2  0     0     1006.3   NA       0.0000   9999     0     0     0    
2019/07/06  05:40:02  BASE  2.14032  48   2.24028  46   -5.2  100   -5.2  0     0     1006.3   NA       0.0000   9999     0     0     0    
2019/07/06  05:41:01  BASE  2.10504  50   2.24028  46   -5.2  100   -5.2  0     0     1006.3   NA       0.0000   9999     0     0     0    
2019/07/06  05:42:01  BASE  2.01684  52   2.24028  46   -5.1  100   -5.2  0     0     1006.3   NA       0.0000   9999     0     0     0    
2019/07/06  05:43:01  BASE  1.79928  55   2.24028  46   -5.1  100   -5.2  0     0     1006.3   NA       0.0000   9999     0     0     0    
2019/07/06  05:44:01  BASE  1.69932  57   2.24028  46   -5.1  99    -5.2  0     0     1006.3   NA       0.0000   9999     0     0     0    
2019/07/06  05:45:01  BASE  1.84044  59   2.24028  46   -5.1  99    -5.2  0     0     1006.3   NA       0.0000   9999     0     0     0    
2019/07/06  05:46:01  BASE  1.80516  61   2.24028  46   -5.1  99    -5.2  0     0     1006.3   NA       0.0000   9999     0     0     0    
2019/07/06  05:47:01  BASE  1.54644  62   2.24028  46   -5.1  99    -5.3  0     0     1006.3   NA       0.0000   9999     0     0     0    
2019/07/06  05:48:01  BASE  1.45236  63   2.24028  46   -5.0  98    -5.3  0     0     1006.4   NA       0.0000   9999     0     0     0    
2019/07/06  05:49:01  BASE  1.54644  67   2.21088  49   -5.0  98    -5.3  0     0     1006.4   NA       0.0000   9999     0     0     0    
2019/07/06  05:50:02  BASE  1.52292  75   2.1756   51   -5.0  98    -5.3  0     0     1006.4   NA       0.0000   9999     0     0     0    
2019/07/06  05:51:01  BASE  1.38768  77   2.0286   61   -4.9  97    -5.3  0     0     1006.4   NA       0.0000   9999     0     0     0    
2019/07/06  05:52:01  BASE  1.323    78   2.0286   61   -4.9  97    -5.3  0     0     1006.4   NA       0.0000   9999     0     0     0    
2019/07/06  05:53:01  BASE  1.21716  77   2.0286   61   -4.8  97    -5.3  0     0     1006.4   NA       0.0000   9999     0     0     0    
2019/07/06  05:54:01  BASE  1.1466   76   2.0286   61   -4.8  96    -5.3  0     0     1006.4   NA       0.0000   9999     0     0     0    
2019/07/06  05:55:01  BASE  1.28772  83   1.87572  56   -4.7  96    -5.2  0     0     1006.4   NA       0.0000   9999     0     0     0    
2019/07/06  05:56:01  BASE  1.2936   87   1.81692  68   -4.6  96    -5.1  0     0     1006.4   NA       0.0000   9999     0     0     0    
2019/07/06  05:57:01  BASE  1.15836  80   1.81692  68   -4.5  96    -5.1  0     0     1006.4   NA       0.0000   9999     0     0     0    
2019/07/06  05:58:01  BASE  1.18776  80   1.81692  68   -4.4  95    -5.1  0     0     1006.4   NA       0.0000   9999     0     0     0    
2019/07/06  05:59:01  BASE  1.09956  86   1.63464  73   -4.3  95    -5.0  0     0     1006.4   NA       0.0000   9999     0     0     0    
2019/07/06  06:00:01  BASE  0.95256  83   1.63464  73   -4.2  95    -4.9  0     0     1006.4   NA       0.0000   9999     0     0     0    
2019/07/06  06:01:01  BASE  0.9114   78   1.63464  73   -4.2  95    -4.8  0     0     1006.4   NA       0.0000   9999     0     0     0    
2019/07/06  06:02:01  BASE  0.87024  81   1.63464  73   -4.1  96    -4.7  0     0     1006.4   NA       0.0000   9999     0     0     0    
2019/07/06  06:03:01  BASE  0.81732  85   1.63464  73   -4.1  96    -4.7  0     0     1006.4   NA       0.0000   9999     0     0     0    
2019/07/06  06:04:01  BASE  0.7938   84   1.63464  73   -4.1  96    -4.6  0     0     1006.4   NA       0.0000   9999     0     0     0    
2019/07/06  06:05:01  BASE  0.9114   83   1.48176  80   -4.0  96    -4.6  0     0     1006.5   NA       0.0000   9999     0     0     0    
2019/07/06  06:06:01  BASE  0.95256  80   1.42296  82   -4.0  96    -4.5  0     0     1006.5   NA       0.0000   9999     0     0     0    
2019/07/06  06:07:01  BASE  0.63504  78   1.42296  82   -4.0  97    -4.5  0     0     1006.5   NA       0.0000   9999     0     0     0    
2019/07/06  06:08:00  BASE  0.57624  73   1.1466   80   -4.1  97    -4.5  0     0     1006.5   NA       0.0000   9999     0     0     0    
2019/07/06  06:09:01  BASE  0.7644   68   1.1466   80   -4.1  97    -4.5  0     0     1006.6   NA       0.0000   9999     0     0     0    
2019/07/06  06:10:02  BASE  0.75264  66   1.1466   80   -4.2  97    -4.6  0     0     1006.6   NA       0.0000   9999     0     0     0    
2019/07/06  06:11:00  BASE  0.42336  70   1.1466   80   -4.3  97    -4.7  0     0     1006.5   NA       0.0000   9999     0     0     0    
2019/07/06  06:12:01  BASE  0.11172  96   1.1466   80   -4.4  97    -4.8  0     0     1006.5   NA       0.0000   9999     0     0     0    
2019/07/06  06:13:01  BASE  0.10584  123  1.1466   80   -4.5  97    -4.9  0     0     1006.5   NA       0.0000   9999     0     0     0    
2019/07/06  06:14:01  BASE  0.44688  134  1.1466   80   -4.6  97    -5.0  0     0     1006.5   NA       0.0000   9999     0     0     0    
2019/07/06  06:15:01  BASE  0.88788  144  1.0584   149  -4.7  97    -5.0  0     0     1006.5   NA       0.0000   9999     0     0     0    
2019/07/06  06:16:00  BASE  1.07016  148  1.24068  144  -4.8  97    -5.1  0     0     1006.5   NA       0.0000   9999     0     0     0    
2019/07/06  06:17:01  BASE  1.34652  148  1.63464  157  -4.9  97    -5.2  0     0     1006.5   NA       0.0000   9999     0     0     0    
2019/07/06  06:18:01  BASE  1.58172  149  1.75224  149  -5.0  97    -5.3  0     0     1006.5   NA       0.0000   9999     0     0     0    
2019/07/06  06:19:01  BASE  1.64052  149  1.78752  147  -5.1  98    -5.3  0     0     1006.5   NA       0.0000   9999     0     0     0    
2019/07/06  06:20:01  BASE  1.6758   146  1.87572  147  -5.1  98    -5.4  0     0     1006.5   NA       0.0000   9999     0     0     0    
2019/07/06  06:21:01  BASE  1.6464   148  1.87572  147  -5.1  99    -5.3  0     0     1006.5   NA       0.0000   9999     0     0     0    
2019/07/06  06:22:01  BASE  1.62288  152  1.87572  147  -5.1  99    -5.2  0     0     1006.5   NA       0.0000   9999     0     0     0    
2019/07/06  06:23:01  BASE  1.62876  153  1.87572  147  -5.1  99    -5.2  0     0     1006.5   NA       0.0000   9999     0     0     0    
2019/07/06  06:24:01  BASE  1.56408  154  1.87572  147  -5.1  99    -5.2  0     0     1006.5   NA       0.0000   9999     0     0     0    
2019/07/06  06:25:01  BASE  1.45824  150  1.87572  147  -5.1  99    -5.2  0     0     1006.5   NA       0.0000   9999     0     0     0    
2019/07/06  06:26:02  BASE  1.45236  150  1.87572  147  -5.2  100   -5.2  0     0     1006.6   NA       0.0000   9999     0     0     0    
2019/07/06  06:27:01  BASE  1.3524   150  1.87572  147  -5.2  100   -5.2  0     0     1006.6   NA       0.0000   9999     0     0     0    
2019/07/06  06:28:01  BASE  1.19952  144  1.87572  147  -5.2  100   -5.2  0     0     1006.6   NA       0.0000   9999     0     0     0    
2019/07/06  06:29:01  BASE  1.12308  135  1.87572  147  -5.2  100   -5.2  0     0     1006.6   NA       0.0000   9999     0     0     0    
2019/07/06  06:30:01  BASE  0.9702   123  1.75224  157  -5.1  100   -5.1  0     0     1006.6   NA       0.0000   9999     0     0     0    
2019/07/06  06:31:02  BASE  0.67032  111  1.75224  157  -5.0  100   -5.0  0     0     1006.6   NA       0.0000   9999     0     0     0    
2019/07/06  06:32:01  BASE  0.40572  102  1.75224  157  -4.8  100   -4.8  0     0     1006.6   NA       0.0000   9999     0     0     0    
2019/07/06  06:33:01  BASE  0.17052  92   1.57584  155  -4.6  100   -4.6  0     0     1006.6   NA       0.0000   9999     0     0     0    
2019/07/06  06:34:01  BASE  0.08232  88   1.57584  155  -4.5  100   -4.5  0     0     1006.6   NA       0.0000   9999     0     0     0    
2019/07/06  06:35:02  BASE  0.32928  83   1.57584  155  -4.5  100   -4.5  0     0     1006.6   NA       0.0000   9999     0     0     0    
2019/07/06  06:36:01  BASE  0.3822   73   1.42296  150  -4.5  100   -4.5  0     0     1006.6   NA       0.0000   9999     0     0     0    
2019/07/06  06:37:01  BASE  0.5292   64   1.32888  137  -4.5  100   -4.5  0     0     1006.6   NA       0.0000   9999     0     0     0    
2019/07/06  06:38:02  BASE  0.81732  53   1.29948  136  -4.6  100   -4.6  0     0     1006.6   NA       0.0000   9999     0     0     0    
2019/07/06  06:39:01  BASE  0.75264  53   1.27008  47   -4.7  100   -4.7  0     0     1006.6   NA       0.0000   9999     0     0     0    
2019/07/06  06:40:01  BASE  0.7644   50   1.27008  47   -4.7  100   -4.7  0     0     1006.6   NA       0.0000   9999     0     0     0    
2019/07/06  06:41:01  BASE  0.81732  52   1.35828  56   -4.7  100   -4.7  0     0     1006.6   NA       0.0000   9999     0     0     0    
2019/07/06  06:42:01  BASE  0.95844  65   1.45236  76   -4.7  100   -4.7  0     0     1006.6   NA       0.0000   9999     0     0     0    
2019/07/06  06:43:01  BASE  1.04076  58   1.45236  76   -4.6  100   -4.6  0     0     1006.6   NA       0.0000   9999     0     0     0    
2019/07/06  06:44:00  BASE  0.8526   47   1.45236  76   -4.7  100   -4.7  0     0     1006.6   NA       0.0000   9999     0     0     0    
2019/07/06  06:45:01  BASE  0.74676  56   1.45236  76   -4.7  100   -4.7  0     0     1006.6   NA       0.0000   9999     0     0     0    
2019/07/06  06:46:02  BASE  0.77028  73   1.45236  76   -4.7  100   -4.7  0     0     1006.6   NA       0.0000   9999     0     0     0    
2019/07/06  06:47:01  BASE  0.90552  89   1.45236  76   -4.8  100   -4.8  0     0     1006.6   NA       0.0000   9999     0     0     0    
2019/07/06  06:48:01  BASE  1.07016  100  1.45236  76   -4.8  100   -4.8  0     0     1006.6   NA       0.0000   9999     0     0     0    
2019/07/06  06:49:01  BASE  0.7056   113  1.45236  76   -4.8  100   -4.8  0     0     1006.6   NA       0.0000   9999     0     0     0    
2019/07/06  06:50:01  BASE  0.294    132  1.45236  76   -4.9  100   -4.9  0     0     1006.6   NA       0.0000   9999     0     0     0    
2019/07/06  06:51:01  BASE  0.1764   148  1.45236  76   -5.0  100   -5.0  0     0     1006.6   NA       0.0000   9999     0     0     0    
2019/07/06  06:52:02  BASE  0.47628  145  1.42296  130  -5.0  100   -5.0  0     0     1006.6   NA       0.0000   9999     0     0     0    
2019/07/06  06:53:01  BASE  1.07604  134  1.54056  132  -5.1  100   -5.1  0     0     1006.6   NA       0.0000   9999     0     0     0    
2019/07/06  06:54:01  BASE  1.21716  129  1.54056  132  -5.2  100   -5.2  0     0     1006.6   NA       0.0000   9999     0     0     0    
2019/07/06  06:55:02  BASE  1.62876  126  2.26968  131  -5.3  100   -5.3  0     0     1006.6   NA       0.0000   9999     0     0     0    
2019/07/06  06:56:01  BASE  1.95216  126  2.26968  131  -5.3  100   -5.3  0     0     1006.6   NA       0.0000   9999     0     0     0    
2019/07/06  06:57:01  BASE  1.8522   127  2.26968  131  -5.3  100   -5.3  0     0     1006.6   NA       0.0000   9999     0     0     0    
2019/07/06  06:58:01  BASE  1.85808  126  2.26968  131  -5.3  100   -5.3  0     0     1006.6   NA       0.0000   9999     0     0     0    
2019/07/06  06:59:01  BASE  1.98156  126  2.42256  124  -5.3  100   -5.3  0     0     1006.6   NA       0.0000   9999     0     0     0    
2019/07/06  07:00:01  BASE  2.09916  129  2.42256  128  -5.3  100   -5.3  0     0     1006.6   NA       0.0000   9999     0     0     0    
2019/07/06  07:01:01  BASE  2.22264  128  2.59896  135  -5.2  100   -5.2  0     0     1006.6   NA       0.0000   9999     0     0     0    
2019/07/06  07:02:01  BASE  2.46372  130  3.087    133  -5.3  100   -5.3  0     0     1006.6   NA       0.0000   9999     0     0     0    
2019/07/06  07:03:01  BASE  2.94     133  3.51036  133  -5.4  100   -5.4  0     0     1006.6   NA       0.0000   9999     0     0     0    
2019/07/06  07:04:01  BASE  3.30456  134  3.59856  136  -5.5  100   -5.5  0     0     1006.6   NA       0.0000   9999     0     0     0    
2019/07/06  07:05:01  BASE  3.381    134  3.59856  136  -5.5  100   -5.5  0     0     1006.6   NA       0.0000   9999     0     0     0    
2019/07/06  07:06:01  BASE  3.35748  133  3.59856  136  -5.6  100   -5.6  0     0     1006.6   NA       0.0000   9999     0     0     0    
2019/07/06  07:07:01  BASE  3.4104   132  3.69264  133  -5.6  100   -5.6  0     0     1006.6   NA       0.0000   9999     0     0     0    
2019/07/06  07:08:00  BASE  3.5574   130  3.86904  132  -5.5  100   -5.5  0     0     1006.6   NA       0.0000   9999     0     0     0    
2019/07/06  07:09:01  BASE  3.32808  129  3.86904  132  -5.4  100   -5.4  0     0     1006.6   NA       0.0000   9999     0     0     0    
2019/07/06  07:10:01  BASE  2.97528  128  3.86904  132  -5.3  100   -5.3  0     0     1006.6   NA       0.0000   9999     0     0     0    
2019/07/06  07:11:01  BASE  2.89296  126  3.86904  132  -5.3  100   -5.3  0     0     1006.6   NA       0.0000   9999     0     0     0    
2019/07/06  07:12:01  BASE  2.87532  126  3.86904  132  -5.2  100   -5.2  0     0     1006.6   NA       0.0000   9999     0     0     0    
2019/07/06  07:13:01  BASE  2.9694   126  3.86904  132  -5.2  100   -5.2  0     0     1006.6   NA       0.0000   9999     0     0     0    
2019/07/06  07:14:01  BASE  3.1458   126  3.86904  132  -5.2  100   -5.2  0     0     1006.6   NA       0.0000   9999     0     0     0    
2019/07/06  07:15:02  BASE  3.05172  127  3.86904  132  -5.2  100   -5.2  0     0     1006.6   NA       0.0000   9999     0     0     0    
2019/07/06  07:16:01  BASE  2.84592  127  3.86904  132  -5.2  100   -5.2  0     0     1006.6   NA       0.0000   9999     0     0     0    
2019/07/06  07:17:01  BASE  2.85768  126  3.86904  132  -5.3  100   -5.3  0     0     1006.6   NA       0.0000   9999     0     0     0    
2019/07/06  07:18:01  BASE  2.9106   126  3.53976  134  -5.3  100   -5.3  0     0     1006.6   NA       0.0000   9999     0     0     0    
2019/07/06  07:19:01  BASE  2.92236  125  3.41628  122  -5.3  100   -5.3  0     0     1006.6   NA       0.0000   9999     0     0     0    
2019/07/06  07:20:01  BASE  3.00468  125  3.41628  122  -5.3  100   -5.3  0     0     1006.6   NA       0.0000   9999     0     0     0    
2019/07/06  07:21:01  BASE  3.15756  126  3.48096  124  -5.3  100   -5.3  0     0     1006.6   NA       0.0000   9999     0     0     0    
2019/07/06  07:22:01  BASE  3.2046   124  3.48096  124  -5.3  100   -5.3  0     0     1006.6   NA       0.0000   9999     0     0     0    
2019/07/06  07:23:02  BASE  3.12816  122  3.48096  124  -5.4  100   -5.4  0     0     1006.6   NA       0.0000   9999     0     0     0    
2019/07/06  07:24:00  BASE  3.05172  121  3.48096  124  -5.5  100   -5.5  0     0     1006.6   NA       0.0000   9999     0     0     0    
2019/07/06  07:25:01  BASE  2.99292  120  3.48096  124  -5.6  100   -5.6  0     0     1006.6   NA       0.0000   9999     0     0     0    
2019/07/06  07:26:01  BASE  3.15756  118  3.69264  120  -5.7  100   -5.7  0     0     1006.6   NA       0.0000   9999     0     0     0    
2019/07/06  07:27:01  BASE  3.43392  118  3.78084  118  -5.8  100   -5.8  0     0     1006.6   NA       0.0000   9999     0     0     0    
2019/07/06  07:28:01  BASE  3.62208  118  3.86904  120  -5.9  100   -5.9  0     0     1006.6   NA       0.0000   9999     0     0     0    
2019/07/06  07:29:01  BASE  3.72204  120  3.96312  120  -6.0  100   -6.0  0     0     1006.6   NA       0.0000   9999     0     0     0    
2019/07/06  07:30:01  BASE  3.72204  121  3.96312  120  -6.0  100   -6.0  0     0     1006.6   NA       0.0000   9999     0     0     0    
2019/07/06  07:31:01  BASE  3.53388  120  3.96312  120  -6.0  100   -6.0  0     0     1006.6   NA       0.0000   9999     0     0     0    
2019/07/06  07:32:01  BASE  3.31044  118  3.96312  120  -6.0  100   -6.0  0     0     1006.6   NA       0.0000   9999     0     0     0    
2019/07/06  07:33:01  BASE  3.09876  114  3.96312  120  -5.9  100   -5.9  0     0     1006.6   NA       0.0000   9999     0     0     0    
2019/07/06  07:34:01  BASE  2.84592  111  3.96312  120  -5.7  100   -5.7  0     0     1006.6   NA       0.0000   9999     0     0     0    
2019/07/06  07:35:02  BASE  2.63424  109  3.96312  120  -5.6  100   -5.6  0     0     1006.6   NA       0.0000   9999     0     0     0    
2019/07/06  07:36:01  BASE  2.48724  107  3.96312  120  -5.4  100   -5.4  0     0     1006.6   NA       0.0000   9999     0     0     0    
2019/07/06  07:37:00  BASE  2.36376  106  3.96312  120  -5.3  100   -5.3  0     0     1006.6   NA       0.0000   9999     0     0     0    
2019/07/06  07:38:00  BASE  2.16384  107  3.96312  120  -5.3  100   -5.3  0     0     1006.6   NA       0.0000   9999     0     0     0    
2019/07/06  07:39:01  BASE  1.90512  109  3.90432  124  -5.3  100   -5.3  0     0     1006.6   NA       0.0000   9999     0     0     0    
2019/07/06  07:40:01  BASE  1.74636  99   3.69264  123  -5.4  100   -5.4  0     0     1006.6   NA       0.0000   9999     0     0     0    
2019/07/06  07:41:01  BASE  1.45236  75   3.56916  116  -5.5  100   -5.5  0     0     1006.6   NA       0.0000   9999     0     0     0    
2019/07/06  07:42:01  BASE  1.35828  55   3.35748  119  -5.6  100   -5.6  0     0     1006.6   NA       0.0000   9999     0     0     0    
2019/07/06  07:43:01  BASE  1.49352  47   3.087    112  -5.6  100   -5.6  0     0     1006.6   NA       0.0000   9999     0     0     0    
2019/07/06  07:44:01  BASE  1.51116  44   2.69304  107  -5.5  100   -5.6  0     0     1006.6   NA       0.0000   9999     0     0     0    
2019/07/06  07:45:02  BASE  1.44648  38   2.69304  107  -5.4  100   -5.5  0     0     1006.6   NA       0.0000   9999     0     0     0    
2019/07/06  07:46:02  BASE  1.38768  24   2.54016  103  -5.4  99    -5.5  0     0     1006.6   NA       0.0000   9999     0     0     0    
2019/07/06  07:47:02  BASE  1.49352  10   2.29908  109  -5.4  99    -5.5  0     0     1006.6   NA       0.0000   9999     0     0     0    
2019/07/06  07:48:01  BASE  1.59348  3    2.0286   114  -5.4  99    -5.5  0     0     1006.6   NA       0.0000   9999     0     0     0    
2019/07/06  07:49:01  BASE  1.64052  351  1.96392  71   -5.4  99    -5.5  0     0     1006.6   NA       0.0000   9999     0     0     0    
2019/07/06  07:50:01  BASE  1.42884  347  1.93452  338  -5.4  99    -5.5  0     0     1006.5   NA       0.0000   9999     0     0     0    
2019/07/06  07:51:00  BASE  1.30536  348  1.93452  338  -5.4  99    -5.5  0     0     1006.5   NA       0.0000   9999     0     0     0    
2019/07/06  07:52:01  BASE  1.37592  350  1.93452  338  -5.4  100   -5.5  0     0     1006.5   NA       0.0000   9999     0     0     0    
2019/07/06  07:53:01  BASE  1.4112   348  1.93452  338  -5.5  100   -5.5  0     0     1006.5   NA       0.0000   9999     0     0     0    
2019/07/06  07:54:01  BASE  1.59348  346  1.93452  338  -5.5  100   -5.5  0     0     1006.5   NA       0.0000   9999     0     0     0    
2019/07/06  07:55:00  BASE  1.7346   345  1.93452  338  -5.6  100   -5.6  0     0     1006.5   NA       0.0000   9999     0     0     0    
2019/07/06  07:56:01  BASE  1.8816   345  2.0874   347  -5.6  100   -5.6  0     0     1006.5   NA       0.0000   9999     0     0     0    
2019/07/06  07:57:01  BASE  2.06976  348  2.21088  353  -5.7  100   -5.7  0     0     1006.6   NA       0.0000   9999     0     0     0    
2019/07/06  07:58:00  BASE  2.18736  350  2.42256  354  -5.7  100   -5.7  0     0     1006.6   NA       0.0000   9999     0     0     0    
2019/07/06  07:59:01  BASE  2.28732  356  2.48136  3    -5.7  100   -5.7  0     0     1006.5   NA       0.0000   9999     0     0     0    
2019/07/06  08:00:01  BASE  2.29908  7    2.56956  25   -5.7  100   -5.7  0     0     1006.5   NA       0.0000   9999     0     0     0    
2019/07/06  08:01:01  BASE  2.37552  14   2.78124  12   -5.8  100   -5.8  0     0     1006.5   NA       0.0000   9999     0     0     0    
2019/07/06  08:02:00  BASE  2.59308  21   2.87532  26   -5.8  100   -5.8  0     0     1006.5   NA       0.0000   9999     0     0     0    
2019/07/06  08:03:01  BASE  2.4402   26   2.87532  26   -5.9  100   -5.9  0     0     1006.5   NA       0.0000   9999     0     0     0    
2019/07/06  08:04:01  BASE  2.22264  26   2.87532  26   -6.0  100   -6.0  0     0     1006.5   NA       0.0000   9999     0     0     0    
2019/07/06  08:05:01  BASE  2.43432  27   2.96352  26   -6.0  100   -6.0  0     0     1006.5   NA       0.0000   9999     0     0     0    
2019/07/06  08:06:01  BASE  2.68716  27   2.99292  29   -6.0  100   -6.0  0     0     1006.5   NA       0.0000   9999     0     0     0    
2019/07/06  08:07:01  BASE  2.83416  33   3.29868  43   -5.9  100   -5.9  0     0     1006.5   NA       0.0000   9999     0     0     0    
2019/07/06  08:08:01  BASE  2.77536  37   3.29868  43   -5.9  100   -5.9  0     0     1006.5   NA       0.0000   9999     0     0     0    
2019/07/06  08:09:01  BASE  2.72832  41   3.29868  43   -5.9  100   -5.9  0     0     1006.5   NA       0.0000   9999     0     0     0    
2019/07/06  08:10:01  BASE  2.50488  45   3.29868  43   -6.0  100   -6.0  0     0     1006.5   NA       0.0000   9999     0     0     0    
2019/07/06  08:11:01  BASE  2.06388  50   3.29868  43   -6.0  100   -6.0  0     0     1006.5   NA       0.0000   9999     0     0     0    
2019/07/06  08:12:00  BASE  1.89336  55   3.29868  43   -6.0  100   -6.0  0     0     1006.5   NA       0.0000   9999     0     0     0    
2019/07/06  08:13:01  BASE  1.87572  61   3.29868  43   -6.0  100   -6.0  0     0     1006.5   NA       0.0000   9999     0     0     0    
2019/07/06  08:14:36  BASE  1.77576  67   3.29868  43   -5.9  100   -5.9  0     0     1006.5   NA       0.0000   9999     0     0     0    
2019/07/06  08:15:02  BASE  1.65816  66   3.29868  43   -5.8  100   -5.8  0     0     M        NA       0.0000   9999     0     0     0    
2019/07/06  08:16:01  BASE  1.7052   60   3.29868  43   -5.8  100   -5.8  0     0     1006.6   NA       0.0000   9999     0     0     0    
2019/07/06  08:17:01  BASE  1.8522   57   2.96352  40   -5.8  100   -5.8  0     0     1006.6   NA       0.0000   9999     0     0     0    
2019/07/06  08:18:01  BASE  1.82868  56   2.90472  45   -5.8  100   -5.8  0     0     1006.6   NA       0.0000   9999     0     0     0    
2019/07/06  08:19:01  BASE  1.68756  61   2.81064  44   -5.8  100   -5.8  0     0     1006.5   NA       0.0000   9999     0     0     0    
2019/07/06  08:20:02  BASE  1.60524  67   2.1462   55   -5.8  100   -5.8  0     0     1006.5   NA       0.0000   9999     0     0     0    
2019/07/06  08:21:01  BASE  1.32888  70   2.1462   55   -5.7  100   -5.8  0     0     1006.5   NA       0.0000   9999     0     0     0    
2019/07/06  08:22:00  BASE  1.13484  71   2.0874   56   -5.7  100   -5.8  0     0     1006.5   NA       0.0000   9999     0     0     0    
2019/07/06  08:23:01  BASE  1.19952  67   2.0874   56   -5.7  99    -5.8  0     0     1006.5   NA       0.0000   9999     0     0     0    
2019/07/06  08:24:01  BASE  1.34064  69   2.0874   56   -5.7  99    -5.9  0     0     1006.6   NA       0.0000   9999     0     0     0    
2019/07/06  08:25:01  BASE  1.35828  65   2.0874   56   -5.7  98    -5.9  0     0     1006.6   NA       0.0000   9999     0     0     0    
2019/07/06  08:26:01  BASE  1.24656  60   2.0874   56   -5.7  98    -5.9  0     0     1006.6   NA       0.0000   9999     0     0     0    
2019/07/06  08:27:01  BASE  1.34064  61   1.87572  71   -5.6  98    -5.9  0     0     1006.6   NA       0.0000   9999     0     0     0    
2019/07/06  08:28:01  BASE  1.51116  57   1.87572  71   -5.6  98    -5.9  0     0     1006.6   NA       0.0000   9999     0     0     0    
2019/07/06  08:29:01  BASE  1.4406   53   1.69344  74   -5.5  97    -5.9  0     0     1006.6   NA       0.0000   9999     0     0     0    
2019/07/06  08:30:02  BASE  1.28184  48   1.66404  56   -5.5  97    -5.9  0     0     1006.6   NA       0.0000   9999     0     0     0    
2019/07/06  08:31:01  BASE  1.24656  50   1.66404  56   -5.5  96    -6.0  0     0     1006.6   NA       0.0000   9999     0     0     0    
2019/07/06  08:32:01  BASE  1.24656  53   1.66404  56   -5.5  96    -6.1  0     0     1006.6   NA       0.0000   9999     0     0     0    
2019/07/06  08:33:01  BASE  1.21128  54   1.66404  56   -5.5  95    -6.1  0     0     1006.6   NA       0.0000   9999     0     0     0    
2019/07/06  08:34:01  BASE  1.11132  53   1.66404  56   -5.5  95    -6.1  0     0     1006.6   NA       0.0000   9999     0     0     0    
2019/07/06  08:35:02  BASE  1.14072  55   1.66404  56   -5.4  95    -6.1  0     0     1006.6   NA       0.0000   9999     0     0     0    
2019/07/06  08:36:01  BASE  1.22304  60   1.66404  56   -5.4  94    -6.2  0     0     1006.6   NA       0.0000   9999     0     0     0    
2019/07/06  08:37:01  BASE  1.2348   64   1.66404  56   -5.4  94    -6.2  0     0     1006.6   NA       0.0000   9999     0     0     0    
2019/07/06  08:38:01  BASE  1.2054   64   1.42296  53   -5.3  94    -6.2  0     0     1006.7   NA       0.0000   9999     0     0     0    
2019/07/06  08:39:01  BASE  1.2054   62   1.39356  59   -5.3  94    -6.2  0     0     1006.7   NA       0.0000   9999     0     0     0    
2019/07/06  08:40:00  BASE  1.30536  60   1.45236  60   -5.3  93    -6.2  0     0     1006.7   NA       0.0000   9999     0     0     0    
2019/07/06  08:41:01  BASE  1.31712  56   1.45236  56   -5.3  93    -6.3  0     0     1006.7   NA       0.0000   9999     0     0     0    
2019/07/06  08:42:00  BASE  1.35828  52   1.54056  54   -5.3  93    -6.3  0     0     1006.7   NA       0.0000   9999     0     0     0    
2019/07/06  08:43:01  BASE  1.41708  50   1.54056  49   -5.3  92    -6.3  0     0     1006.7   NA       0.0000   9999     0     0     0    
2019/07/06  08:44:00  BASE  1.33476  54   1.54056  49   -5.3  92    -6.4  0     0     1006.7   NA       0.0000   9999     0     0     0    
2019/07/06  08:45:01  BASE  1.21716  60   1.54056  49   -5.3  92    -6.4  0     0     1006.7   NA       0.0000   9999     0     0     0    
2019/07/06  08:46:01  BASE  1.1466   65   1.54056  49   -5.3  92    -6.4  0     0     1006.7   NA       0.0000   9999     0     0     0    
2019/07/06  08:47:01  BASE  1.12308  72   1.54056  49   -5.3  92    -6.4  0     0     1006.7   NA       0.0000   9999     0     0     0    
2019/07/06  08:48:01  BASE  1.21128  77   1.54056  49   -5.3  91    -6.5  0     0     1006.7   NA       0.0000   9999     0     0     0    
2019/07/06  08:49:01  BASE  1.3818   77   1.54056  78   -5.3  91    -6.5  0     0     1006.7   NA       0.0000   9999     0     0     0    
2019/07/06  08:50:02  BASE  1.42296  81   1.54056  78   -5.3  91    -6.5  0     0     1006.7   NA       0.0000   9999     0     0     0    
2019/07/06  08:51:01  BASE  1.40532  87   1.54056  78   -5.2  91    -6.5  0     0     1006.7   NA       0.0000   9999     0     0     0    
2019/07/06  08:52:02  BASE  1.48176  91   1.63464  92   -5.2  91    -6.5  0     0     1006.7   NA       0.0000   9999     0     0     0    
2019/07/06  08:53:00  BASE  1.56408  91   1.63464  93   -5.2  91    -6.5  0     0     1006.7   NA       0.0000   9999     0     0     0    
2019/07/06  08:54:02  BASE  1.54056  92   1.63464  93   -5.2  90    -6.5  0     0     1006.7   NA       0.0000   9999     0     0     0    
2019/07/06  08:55:03  BASE  1.37004  94   1.63464  93   -5.1  90    -6.5  0     0     1006.7   NA       0.0000   9999     0     0     0    
2019/07/06  08:56:02  BASE  0.98196  102  1.63464  93   -5.1  90    -6.4  0     0     1006.7   NA       0.0000   9999     0     0     0    
2019/07/06  08:57:02  BASE  0.38808  111  1.63464  93   -5.0  90    -6.4  0     0     1006.7   NA       0.0000   9999     0     0     0    
2019/07/06  08:58:02  BASE  0.0294   114  1.63464  93   -4.9  90    -6.3  0     0     1006.7   NA       0.0000   9999     0     0     0    
2019/07/06  08:59:01  BASE  0        115  1.63464  93   -4.8  90    -6.2  0     0     1006.6   NA       0.0000   9999     0     0     0    
2019/07/06  09:00:01  BASE  0        115  1.63464  93   -4.7  90    -6.1  0     0     1006.6   NA       0.0000   9999     0     0     0    
2019/07/06  09:01:00  BASE  0        115  1.63464  93   -4.6  90    -6.1  0     0     1006.6   NA       0.0000   9999     0     0     0    
2019/07/06  09:02:00  BASE  0        115  1.63464  93   -4.6  90    -6.0  0     0     1006.7   NA       0.0000   9999     0     0     0    
2019/07/06  09:03:01  BASE  0        115  1.54056  92   -4.5  89    -6.0  0     0     1006.7   NA       0.0000   9999     0     0     0    
2019/07/06  09:04:01  BASE  0        115  1.39356  93   -4.5  89    -6.0  0     0     1006.7   NA       0.0000   9999     0     0     0    
2019/07/06  09:05:01  BASE  0        115  0.87612  100  -4.6  89    -6.1  0     0     1006.7   NA       0.0000   9999     0     0     0    
2019/07/06  09:06:01  BASE  0        115  0.66444  113  -4.6  89    -6.2  0     0     1006.7   NA       0.0000   9999     0     0     0    
2019/07/06  09:07:01  BASE  0        97   0        M    -4.7  88    -6.4  0     0     1006.7   NA       0.0000   9999     0     0     0    
2019/07/06  09:08:00  BASE  0.12348  44   0.75852  18   -4.8  88    -6.5  0     0     1006.7   NA       0.0000   9999     0     0     0    
2019/07/06  09:09:01  BASE  0.80556  25   1.54056  26   -5.0  88    -6.6  0     0     1006.7   NA       0.0000   9999     0     0     0    
2019/07/06  09:10:00  BASE  1.51116  27   1.75224  28   -5.1  88    -6.7  0     0     1006.7   NA       0.0000   9999     0     0     0    
2019/07/06  09:11:01  BASE  1.66404  34   1.75224  40   -5.2  88    -6.8  0     0     1006.7   NA       0.0000   9999     0     0     0    
2019/07/06  09:12:01  BASE  1.77576  40   2.1462   35   -5.3  88    -7.0  0     0     1006.7   NA       0.0000   9999     0     0     0    
2019/07/06  09:13:01  BASE  1.98156  39   2.21088  42   -5.4  88    -7.1  0     0     1006.7   NA       0.0000   9999     0     0     0    
2019/07/06  09:14:01  BASE  1.96392  35   2.21088  42   -5.5  88    -7.1  0     0     1006.7   NA       0.0000   9999     0     0     0    
2019/07/06  09:15:01  BASE  1.79928  31   2.21088  42   -5.5  88    -7.1  0     0     1006.7   NA       0.0000   9999     0     0     0    
2019/07/06  09:16:01  BASE  1.71696  30   2.21088  42   -5.6  89    -7.2  0     0     1006.8   NA       0.0000   9999     0     0     0    
2019/07/06  09:17:02  BASE  1.68756  30   2.21088  42   -5.6  89    -7.1  0     0     1006.7   NA       0.0000   9999     0     0     0    
2019/07/06  09:18:02  BASE  1.7346   30   2.21088  42   -5.6  89    -7.0  0     0     1006.7   NA       0.0000   9999     0     0     0    
2019/07/06  09:19:02  BASE  1.75224  33   2.21088  42   -5.6  90    -7.0  0     0     1006.7   NA       0.0000   9999     0     0     0    
2019/07/06  09:20:02  BASE  1.5582   32   2.21088  42   -5.6  90    -7.0  0     0     1006.7   NA       0.0000   9999     0     0     0    
2019/07/06  09:21:02  BASE  1.34064  26   2.21088  42   -5.6  90    -7.0  0     0     1006.6   NA       0.0000   9999     0     0     0    
2019/07/06  09:22:01  BASE  1.27008  26   2.21088  42   -5.7  91    -6.9  0     0     1006.6   NA       0.0000   9999     0     0     0    
2019/07/06  09:23:01  BASE  1.19364  25   1.9992   32   -5.6  91    -6.9  0     0     1006.6   NA       0.0000   9999     0     0     0    
2019/07/06  09:24:02  BASE  1.176    31   1.96392  30   -5.6  91    -6.8  0     0     1006.6   NA       0.0000   9999     0     0     0    
2019/07/06  09:25:02  BASE  1.2642   42   1.96392  30   -5.6  91    -6.8  0     0     1006.6   NA       0.0000   9999     0     0     0    
2019/07/06  09:26:02  BASE  1.42296  47   1.96392  30   -5.5  91    -6.7  0     0     1006.6   NA       0.0000   9999     0     0     0    
2019/07/06  09:27:02  BASE  1.58172  43   1.96392  30   -5.5  91    -6.7  0     0     1006.6   NA       0.0000   9999     0     0     0    
2019/07/06  09:28:01  BASE  1.68168  36   1.84632  41   -5.5  91    -6.7  0     0     1006.6   NA       0.0000   9999     0     0     0    
2019/07/06  09:29:02  BASE  1.76988  32   1.87572  31   -5.5  91    -6.7  0     0     1006.6   NA       0.0000   9999     0     0     0    
2019/07/06  09:30:02  BASE  1.77576  30   1.90512  26   -5.5  91    -6.7  0     0     1006.6   NA       0.0000   9999     0     0     0    
2019/07/06  09:31:02  BASE  1.7934   30   1.96392  26   -5.5  91    -6.7  0     0     1006.6   NA       0.0000   9999     0     0     0    
2019/07/06  09:32:02  BASE  1.78164  30   1.96392  26   -5.5  91    -6.7  0     0     1006.6   NA       0.0000   9999     0     0     0    
2019/07/06  09:33:03  BASE  1.66992  32   1.96392  26   -5.5  91    -6.8  0     0     1006.6   NA       0.0000   9999     0     0     0    
2019/07/06  09:34:02  BASE  1.58172  39   1.96392  26   -5.5  90    -6.8  0     0     1006.6   NA       0.0000   9999     0     0     0    
2019/07/06  09:35:03  BASE  1.54056  46   1.96392  26   -5.5  90    -6.9  0     0     1006.5   NA       0.0000   9999     0     0     0    
2019/07/06  09:36:02  BASE  1.45824  49   1.96392  26   -5.6  90    -6.9  0     0     1006.5   NA       0.0000   9999     0     0     0    
2019/07/06  09:37:02  BASE  1.42296  50   1.96392  26   -5.6  90    -6.9  0     0     1006.5   NA       0.0000   9999     0     0     0    
2019/07/06  09:38:02  BASE  1.53468  50   1.96392  26   -5.5  91    -6.8  0     0     1006.5   NA       0.0000   9999     0     0     0    
2019/07/06  09:39:02  BASE  1.68756  48   1.96392  26   -5.5  91    -6.8  0     0     1006.5   NA       0.0000   9999     0     0     0    
2019/07/06  09:40:02  BASE  1.69344  46   1.96392  26   -5.5  91    -6.8  0     0     1006.5   NA       0.0000   9999     0     0     0    
2019/07/06  09:41:02  BASE  1.62876  44   1.81692  46   -5.6  91    -6.8  0     0     1006.4   NA       0.0000   9999     0     0     0    
2019/07/06  09:42:02  BASE  1.5582   46   1.81692  46   -5.6  91    -6.8  0     0     1006.4   NA       0.0000   9999     0     0     0    
2019/07/06  09:43:02  BASE  1.49352  50   1.81692  46   -5.6  91    -6.9  0     0     1006.4   NA       0.0000   9999     0     0     0    
2019/07/06  09:44:02  BASE  1.72284  47   2.1462   47   -5.6  91    -6.9  0     0     1006.4   NA       0.0000   9999     0     0     0    
2019/07/06  09:45:02  BASE  1.94628  44   2.1462   47   -5.7  91    -6.9  0     0     1006.4   NA       0.0000   9999     0     0     0    
2019/07/06  09:46:02  BASE  1.97568  41   2.21088  40   -5.7  91    -6.9  0     0     1006.4   NA       0.0000   9999     0     0     0    
2019/07/06  09:47:02  BASE  2.01096  38   2.21088  40   -5.7  91    -6.9  0     0     1006.4   NA       0.0000   9999     0     0     0    
2019/07/06  09:48:02  BASE  2.02272  34   2.21088  40   -5.7  91    -6.9  0     0     1006.4   NA       0.0000   9999     0     0     0    
2019/07/06  09:49:02  BASE  1.92864  29   2.21088  40   -5.7  91    -6.9  0     0     1006.4   NA       0.0000   9999     0     0     0    
2019/07/06  09:50:04  BASE  1.72284  30   2.21088  40   -5.7  91    -6.9  0     0     1006.4   NA       0.0000   9999     0     0     0    
2019/07/06  09:51:01  BASE  1.55232  35   2.21088  40   -5.7  91    -6.9  0     0     1006.4   NA       0.0000   9999     0     0     0    
2019/07/06  09:52:01  BASE  1.42296  38   2.21088  40   -5.6  91    -6.9  0     0     1006.3   NA       0.0000   9999     0     0     0    
2019/07/06  09:53:02  BASE  1.43472  41   2.21088  40   -5.6  91    -6.9  0     0     1006.3   NA       0.0000   9999     0     0     0    
2019/07/06  09:54:02  BASE  1.5288   45   2.21088  40   -5.6  91    -6.9  0     0     1006.3   NA       0.0000   9999     0     0     0    
2019/07/06  09:55:02  BASE  1.61112  47   2.21088  40   -5.7  91    -6.9  0     0     1006.3   NA       0.0000   9999     0     0     0    
2019/07/06  09:56:02  BASE  1.69344  48   2.1756   36   -5.7  91    -6.9  0     0     1006.3   NA       0.0000   9999     0     0     0    
2019/07/06  09:57:02  BASE  1.63464  50   2.1462   27   -5.7  91    -6.9  0     0     1006.3   NA       0.0000   9999     0     0     0    
2019/07/06  09:58:02  BASE  1.6758   53   1.96392  28   -5.6  91    -6.9  0     0     1006.3   NA       0.0000   9999     0     0     0    
2019/07/06  09:59:02  BASE  1.7346   58   1.93452  52   -5.6  91    -6.9  0     0     1006.2   NA       0.0000   9999     0     0     0    
2019/07/06  10:00:02  BASE  1.65816  64   1.93452  52   -5.6  91    -6.8  0     0     1006.1   NA       0.0000   9999     0     0     0    
2019/07/06  10:01:02  BASE  1.69344  67   1.93452  52   -5.6  91    -6.8  0     0     1006.1   NA       0.0000   9999     0     0     0    
2019/07/06  10:02:02  BASE  1.72284  69   1.93452  52   -5.6  91    -6.8  0     0     1006.1   NA       0.0000   9999     0     0     0    
2019/07/06  10:03:02  BASE  1.59348  76   1.93452  52   -5.5  91    -6.8  0     0     1006.1   NA       0.0000   9999     0     0     0    
2019/07/06  10:04:02  BASE  1.323    80   1.93452  52   -5.5  90    -6.8  0     0     1006.1   NA       0.0000   9999     0     0     0    
2019/07/06  10:05:02  BASE  1.17012  79   1.93452  52   -5.4  90    -6.8  0     0     1006.1   NA       0.0000   9999     0     0     0    
2019/07/06  10:06:02  BASE  1.00548  78   1.93452  52   -5.4  90    -6.8  0     0     1006.1   NA       0.0000   9999     0     0     0    
2019/07/06  10:07:02  BASE  0.85848  87   1.93452  52   -5.3  90    -6.7  0     0     1006.1   NA       0.0000   9999     0     0     0    
2019/07/06  10:08:02  BASE  0.52332  98   1.90512  68   -5.3  90    -6.7  0     0     1006.1   NA       0.0000   9999     0     0     0    
2019/07/06  10:09:02  BASE  0.147    112  1.90512  68   -5.2  90    -6.6  0     0     1006.1   NA       0.0000   9999     0     0     0    
2019/07/06  10:10:02  BASE  0.2352   121  1.90512  68   -5.1  90    -6.5  0     0     1006.1   NA       0.0000   9999     0     0     0    
2019/07/06  10:11:02  BASE  0.18228  120  1.78752  71   -5.0  90    -6.4  0     0     1006.1   NA       0.0000   9999     0     0     0    
2019/07/06  10:12:02  BASE  0        121  1.57584  83   -5.0  90    -6.4  0     0     1006.1   NA       0.0000   9999     0     0     0    
2019/07/06  10:13:01  BASE  0        98   1.32888  80   -5.0  89    -6.5  0     0     1006.1   NA       0.0000   9999     0     0     0    
2019/07/06  10:14:02  BASE  0        76   1.24068  75   -5.1  89    -6.6  0     0     1006.1   NA       0.0000   9999     0     0     0    
2019/07/06  10:15:02  BASE  0        77   1.0878   76   -5.1  89    -6.7  0     0     1006.0   NA       0.0000   9999     0     0     0    
2019/07/06  10:16:02  BASE  0        77   0.9996   105  -5.2  89    -6.7  0     0     1005.9   NA       0.0000   9999     0     0     0    
2019/07/06  10:17:02  BASE  0        94   0.81732  123  -5.2  89    -6.7  0     0     1005.9   NA       0.0000   9999     0     0     0    
2019/07/06  10:18:01  BASE  0.05292  129  0.81732  123  -5.2  89    -6.7  0     0     1005.9   NA       0.0000   9999     0     0     0    
2019/07/06  10:19:02  BASE  0.36456  139  0.81732  138  -5.2  89    -6.7  0     0     1005.9   NA       0.0000   9999     0     0     0    
2019/07/06  10:20:02  BASE  0.68796  133  0.84672  134  -5.2  89    -6.7  0     0     1005.9   NA       0.0000   9999     0     0     0    
2019/07/06  10:21:02  BASE  0.80556  132  1.029    137  -5.2  89    -6.7  0     0     1005.9   NA       0.0000   9999     0     0     0    
2019/07/06  10:22:02  BASE  0.92316  132  1.1172   134  -5.2  89    -6.7  0     0     1005.9   NA       0.0000   9999     0     0     0    
2019/07/06  10:23:02  BASE  1.01136  134  1.1466   136  -5.2  90    -6.6  0     0     1005.9   NA       0.0000   9999     0     0     0    
2019/07/06  10:24:02  BASE  1.11132  137  1.32888  141  -5.3  90    -6.6  0     0     1005.9   NA       0.0000   9999     0     0     0    
2019/07/06  10:25:01  BASE  1.34652  137  1.60524  143  -5.3  91    -6.6  0     0     1005.9   NA       0.0000   9999     0     0     0    
2019/07/06  10:26:02  BASE  1.68756  137  2.0286   138  -5.4  91    -6.6  0     0     1005.9   NA       0.0000   9999     0     0     0    
2019/07/06  10:27:02  BASE  1.86396  135  2.0286   138  -5.5  92    -6.6  0     0     1005.9   NA       0.0000   9999     0     0     0    
2019/07/06  10:28:02  BASE  1.81692  131  2.0286   129  -5.5  92    -6.6  0     0     1005.9   NA       0.0000   9999     0     0     0    
2019/07/06  10:29:02  BASE  1.75812  128  2.0286   129  -5.6  93    -6.6  0     0     1005.9   NA       0.0000   9999     0     0     0    
2019/07/06  10:30:03  BASE  1.78164  122  2.0286   102  -5.6  93    -6.5  0     0     1005.9   NA       0.0000   9999     0     0     0    
2019/07/06  10:31:02  BASE  1.764    117  2.0874   111  -5.6  94    -6.4  0     0     1005.9   NA       0.0000   9999     0     0     0    
2019/07/06  10:32:02  BASE  1.72284  122  2.0874   137  -5.5  94    -6.3  0     0     1005.9   NA       0.0000   9999     0     0     0    
2019/07/06  10:33:02  BASE  1.75224  123  2.42256  127  -5.5  95    -6.2  0     0     1005.9   NA       0.0000   9999     0     0     0    
2019/07/06  10:34:02  BASE  1.87572  120  2.42256  127  -5.5  95    -6.1  0     0     1005.9   NA       0.0000   9999     0     0     0    
2019/07/06  10:35:04  BASE  1.7052   111  2.42256  127  -5.4  95    -6.0  0     0     1005.9   NA       0.0000   9999     0     0     0    
2019/07/06  10:36:02  BASE  1.33476  109  2.42256  127  -5.4  96    -6.0  0     0     1005.9   NA       0.0000   9999     0     0     0    
2019/07/06  10:37:02  BASE  1.42884  117  2.42256  127  -5.4  96    -6.0  0     0     1005.9   NA       0.0000   9999     0     0     0    
2019/07/06  10:38:01  BASE  1.80516  117  2.42256  127  -5.5  96    -6.0  0     0     1005.9   NA       0.0000   9999     0     0     0    
2019/07/06  10:39:02  BASE  1.95804  115  2.42256  127  -5.4  96    -5.9  0     0     1005.9   NA       0.0000   9999     0     0     0    
2019/07/06  10:40:02  BASE  1.80516  118  2.42256  127  -5.3  96    -5.8  0     0     1005.9   NA       0.0000   9999     0     0     0    
2019/07/06  10:41:02  BASE  1.62876  122  2.42256  127  -5.3  96    -5.8  0     0     1005.9   NA       0.0000   9999     0     0     0    
2019/07/06  10:42:02  BASE  1.5288   122  2.42256  127  -5.4  96    -5.9  0     0     1005.9   NA       0.0000   9999     0     0     0    
2019/07/06  10:43:01  BASE  1.39356  121  2.29908  118  -5.4  96    -5.8  0     0     1005.9   NA       0.0000   9999     0     0     0    
2019/07/06  10:44:02  BASE  1.12308  110  2.058    120  -5.4  96    -5.9  0     0     1005.9   NA       0.0000   9999     0     0     0    
2019/07/06  10:45:02  BASE  1.04664  113  2.058    120  -5.5  96    -6.0  0     0     1005.9   NA       0.0000   9999     0     0     0    
2019/07/06  10:46:02  BASE  1.04076  125  2.058    120  -5.4  96    -5.9  0     0     1005.9   NA       0.0000   9999     0     0     0    
2019/07/06  10:47:01  BASE  0.68796  128  2.058    120  -5.3  97    -5.8  0     0     1005.9   NA       0.0000   9999     0     0     0    
2019/07/06  10:48:01  BASE  0.44688  125  2.0286   103  -5.2  97    -5.7  0     0     1005.9   NA       0.0000   9999     0     0     0    
2019/07/06  10:49:02  BASE  0.63504  111  1.93452  125  -5.2  97    -5.6  0     0     1005.9   NA       0.0000   9999     0     0     0    
2019/07/06  10:50:03  BASE  1.07604  106  1.87572  122  -5.2  97    -5.6  0     0     1005.9   NA       0.0000   9999     0     0     0    
2019/07/06  10:51:02  BASE  1.11132  105  1.84632  110  -5.3  97    -5.8  0     0     1005.9   NA       0.0000   9999     0     0     0    
2019/07/06  10:52:02  BASE  1.05252  101  1.84632  110  -5.5  97    -5.9  0     0     1005.9   NA       0.0000   9999     0     0     0    
2019/07/06  10:53:02  BASE  1.21128  106  1.84632  110  -5.6  97    -6.0  0     0     1005.9   NA       0.0000   9999     0     0     0    
2019/07/06  10:54:02  BASE  1.08192  102  1.84632  110  -5.7  97    -6.1  0     0     1005.9   NA       0.0000   9999     0     0     0    
2019/07/06  10:55:01  BASE  1.19364  87   1.84632  110  -5.8  97    -6.2  0     0     1005.9   NA       0.0000   9999     0     0     0    
2019/07/06  10:56:02  BASE  1.37592  83   1.87572  111  -5.7  98    -6.0  0     0     1005.9   NA       0.0000   9999     0     0     0    
2019/07/06  10:57:02  BASE  1.05252  72   1.87572  111  -5.7  98    -6.0  0     0     1005.9   NA       0.0000   9999     0     0     0    
2019/07/06  10:58:02  BASE  0.882    44   1.87572  111  -5.6  98    -5.9  0     0     1005.9   NA       0.0000   9999     0     0     0    
2019/07/06  10:59:02  BASE  1.13484  29   1.87572  111  -5.6  98    -5.8  0     0     1005.9   NA       0.0000   9999     0     0     0    
2019/07/06  11:00:02  BASE  1.24068  45   1.87572  111  -5.6  98    -5.8  0     0     1005.9   NA       0.0000   9999     0     0     0    
2019/07/06  11:01:02  BASE  1.34652  54   1.87572  111  -5.6  98    -5.9  0     0     1005.9   NA       0.0000   9999     0     0     0    
2019/07/06  11:02:02  BASE  1.29948  41   1.87572  111  -5.6  98    -5.8  0     0     1005.9   NA       0.0000   9999     0     0     0    
2019/07/06  11:03:02  BASE  1.25244  35   1.87572  111  -5.7  98    -5.9  0     0     1005.9   NA       0.0000   9999     0     0     0    
2019/07/06  11:04:01  BASE  1.4112   35   1.87572  111  -5.8  98    -6.0  0     0     1005.9   NA       0.0000   9999     0     0     0    
2019/07/06  11:05:03  BASE  1.12308  43   1.87572  111  -5.9  98    -6.1  0     0     1005.8   NA       0.0000   9999     0     0     0    
2019/07/06  11:06:02  BASE  0.94668  53   1.78752  42   -5.9  98    -6.1  0     0     1005.8   NA       0.0000   9999     0     0     0    
2019/07/06  11:07:02  BASE  1.18776  49   1.81692  52   -5.9  98    -6.1  0     0     1005.8   NA       0.0000   9999     0     0     0    
2019/07/06  11:08:02  BASE  1.34064  41   1.84632  43   -5.9  98    -6.1  0     0     1005.8   NA       0.0000   9999     0     0     0    
2019/07/06  11:09:02  BASE  1.50528  36   2.1168   28   -5.9  99    -6.1  0     0     1005.8   NA       0.0000   9999     0     0     0    
2019/07/06  11:10:03  BASE  1.63464  34   2.1168   28   -5.8  99    -6.0  0     0     1005.8   NA       0.0000   9999     0     0     0    
2019/07/06  11:11:01  BASE  1.60524  43   2.1168   28   -5.8  99    -6.0  0     0     1005.8   NA       0.0000   9999     0     0     0    
2019/07/06  11:12:02  BASE  1.90512  59   2.56956  64   -5.8  99    -6.0  0     0     1005.8   NA       0.0000   9999     0     0     0    
2019/07/06  11:13:02  BASE  2.22264  64   2.56956  64   -5.8  99    -5.9  0     0     1005.8   NA       0.0000   9999     0     0     0    
2019/07/06  11:14:02  BASE  2.21676  62   2.56956  64   -5.7  99    -5.8  0     0     1005.8   NA       0.0000   9999     0     0     0    
2019/07/06  11:15:02  BASE  2.00508  57   2.56956  64   -5.6  99    -5.7  0     0     1005.8   NA       0.0000   9999     0     0     0    
2019/07/06  11:16:02  BASE  1.75224  50   2.56956  64   -5.5  99    -5.6  0     0     1005.8   NA       0.0000   9999     0     0     0    
2019/07/06  11:17:02  BASE  1.66992  46   2.56956  64   -5.3  99    -5.5  0     0     1005.8   NA       0.0000   9999     0     0     0    
2019/07/06  11:18:02  BASE  1.59348  41   2.56956  64   -5.2  98    -5.4  0     0     1005.8   NA       0.0000   9999     0     0     0    
2019/07/06  11:19:02  BASE  1.51704  32   2.56956  64   -5.1  98    -5.4  0     0     1005.8   NA       0.0000   9999     0     0     0    
2019/07/06  11:20:02  BASE  1.34064  29   2.56956  64   -5.1  98    -5.4  0     0     1005.8   NA       0.0000   9999     0     0     0    
2019/07/06  11:21:02  BASE  1.21128  34   2.56956  64   -5.1  97    -5.5  0     0     1005.8   NA       0.0000   9999     0     0     0    
2019/07/06  11:22:02  BASE  1.22892  39   2.54016  60   -5.1  97    -5.6  0     0     1005.8   NA       0.0000   9999     0     0     0    
2019/07/06  11:23:02  BASE  1.19952  41   2.35788  64   -5.2  96    -5.6  0     0     1005.9   NA       0.0000   9999     0     0     0    
2019/07/06  11:24:02  BASE  1.27008  32   1.90512  57   -5.2  96    -5.7  0     0     1005.9   NA       0.0000   9999     0     0     0    
2019/07/06  11:25:02  BASE  1.43472  19   1.84632  50   -5.2  96    -5.7  0     0     1005.9   NA       0.0000   9999     0     0     0    
2019/07/06  11:26:05  BASE  1.4406   13   1.69344  32   -5.2  96    -5.7  0     0     1005.9   NA       0.0000   9999     0     0     0    
2019/07/06  11:27:02  BASE  1.39944  6    1.69344  32   -5.2  95    -5.8  0     0     1005.9   NA       0.0000   9999     0     0     0    
2019/07/06  11:28:01  BASE  1.4112   354  1.69344  32   -5.2  95    -5.8  0     0     1005.9   NA       0.0000   9999     0     0     0    
2019/07/06  11:29:02  BASE  1.4112   345  1.54056  11   -5.2  95    -5.9  0     0     1005.9   NA       0.0000   9999     0     0     0    
2019/07/06  11:30:01  BASE  1.42296  341  1.54056  11   -5.2  95    -5.9  0     0     1005.9   NA       0.0000   9999     0     0     0    
2019/07/06  11:31:02  BASE  1.58172  341  1.87572  343  -5.2  95    -5.8  0     0     1005.9   NA       0.0000   9999     0     0     0    
2019/07/06  11:32:01  BASE  1.8522   339  2.29908  337  -5.2  95    -5.8  0     0     1005.9   NA       0.0000   9999     0     0     0    
2019/07/06  11:33:02  BASE  1.92276  334  2.29908  337  -5.2  95    -5.9  0     0     1005.9   NA       0.0000   9999     0     0     0    
2019/07/06  11:34:02  BASE  1.9992   331  2.29908  337  -5.2  95    -6.0  0     0     1005.9   NA       0.0000   9999     0     0     0    
2019/07/06  11:35:03  BASE  2.21088  332  2.42256  339  -5.3  94    -6.1  0     0     1005.8   NA       0.0000   9999     0     0     0    
2019/07/06  11:36:01  BASE  2.47548  334  2.75184  332  -5.5  94    -6.2  0     0     1005.8   NA       0.0000   9999     0     0     0    
2019/07/06  11:37:02  BASE  2.80476  333  3.1458   329  -5.6  94    -6.3  0     0     1005.8   NA       0.0000   9999     0     0     0    
2019/07/06  11:38:01  BASE  2.82828  333  3.1458   329  -5.7  95    -6.4  0     0     1005.8   NA       0.0000   9999     0     0     0    
2019/07/06  11:39:02  BASE  2.66952  337  3.1458   329  -5.7  95    -6.4  0     0     1005.9   NA       0.0000   9999     0     0     0    
2019/07/06  11:40:01  BASE  2.66952  337  3.1458   329  -5.8  95    -6.4  0     0     1005.9   NA       0.0000   9999     0     0     0    
2019/07/06  11:41:02  BASE  2.74596  335  3.1458   329  -5.8  95    -6.5  0     0     1005.9   NA       0.0000   9999     0     0     0    
2019/07/06  11:42:01  BASE  2.7636   335  3.1458   329  -5.9  96    -6.5  0     0     1005.9   NA       0.0000   9999     0     0     0    
2019/07/06  11:43:01  BASE  2.9106   336  3.26928  341  -5.9  96    -6.5  0     0     1005.9   NA       0.0000   9999     0     0     0    
2019/07/06  11:44:01  BASE  3.0576   340  3.26928  341  -6.0  96    -6.6  0     0     1005.9   NA       0.0000   9999     0     0     0    
2019/07/06  11:45:03  BASE  3.13404  343  3.32808  343  -6.0  96    -6.6  0     0     1005.9   NA       0.0000   9999     0     0     0    
2019/07/06  11:46:02  BASE  3.13404  343  3.32808  343  -6.1  96    -6.6  0     0     1005.9   NA       0.0000   9999     0     0     0    
2019/07/06  11:47:02  BASE  3.2634   341  3.62796  341  -6.1  96    -6.6  0     0     1005.9   NA       0.0000   9999     0     0     0    
2019/07/06  11:48:01  BASE  3.69852  339  4.08072  338  -6.1  96    -6.6  0     0     1005.9   NA       0.0000   9999     0     0     0    
2019/07/06  11:49:01  BASE  4.02192  340  4.32768  343  -6.1  96    -6.7  0     0     1005.9   NA       0.0000   9999     0     0     0    
2019/07/06  11:50:02  BASE  4.15716  343  4.32768  343  -6.1  96    -6.7  0     0     1005.9   NA       0.0000   9999     0     0     0    
2019/07/06  11:51:02  BASE  4.19244  346  4.32768  343  -6.1  96    -6.6  0     0     1005.9   NA       0.0000   9999     0     0     0    
2019/07/06  11:52:02  BASE  4.1748   347  4.32768  343  -6.1  96    -6.6  0     0     1005.9   NA       0.0000   9999     0     0     0    
2019/07/06  11:53:01  BASE  4.1454   347  4.32768  343  -6.1  97    -6.5  0     0     1005.9   NA       0.0000   9999     0     0     0    
2019/07/06  11:54:02  BASE  4.1454   347  4.41588  348  -6.0  97    -6.4  0     0     1005.9   NA       0.0000   9999     0     0     0    
2019/07/06  11:55:01  BASE  3.96312  348  4.41588  348  -5.9  97    -6.3  0     0     1005.9   NA       0.0000   9999     0     0     0    
2019/07/06  11:56:02  BASE  3.95724  344  4.53936  352  -5.8  97    -6.2  0     0     1005.9   NA       0.0000   9999     0     0     0    
2019/07/06  11:57:02  BASE  4.11012  345  4.53936  352  -5.7  97    -6.1  0     0     1005.9   NA       0.0000   9999     0     0     0    
2019/07/06  11:58:02  BASE  3.91608  350  4.53936  352  -5.6  97    -6.0  0     0     1005.9   NA       0.0000   9999     0     0     0    
2019/07/06  11:59:02  BASE  3.62796  346  4.53936  352  -5.5  97    -6.0  0     0     1005.9   NA       0.0000   9999     0     0     0    
2019/07/06  12:00:02  BASE  3.36924  342  4.53936  352  -5.5  96    -6.1  0     0     1005.9   NA       0.0000   9999     0     0     0    
2019/07/06  12:01:02  BASE  3.49272  338  4.53936  352  -5.6  96    -6.1  0     0     1005.9   NA       0.0000   9999     0     0     0    
2019/07/06  12:02:02  BASE  3.88668  338  4.53936  352  -5.6  95    -6.2  0     0     1005.9   NA       0.0000   9999     0     0     0    
2019/07/06  12:03:02  BASE  4.19832  343  4.80984  345  -5.7  95    -6.3  0     0     1005.9   NA       0.0000   9999     0     0     0    
2019/07/06  12:04:02  BASE  4.3512   348  4.80984  345  -5.6  95    -6.3  0     0     1005.9   NA       0.0000   9999     0     0     0    
2019/07/06  12:05:02  BASE  4.00428  351  4.80984  345  -5.6  95    -6.3  0     0     1005.9   NA       0.0000   9999     0     0     0    
2019/07/06  12:06:02  BASE  3.34572  350  4.80984  345  -5.5  95    -6.2  0     0     1006.0   NA       0.0000   9999     0     0     0    
2019/07/06  12:07:02  BASE  2.89884  355  4.80984  345  -5.4  94    -6.2  0     0     1006.0   NA       0.0000   9999     0     0     0    
2019/07/06  12:08:01  BASE  2.89884  0    4.80984  345  -5.3  94    -6.1  0     0     1005.9   NA       0.0000   9999     0     0     0    
2019/07/06  12:09:01  BASE  2.81652  0    4.80984  345  -5.2  94    -6.0  0     0     1005.9   NA       0.0000   9999     0     0     0    
2019/07/06  12:10:02  BASE  2.36964  1    4.80984  345  -5.0  93    -6.0  0     0     1005.9   NA       0.0000   9999     0     0     0    
2019/07/06  12:11:01  BASE  1.9992   11   4.80984  345  -5.0  92    -6.0  0     0     1005.9   NA       0.0000   9999     0     0     0    
2019/07/06  12:12:02  BASE  1.95216  15   4.80984  345  -4.9  92    -6.0  0     0     1005.9   NA       0.0000   9999     0     0     0    
2019/07/06  12:13:02  BASE  1.93452  9    4.53936  348  -4.8  91    -6.1  0     0     1005.9   NA       0.0000   9999     0     0     0    
2019/07/06  12:14:02  BASE  1.91688  10   4.116    352  -4.7  90    -6.2  0     0     1005.9   NA       0.0000   9999     0     0     0    
2019/07/06  12:15:02  BASE  2.07564  11   3.41628  352  -4.7  89    -6.3  0     0     1005.9   NA       0.0000   9999     0     0     0    
2019/07/06  12:16:01  BASE  1.93452  16   3.35748  354  -4.7  88    -6.4  0     0     1005.9   NA       0.0000   9999     0     0     0    
2019/07/06  12:17:02  BASE  1.68168  25   3.35748  354  -4.6  87    -6.4  0     0     1005.9   NA       0.0000   9999     0     0     0    
2019/07/06  12:18:02  BASE  1.66404  40   2.75184  354  -4.6  86    -6.6  0     0     1005.9   NA       0.0000   9999     0     0     0    
2019/07/06  12:19:02  BASE  1.72872  45   2.54016  3    -4.7  85    -6.7  0     0     1005.9   NA       0.0000   9999     0     0     0    
2019/07/06  12:20:02  BASE  1.75224  43   2.54016  3    -4.7  85    -6.9  0     0     1005.9   NA       0.0000   9999     0     0     0    
2019/07/06  12:21:02  BASE  1.92864  46   2.54016  3    -4.8  84    -7.0  0     0     1005.9   NA       0.0000   9999     0     0     0    
2019/07/06  12:22:02  BASE  1.9698   55   2.54016  3    -4.8  83    -7.2  0     0     1005.9   NA       0.0000   9999     0     0     0    
2019/07/06  12:23:02  BASE  1.34064  64   2.54016  3    -4.9  83    -7.3  0     0     1005.9   NA       0.0000   9999     0     0     0    
2019/07/06  12:24:01  BASE  0.95256  79   2.54016  3    -4.9  83    -7.4  0     0     1005.9   NA       0.0000   9999     0     0     0    
2019/07/06  12:25:02  BASE  1.37592  94   2.24028  52   -5.0  82    -7.6  0     0     1005.9   NA       0.0000   9999     0     0     0    
2019/07/06  12:26:01  BASE  1.61112  99   2.24028  52   -5.0  82    -7.6  0     0     1005.9   NA       0.0000   9999     0     0     0    
2019/07/06  12:27:02  BASE  1.35828  97   2.24028  52   -4.9  81    -7.6  0     0     1005.9   NA       0.0000   9999     0     0     0    
2019/07/06  12:28:02  BASE  0.69972  74   2.24028  52   -4.8  81    -7.5  0     0     1005.9   NA       0.0000   9999     0     0     0    
2019/07/06  12:29:02  BASE  0.19992  39   2.24028  52   -4.7  81    -7.4  0     0     1005.9   NA       0.0000   9999     0     0     0    
2019/07/06  12:30:02  BASE  0.588    9    2.24028  52   -4.4  81    -7.2  0     0     1005.9   NA       0.0000   9999     0     0     0    
2019/07/06  12:31:02  BASE  0.90552  359  2.1462   53   -4.2  80    -7.1  0     0     1005.9   NA       0.0000   9999     0     0     0    
2019/07/06  12:32:02  BASE  0.91728  3    1.96392  103  -4.1  80    -7.1  0     0     1005.9   NA       0.0000   9999     0     0     0    
2019/07/06  12:33:02  BASE  0.90552  14   1.96392  103  -4.1  79    -7.1  0     0     1005.9   NA       0.0000   9999     0     0     0    
2019/07/06  12:34:02  BASE  0.8232   25   1.96392  103  -4.1  78    -7.3  0     0     1005.9   NA       0.0000   9999     0     0     0    
2019/07/06  12:35:03  BASE  0.92316  35   1.90512  100  -4.2  78    -7.5  0     0     1005.9   NA       0.0000   9999     0     0     0    
2019/07/06  12:36:02  BASE  1.08192  40   1.57584  109  -4.2  78    -7.6  0     0     1005.9   NA       0.0000   9999     0     0     0    
2019/07/06  12:37:02  BASE  1.17012  42   1.32888  45   -4.3  78    -7.7  0     0     1005.9   NA       0.0000   9999     0     0     0    
2019/07/06  12:38:02  BASE  1.01724  48   1.32888  45   -4.5  78    -7.7  0     0     1005.9   NA       0.0000   9999     0     0     0    
2019/07/06  12:39:01  BASE  0.88788  47   1.32888  45   -4.5  78    -7.7  0     0     1005.9   NA       0.0000   9999     0     0     0    
2019/07/06  12:40:02  BASE  0.98196  46   1.54056  46   -4.5  79    -7.6  0     0     1005.9   NA       0.0000   9999     0     0     0    
2019/07/06  12:41:02  BASE  1.42884  53   1.90512  50   -4.6  80    -7.6  0     0     1005.9   NA       0.0000   9999     0     0     0    
2019/07/06  12:42:02  BASE  1.80516  57   1.90512  54   -4.7  81    -7.5  0     0     1006.0   NA       0.0000   9999     0     0     0    
2019/07/06  12:43:02  BASE  1.7934   63   1.90512  70   -4.7  81    -7.4  0     0     1005.9   NA       0.0000   9999     0     0     0    
2019/07/06  12:44:01  BASE  1.71696  71   1.90512  70   -4.6  82    -7.3  0     0     1005.9   NA       0.0000   9999     0     0     0    
2019/07/06  12:45:02  BASE  1.764    71   2.0286   69   -4.7  82    -7.3  0     0     1005.9   NA       0.0000   9999     0     0     0    
2019/07/06  12:46:02  BASE  1.99332  72   2.26968  71   -4.6  82    -7.3  0     0     1005.9   NA       0.0000   9999     0     0     0    
2019/07/06  12:47:01  BASE  2.02272  71   2.26968  71   -4.7  82    -7.4  0     0     1005.9   NA       0.0000   9999     0     0     0    
2019/07/06  12:48:02  BASE  1.86396  71   2.26968  71   -4.8  82    -7.5  0     0     1005.9   NA       0.0000   9999     0     0     0    
2019/07/06  12:49:01  BASE  1.65228  79   2.26968  71   -4.9  82    -7.5  0     0     1005.9   NA       0.0000   9999     0     0     0    
2019/07/06  12:50:02  BASE  1.42884  89   2.26968  71   -4.9  81    -7.6  0     0     1005.9   NA       0.0000   9999     0     0     0    
2019/07/06  12:51:02  BASE  1.176    91   2.26968  71   -4.9  81    -7.6  0     0     1005.9   NA       0.0000   9999     0     0     0    
2019/07/06  12:52:02  BASE  1.11132  89   2.26968  71   -4.8  81    -7.5  0     0     1005.9   NA       0.0000   9999     0     0     0    
2019/07/06  12:53:02  BASE  0.9702   96   2.26968  71   -4.6  81    -7.3  0     0     1005.9   NA       0.0000   9999     0     0     0    
2019/07/06  12:54:01  BASE  0.48216  99   2.26968  71   -4.5  81    -7.2  0     0     1005.9   NA       0.0000   9999     0     0     0    
2019/07/06  12:55:02  BASE  0.6762   101  2.26968  71   -4.4  81    -7.2  0     0     1005.9   NA       0.0000   9999     0     0     0    
2019/07/06  12:56:02  BASE  1.22304  103  2.058    67   -4.3  81    -7.1  0     0     1005.9   NA       0.0000   9999     0     0     0    
2019/07/06  12:57:01  BASE  1.27596  107  1.96392  76   -4.2  80    -7.1  0     0     1005.9   NA       0.0000   9999     0     0     0    
2019/07/06  12:58:02  BASE  1.2936   116  1.69344  92   -4.3  80    -7.2  0     0     1005.9   NA       0.0000   9999     0     0     0    
2019/07/06  12:59:02  BASE  1.32888  118  1.69344  92   -4.4  80    -7.3  0     0     1005.9   NA       0.0000   9999     0     0     0    
2019/07/06  13:00:02  BASE  1.19952  119  1.69344  92   -4.4  80    -7.3  0     0     1005.9   NA       0.0000   9999     0     0     0    
2019/07/06  13:01:02  BASE  1.07016  121  1.69344  92   -4.5  80    -7.4  0     0     1006.0   NA       0.0000   9999     0     0     0    
2019/07/06  13:02:01  BASE  1.0584   116  1.69344  92   -4.6  81    -7.4  0     0     1006.1   NA       0.0000   9999     0     0     0    
2019/07/06  13:03:02  BASE  1.0878   111  1.69344  92   -4.6  81    -7.3  0     0     1006.1   NA       0.0000   9999     0     0     0    
2019/07/06  13:04:01  BASE  1.09956  110  1.69344  92   -4.5  81    -7.2  0     0     1006.1   NA       0.0000   9999     0     0     0    
2019/07/06  13:05:02  BASE  1.15248  102  1.69344  92   -4.5  82    -7.1  0     0     1006.1   NA       0.0000   9999     0     0     0    
2019/07/06  13:06:02  BASE  1.2054   88   1.48176  90   -4.4  82    -7.0  0     0     1006.1   NA       0.0000   9999     0     0     0    
2019/07/06  13:07:02  BASE  1.35828  86   1.75224  93   -4.4  82    -7.0  0     0     1006.1   NA       0.0000   9999     0     0     0    
2019/07/06  13:08:02  BASE  1.61112  91   1.90512  92   -4.4  82    -7.0  0     0     1006.1   NA       0.0000   9999     0     0     0    
2019/07/06  13:09:02  BASE  1.59348  94   1.90512  92   -4.4  82    -7.0  0     0     1006.1   NA       0.0000   9999     0     0     0    
2019/07/06  13:10:01  BASE  1.37592  96   1.90512  92   -4.4  82    -7.0  0     0     1006.1   NA       0.0000   9999     0     0     0    
2019/07/06  13:11:02  BASE  1.31712  94   1.90512  92   -4.3  82    -7.0  0     0     1006.0   NA       0.0000   9999     0     0     0    
2019/07/06  13:12:02  BASE  1.42884  94   1.90512  92   -4.3  82    -6.9  0     0     1006.0   NA       0.0000   9999     0     0     0    
2019/07/06  13:13:02  BASE  1.42884  94   1.90512  92   -4.3  82    -6.9  0     0     1006.0   NA       0.0000   9999     0     0     0    
2019/07/06  13:14:01  BASE  1.323    97   1.90512  92   -4.2  82    -6.8  0     0     1006.0   NA       0.0000   9999     0     0     0    
2019/07/06  13:15:02  BASE  1.2348   104  1.90512  92   -4.2  82    -6.8  0     0     1006.0   NA       0.0000   9999     0     0     0    
2019/07/06  13:16:02  BASE  1.42296  99   1.90512  92   -4.2  82    -6.8  0     0     1006.0   NA       0.0000   9999     0     0     0    
2019/07/06  13:17:02  BASE  1.48764  98   1.90512  92   -4.2  82    -6.8  0     0     1005.9   NA       0.0000   9999     0     0     0    
2019/07/06  13:18:01  BASE  1.09368  106  1.87572  88   -4.2  82    -6.7  0     0     1005.9   NA       0.0000   9999     0     0     0    
2019/07/06  13:19:01  BASE  0.65268  115  1.87572  88   -4.1  82    -6.7  1     0     1005.9   NA       0.0000   9999     0     0     0    
2019/07/06  13:20:02  BASE  0.56448  116  1.87572  88   -4.1  82    -6.6  1     0     1005.9   NA       0.0000   9999     0     0     0    
2019/07/06  13:21:02  BASE  0.65856  121  1.87572  88   -4.0  82    -6.6  1     0     1005.9   NA       0.0000   9999     0     0     0    
2019/07/06  13:22:01  BASE  0.43512  124  1.84632  91   -4.0  82    -6.5  1     0     1005.9   NA       0.0000   9999     0     0     0    
2019/07/06  13:23:02  BASE  0.3528   106  1.84632  91   -3.9  82    -6.5  1     0     1005.9   NA       0.0000   9999     0     0     0    
2019/07/06  13:24:02  BASE  0.4998   102  1.84632  91   -4.0  82    -6.6  1     0     1005.9   NA       0.0000   9999     0     0     0    
2019/07/06  13:25:02  BASE  0.33516  100  1.84632  91   -4.2  82    -6.7  1     0     1005.9   NA       0.0000   9999     0     0     0    
2019/07/06  13:26:02  BASE  0.33516  78   1.57584  96   -4.3  82    -6.8  1     0     1005.9   NA       0.0000   9999     0     0     0    
2019/07/06  13:27:02  BASE  0.74088  68   1.57584  57   -4.4  82    -7.0  1     0     1005.9   NA       0.0000   9999     0     0     0    
2019/07/06  13:28:02  BASE  0.96432  75   1.57584  57   -4.5  82    -7.1  1     0     1005.9   NA       0.0000   9999     0     0     0    
2019/07/06  13:29:02  BASE  1.09368  81   1.57584  57   -4.5  82    -7.1  1     0     1005.9   NA       0.0000   9999     0     0     0    
2019/07/06  13:30:02  BASE  1.2348   76   1.57584  57   -4.6  83    -7.1  1     0     1005.9   NA       0.0000   9999     0     0     0    
2019/07/06  13:31:02  BASE  1.2642   69   1.60524  68   -4.5  83    -7.0  2     0     1005.9   NA       0.0000   9999     0     0     0    
2019/07/06  13:32:02  BASE  1.1172   73   1.60524  68   -4.4  83    -6.9  2     0     1005.9   NA       0.0000   9999     0     0     0    
2019/07/06  13:33:02  BASE  0.77616  84   1.60524  68   -4.4  83    -6.9  2     0     1005.9   NA       0.0000   9999     0     0     0    
2019/07/06  13:34:02  BASE  0.39396  94   1.60524  68   -4.4  83    -6.8  2     0     1005.9   NA       0.0000   9999     0     0     0    
2019/07/06  13:35:03  BASE  0.11172  98   1.60524  68   -4.2  83    -6.6  2     0     1005.9   NA       0.0000   9999     0     0     0    
2019/07/06  13:36:02  BASE  0        98   1.60524  68   -4.2  84    -6.5  2     0     1005.9   NA       0.0000   9999     0     0     0    
2019/07/06  13:37:02  BASE  0        118  1.60524  68   -4.1  84    -6.5  2     0     1005.9   NA       0.0000   9999     0     0     0    
2019/07/06  13:38:02  BASE  0        138  1.60524  68   -4.0  84    -6.3  2     0     1006.0   NA       0.0000   9999     0     0     0    
2019/07/06  13:39:02  BASE  0        139  1.60524  68   -3.9  84    -6.2  2     0     1006.1   NA       0.0000   9999     0     0     0    
2019/07/06  13:40:02  BASE  0        146  1.60524  68   -3.9  84    -6.2  3     0     1006.1   NA       0.0000   9999     0     0     0    
2019/07/06  13:41:02  BASE  0.35868  165  1.18188  70   -4.0  84    -6.3  3     0     1006.0   NA       0.0000   9999     0     0     0    
2019/07/06  13:42:02  BASE  0.74676  179  0.9702   93   -4.0  84    -6.3  3     0     1005.9   NA       0.0000   9999     0     0     0    
2019/07/06  13:43:02  BASE  0.74088  181  0.90552  185  -4.0  84    -6.3  3     0     1005.9   NA       0.0000   9999     0     0     0    
2019/07/06  13:44:01  BASE  0.69384  174  0.90552  185  -4.1  84    -6.4  3     0     1005.9   NA       0.0000   9999     0     0     0    
2019/07/06  13:45:03  BASE  0.79968  168  1.029    162  -4.2  84    -6.5  3     0     1005.9   NA       0.0000   9999     0     0     0    
2019/07/06  13:46:02  BASE  0.96432  162  1.0878   158  -4.3  84    -6.6  3     0     1005.9   NA       0.0000   9999     0     0     0    
2019/07/06  13:47:02  BASE  0.97608  156  1.0878   147  -4.4  85    -6.6  3     0     1005.9   NA       0.0000   9999     0     0     0    
2019/07/06  13:48:02  BASE  0.92316  155  1.0878   147  -4.5  85    -6.7  3     0     1005.9   NA       0.0000   9999     0     0     0    
2019/07/06  13:49:02  BASE  0.92316  151  1.0878   154  -4.7  85    -6.8  4     0     1005.9   NA       0.0000   9999     0     0     0    
2019/07/06  13:50:02  BASE  0.6468   136  1.0878   154  -4.7  85    -6.8  4     0     1005.9   NA       0.0000   9999     0     0     0    
2019/07/06  13:51:02  BASE  0.18228  105  1.0878   154  -4.8  86    -6.8  4     0     1006.0   NA       0.0000   9999     0     0     0    
2019/07/06  13:52:02  BASE  0.24108  45   1.0878   154  -4.7  86    -6.7  4     0     1006.1   NA       0.0000   9999     0     0     0    
2019/07/06  13:53:02  BASE  0.38808  12   1.0878   154  -4.6  87    -6.5  4     0     1006.0   NA       0.0000   9999     0     0     0    
2019/07/06  13:54:02  BASE  0.147    4    1.0878   154  -4.5  87    -6.4  4     0     1006.0   NA       0.0000   9999     0     0     0    
2019/07/06  13:55:02  BASE  0        47   1.0878   154  -4.5  87    -6.3  4     0     1005.9   NA       0.0000   9999     0     0     0    
2019/07/06  13:56:02  BASE  0        113  1.0878   154  -4.5  87    -6.3  4     0     1005.9   NA       0.0000   9999     0     0     0    
2019/07/06  13:57:02  BASE  0.31164  105  1.0878   154  -4.4  87    -6.3  4     0     1005.9   NA       0.0000   9999     0     0     0    
2019/07/06  13:58:02  BASE  0.72912  98   1.0878   154  -4.4  87    -6.3  4     0     1006.0   NA       0.0000   9999     0     0     0    
2019/07/06  13:59:01  BASE  0.9114   118  1.1466   130  -4.4  87    -6.2  4     0     1006.1   NA       0.0000   9999     0     0     0    
2019/07/06  14:00:02  BASE  0.8232   138  1.1466   130  -4.4  87    -6.3  5     0     1006.1   NA       0.0000   9999     0     0     0    
2019/07/06  14:01:01  BASE  0.33516  153  1.1466   130  -4.4  87    -6.3  5     0     1006.1   NA       0.0000   9999     0     0     0    
2019/07/06  14:02:02  BASE  0.07644  173  1.1466   130  -4.5  86    -6.4  5     0     1006.1   NA       0.0000   9999     0     0     0    
2019/07/06  14:03:02  BASE  0.07644  180  1.1466   130  -4.6  86    -6.5  5     0     1006.1   NA       0.0000   9999     0     0     0    
2019/07/06  14:04:02  BASE  0        180  1.1466   130  -4.6  86    -6.5  5     0     1006.1   NA       0.0000   9999     0     0     0    
2019/07/06  14:05:03  BASE  0        198  1.1466   130  -4.6  87    -6.5  5     0     1006.1   NA       0.0000   9999     0     0     0    
2019/07/06  14:06:02  BASE  0        211  1.1466   130  -4.5  87    -6.4  5     0     1006.1   NA       0.0000   9999     0     0     0    
2019/07/06  14:07:02  BASE  0        202  1.1466   130  -4.4  87    -6.2  5     0     1006.1   NA       0.0000   9999     0     0     0    
2019/07/06  14:08:02  BASE  0        175  1.1466   130  -4.3  87    -6.2  5     0     1006.1   NA       0.0000   9999     0     0     0    
2019/07/06  14:09:02  BASE  0        122  0.78792  132  -4.3  87    -6.2  5     0     1006.1   NA       0.0000   9999     0     0     0    
2019/07/06  14:10:02  BASE  0.08232  127  0.66444  177  -4.3  87    -6.2  5     0     1006.1   NA       0.0000   9999     0     0     0    
2019/07/06  14:11:02  BASE  0.48216  158  0.90552  164  -4.3  86    -6.3  5     0     1006.1   NA       0.0000   9999     0     0     0    
2019/07/06  14:12:02  BASE  0.89376  166  1.21128  167  -4.4  86    -6.4  5     0     1006.1   NA       0.0000   9999     0     0     0    
2019/07/06  14:13:02  BASE  1.1466   167  1.48176  166  -4.5  86    -6.5  5     0     1006.1   NA       0.0000   9999     0     0     0    
2019/07/06  14:14:02  BASE  1.29948  157  1.48176  166  -4.7  86    -6.7  5     0     1006.1   NA       0.0000   9999     0     0     0    
2019/07/06  14:15:02  BASE  1.16424  137  1.48176  166  -4.9  86    -6.8  6     0     1006.1   NA       0.0000   9999     0     0     0    
2019/07/06  14:16:02  BASE  1.00548  124  1.48176  166  -5.0  86    -7.0  6     0     1006.1   NA       0.0000   9999     0     0     0    
2019/07/06  14:17:02  BASE  1.029    132  1.48176  166  -5.0  86    -7.0  6     0     1006.1   NA       0.0000   9999     0     0     0    
2019/07/06  14:18:02  BASE  1.15836  140  1.48176  166  -5.0  86    -6.9  6     0     1006.1   NA       0.0000   9999     0     0     0    
2019/07/06  14:19:01  BASE  1.08192  133  1.48176  166  -5.0  86    -6.9  6     0     1006.1   NA       0.0000   9999     0     0     0    
2019/07/06  14:20:02  BASE  0.4998   130  1.48176  166  -4.9  86    -6.9  6     0     1006.1   NA       0.0000   9999     0     0     0    
2019/07/06  14:21:02  BASE  0.41748  148  1.48176  166  -4.9  86    -6.8  6     0     1006.1   NA       0.0000   9999     0     0     0    
2019/07/06  14:22:02  BASE  0.77616  167  1.48176  166  -4.9  86    -6.9  7     0     1006.1   NA       0.0000   9999     0     0     0    
2019/07/06  14:23:02  BASE  0.6762   166  1.42296  136  -5.0  86    -6.9  7     0     1006.1   NA       0.0000   9999     0     0     0    
2019/07/06  14:24:02  BASE  0.28812  151  1.35828  151  -5.0  86    -7.0  7     0     1006.1   NA       0.0000   9999     0     0     0    
2019/07/06  14:25:01  BASE  0        134  1.35828  151  -5.0  86    -7.0  7     0     1006.1   NA       0.0000   9999     0     0     0    
2019/07/06  14:26:02  BASE  0        109  1.35828  151  -5.0  86    -7.0  7     0     1006.1   NA       0.0000   9999     0     0     0    
2019/07/06  14:27:02  BASE  0        71   1.35828  151  -5.0  86    -7.0  7     0     1006.1   NA       0.0000   9999     0     0     0    
2019/07/06  14:28:02  BASE  0.2058   31   1.21128  141  -5.0  86    -7.0  7     0     1006.2   NA       0.0000   9999     0     0     0    
2019/07/06  14:29:01  BASE  0.65856  355  1.0584   335  -5.0  86    -7.0  7     0     1006.3   NA       0.0000   9999     0     0     0    
2019/07/06  14:30:01  BASE  0.82908  340  1.0584   335  -5.0  86    -6.9  8     0     1006.3   NA       0.0000   9999     0     0     0    
2019/07/06  14:31:02  BASE  0.80556  340  1.0584   335  -5.0  86    -6.9  8     0     1006.1   NA       0.0000   9999     0     0     0    
2019/07/06  14:32:01  BASE  0.93492  352  1.0878   2    -5.0  86    -7.0  8     0     1006.1   NA       0.0000   9999     0     0     0    
2019/07/06  14:33:01  BASE  1.03488  358  1.0878   355  -5.1  86    -7.0  8     0     1006.1   NA       0.0000   9999     0     0     0    
2019/07/06  14:34:01  BASE  0.95844  351  1.0878   355  -5.1  87    -7.0  8     0     1006.2   NA       0.0000   9999     0     0     0    
2019/07/06  14:35:03  BASE  0.94668  345  1.18188  347  -5.1  87    -6.9  8     0     1006.3   NA       0.0000   9999     0     0     0    
2019/07/06  14:36:02  BASE  0.93492  335  1.18188  347  -5.2  88    -6.9  8     0     1006.3   NA       0.0000   9999     0     0     0    
2019/07/06  14:37:02  BASE  0.93492  329  1.21128  334  -5.2  88    -6.9  8     0     1006.3   NA       0.0000   9999     0     0     0    
2019/07/06  14:38:02  BASE  1.07604  333  1.21128  335  -5.2  88    -6.8  8     0     1006.3   NA       0.0000   9999     0     0     0    
2019/07/06  14:39:02  BASE  1.10544  342  1.21128  345  -5.3  89    -6.8  9     0     1006.3   NA       0.0000   9999     0     0     0    
2019/07/06  14:40:02  BASE  1.05252  350  1.21128  345  -5.3  89    -6.9  9     0     1006.3   NA       0.0000   9999     0     0     0    
2019/07/06  14:41:02  BASE  1.01136  349  1.21128  345  -5.3  89    -6.8  9     0     1006.3   NA       0.0000   9999     0     0     0    
2019/07/06  14:42:02  BASE  1.10544  343  1.29948  334  -5.4  89    -6.9  9     0     1006.3   NA       0.0000   9999     0     0     0    
2019/07/06  14:43:02  BASE  1.22304  339  1.29948  336  -5.4  90    -6.8  9     0     1006.3   NA       0.0000   9999     0     0     0    
2019/07/06  14:44:02  BASE  1.14072  346  1.29948  336  -5.4  90    -6.8  9     0     1006.3   NA       0.0000   9999     0     0     0    
2019/07/06  14:45:02  BASE  0.94668  1    1.29948  336  -5.4  90    -6.7  9     0     1006.4   NA       0.0000   9999     0     0     0    
2019/07/06  14:46:02  BASE  0.81144  15   1.29948  336  -5.4  90    -6.7  9     0     1006.4   NA       0.0000   9999     0     0     0    
2019/07/06  14:47:02  BASE  0.8526   17   1.29948  336  -5.3  90    -6.7  9     0     1006.4   NA       0.0000   9999     0     0     0    
2019/07/06  14:48:02  BASE  0.97608  10   1.29948  336  -5.3  90    -6.6  9     0     1006.3   NA       0.0000   9999     0     0     0    
2019/07/06  14:49:02  BASE  1.05252  13   1.29948  336  -5.3  91    -6.6  9     0     1006.1   NA       0.0000   9999     0     0     0    
2019/07/06  14:50:02  BASE  0.98784  25   1.29948  336  -5.4  91    -6.6  10    0     1006.3   NA       0.0000   9999     0     0     0    
2019/07/06  14:51:01  BASE  0.79968  41   1.29948  336  -5.4  91    -6.6  10    0     1006.4   NA       0.0000   9999     0     0     0    
2019/07/06  14:52:01  BASE  0.78204  49   1.29948  336  -5.4  91    -6.6  10    0     1006.4   NA       0.0000   9999     0     0     0    
2019/07/06  14:53:02  BASE  0.9114   50   1.24068  345  -5.3  91    -6.6  10    0     1006.4   NA       0.0000   9999     0     0     0    
2019/07/06  14:54:02  BASE  0.95256  56   1.1172   16   -5.3  91    -6.6  10    0     1006.4   NA       0.0000   9999     0     0     0    
2019/07/06  14:55:02  BASE  0.96432  67   1.1172   16   -5.3  91    -6.6  10    0     1006.4   NA       0.0000   9999     0     0     0    
2019/07/06  14:56:02  BASE  1.12896  79   1.51116  92   -5.3  90    -6.6  10    0     1006.4   NA       0.0000   9999     0     0     0    
2019/07/06  14:57:02  BASE  1.24068  78   1.51116  92   -5.3  90    -6.6  10    0     1006.4   NA       0.0000   9999     0     0     0    
2019/07/06  14:58:02  BASE  1.24656  73   1.51116  92   -5.3  90    -6.6  10    0     1006.1   NA       0.0000   9999     0     0     0    
2019/07/06  14:59:02  BASE  1.33476  69   1.54056  66   -5.3  90    -6.6  10    0     1006.2   NA       0.0000   9999     0     0     0    
2019/07/06  15:00:01  BASE  1.33476  66   1.54056  66   -5.2  90    -6.6  11    0     1006.5   NA       0.0000   9999     0     0     0    
2019/07/06  15:01:02  BASE  1.25244  65   1.54056  66   -5.2  90    -6.5  11    0     1006.4   NA       0.0000   9999     0     0     0    
2019/07/06  15:02:01  BASE  1.17012  60   1.54056  66   -5.2  91    -6.5  11    0     1006.1   NA       0.0000   9999     0     0     0    
2019/07/06  15:03:01  BASE  1.029    54   1.54056  66   -5.1  91    -6.4  11    0     1006.4   NA       0.0000   9999     0     0     0    
2019/07/06  15:04:01  BASE  0.93492  53   1.54056  66   -5.1  91    -6.4  11    0     1006.4   NA       0.0000   9999     0     0     0    
2019/07/06  15:05:02  BASE  1.02312  56   1.54056  66   -5.0  91    -6.3  11    0     1006.4   NA       0.0000   9999     0     0     0    
2019/07/06  15:06:02  BASE  1.07604  58   1.54056  66   -5.0  91    -6.3  11    0     1006.4   NA       0.0000   9999     0     0     0    
2019/07/06  15:07:01  BASE  0.97608  55   1.54056  66   -4.9  90    -6.2  11    0     1006.4   NA       0.0000   9999     0     0     0    
2019/07/06  15:08:02  BASE  0.93492  50   1.54056  66   -4.9  90    -6.2  11    0     1006.4   NA       0.0000   9999     0     0     0    
2019/07/06  15:09:02  BASE  0.93492  47   1.45236  59   -4.8  90    -6.2  12    0     1006.4   NA       0.0000   9999     0     0     0    
2019/07/06  15:10:02  BASE  0.87024  39   1.45236  59   -4.8  90    -6.2  12    0     1006.4   NA       0.0000   9999     0     0     0    
2019/07/06  15:11:01  BASE  0.83496  27   1.39356  54   -4.8  90    -6.2  12    0     1006.4   NA       0.0000   9999     0     0     0    
2019/07/06  15:12:02  BASE  0.882    17   1.39356  54   -4.8  90    -6.2  12    0     1006.4   NA       0.0000   9999     0     0     0    
2019/07/06  15:13:02  BASE  1.01724  12   1.39356  54   -4.8  90    -6.2  12    0     1006.4   NA       0.0000   9999     0     0     0    
2019/07/06  15:14:02  BASE  1.2054   16   1.42296  36   -4.9  90    -6.3  12    0     1006.2   NA       0.0000   9999     0     0     0    
2019/07/06  15:15:02  BASE  1.31124  22   1.45236  35   -5.0  90    -6.4  12    0     1006.3   NA       0.0000   9999     0     0     0    
2019/07/06  15:16:03  BASE  1.21716  23   1.45236  35   -5.1  90    -6.5  12    0     1006.3   NA       0.0000   9999     0     0     0    
2019/07/06  15:17:01  BASE  0.77616  28   1.45236  35   -5.3  89    -6.8  12    0     1006.3   NA       0.0000   9999     0     0     0    
2019/07/06  15:18:01  BASE  0.22344  28   1.45236  35   -5.4  89    -6.9  12    0     1006.3   NA       0.0000   9999     0     0     0    
2019/07/06  15:19:02  BASE  0        34   1.45236  35   -5.4  88    -7.0  13    0     1006.3   NA       0.0000   9999     0     0     0    
2019/07/06  15:20:02  BASE  0        61   1.45236  35   -5.3  88    -7.0  13    0     1006.3   NA       0.0000   9999     0     0     0    
2019/07/06  15:21:02  BASE  0        77   1.45236  35   -5.2  88    -6.8  13    0     1006.1   NA       0.0000   9999     0     0     0    
2019/07/06  15:22:02  BASE  0        80   1.45236  35   -5.0  88    -6.6  13    0     1006.1   NA       0.0000   9999     0     0     0    
2019/07/06  15:23:02  BASE  0        80   1.45236  35   -4.8  88    -6.5  13    0     1006.1   NA       0.0000   9999     0     0     0    
2019/07/06  15:24:02  BASE  0        80   1.45236  35   -4.7  88    -6.4  13    0     1006.1   NA       0.0000   9999     0     0     0    
2019/07/06  15:25:01  BASE  0        76   1.24068  37   -4.6  87    -6.4  13    0     1006.1   NA       0.0000   9999     0     0     0    
2019/07/06  15:26:01  BASE  0.49392  58   2.24028  61   -4.6  87    -6.5  13    0     1006.1   NA       0.0000   9999     0     0     0    
2019/07/06  15:27:02  BASE  1.86984  56   3.29868  70   -4.8  86    -6.7  13    0     1006.2   NA       0.0000   9999     0     0     0    
2019/07/06  15:28:02  BASE  2.35788  66   3.29868  70   -4.9  86    -6.8  13    0     1006.1   NA       0.0000   9999     0     0     0    
2019/07/06  15:29:02  BASE  1.7934   56   3.29868  70   -5.0  86    -7.0  14    0     1006.1   NA       0.0000   9999     0     0     0    
2019/07/06  15:30:01  BASE  1.79928  41   3.29868  70   -5.1  86    -7.1  14    0     1006.1   NA       0.0000   9999     0     0     0    
2019/07/06  15:31:02  BASE  1.95804  27   3.29868  70   -5.2  86    -7.2  14    0     1006.1   NA       0.0000   9999     0     0     0    
2019/07/06  15:32:01  BASE  1.8522   18   3.29868  70   -5.2  86    -7.2  14    0     1006.1   NA       0.0000   9999     0     0     0    
2019/07/06  15:33:02  BASE  2.01096  21   3.29868  70   -5.3  85    -7.4  14    0     1006.2   NA       0.0000   9999     0     0     0    
2019/07/06  15:34:02  BASE  2.48724  27   3.29868  70   -5.4  84    -7.6  14    0     1006.3   NA       0.0000   9999     0     0     0    
2019/07/06  15:35:03  BASE  2.37552  24   3.29868  70   -5.5  84    -7.8  14    0     1006.3   NA       0.0000   9999     0     0     0    
2019/07/06  15:36:02  BASE  1.61112  20   3.29868  70   -5.6  83    -8.0  14    0     1006.2   NA       0.0000   9999     0     0     0    
2019/07/06  15:37:02  BASE  1.04076  28   2.81064  26   -5.7  83    -8.1  14    0     1006.1   NA       0.0000   9999     0     0     0    
2019/07/06  15:38:01  BASE  1.19952  51   2.81064  26   -5.7  83    -8.2  14    0     1006.2   NA       0.0000   9999     0     0     0    
2019/07/06  15:39:01  BASE  1.65228  73   2.81064  26   -5.6  83    -8.1  14    0     1006.2   NA       0.0000   9999     0     0     0    
2019/07/06  15:40:01  BASE  1.56408  93   2.81064  26   -5.4  82    -7.9  15    0     1006.1   NA       0.0000   9999     0     0     0    
2019/07/06  15:41:01  BASE  1.48764  117  2.81064  26   -5.2  82    -7.8  15    0     1006.1   NA       0.0000   9999     0     0     0    
2019/07/06  15:42:01  BASE  1.85808  141  2.81064  26   -5.1  81    -7.9  15    0     1006.1   NA       0.0000   9999     0     0     0    
2019/07/06  15:43:01  BASE  2.06976  155  2.81064  26   -5.0  80    -8.0  15    0     1006.1   NA       0.0000   9999     0     0     0    
2019/07/06  15:44:02  BASE  2.16384  156  2.54016  152  -5.0  78    -8.2  15    0     1006.1   NA       0.0000   9999     0     0     0    
2019/07/06  15:45:03  BASE  2.52252  160  2.99292  162  -5.1  77    -8.4  15    0     1006.1   NA       0.0000   9999     0     0     0    
2019/07/06  15:46:02  BASE  2.6166   169  2.99292  162  -5.2  77    -8.6  15    0     1006.1   NA       0.0000   9999     0     0     0    
2019/07/06  15:47:02  BASE  2.3226   178  2.99292  162  -5.2  78    -8.5  15    0     1006.1   NA       0.0000   9999     0     0     0    
2019/07/06  15:48:01  BASE  2.14032  180  2.99292  162  -5.1  79    -8.2  15    0     1006.1   NA       0.0000   9999     0     0     0    
2019/07/06  15:49:02  BASE  1.9698   173  2.99292  162  -5.0  80    -7.9  15    0     1006.0   NA       0.0000   9999     0     0     0    
2019/07/06  15:50:02  BASE  1.84044  172  2.99292  162  -4.9  81    -7.7  15    0     1005.9   NA       0.0000   9999     0     0     0    
2019/07/06  15:51:01  BASE  1.8228   184  2.99292  162  -4.9  82    -7.4  16    0     1005.9   NA       0.0000   9999     0     0     0    
2019/07/06  15:52:02  BASE  1.81692  192  2.99292  162  -4.8  83    -7.2  16    0     1005.9   NA       0.0000   9999     0     0     0    
2019/07/06  15:53:02  BASE  1.68756  191  2.99292  162  -4.8  84    -7.1  16    0     1005.9   NA       0.0000   9999     0     0     0    
2019/07/06  15:54:01  BASE  1.4994   186  2.99292  162  -4.8  85    -7.0  16    0     1005.9   NA       0.0000   9999     0     0     0    
2019/07/06  15:55:02  BASE  1.32888  182  2.63424  174  -4.7  85    -6.8  16    0     1005.9   NA       0.0000   9999     0     0     0    
2019/07/06  15:56:02  BASE  1.18188  172  2.42256  177  -4.7  86    -6.8  16    0     1005.9   NA       0.0000   9999     0     0     0    
2019/07/06  15:57:02  BASE  1.22304  152  2.1462   181  -4.8  86    -6.8  16    0     1005.9   NA       0.0000   9999     0     0     0    
2019/07/06  15:58:02  BASE  1.37004  135  2.0874   164  -4.8  86    -6.8  16    0     1005.9   NA       0.0000   9999     0     0     0    
2019/07/06  15:59:02  BASE  1.29948  132  1.96392  171  -4.9  86    -6.8  16    0     1005.9   NA       0.0000   9999     0     0     0    
2019/07/06  16:00:02  BASE  1.16424  137  1.90512  192  -4.9  87    -6.8  16    0     1005.9   NA       0.0000   9999     0     0     0    
2019/07/06  16:01:01  BASE  1.17012  150  1.87572  194  -4.8  87    -6.6  16    0     1005.9   NA       0.0000   9999     0     0     0    
2019/07/06  16:02:01  BASE  1.37592  161  1.66404  191  -4.7  87    -6.5  16    0     1005.9   NA       0.0000   9999     0     0     0    
2019/07/06  16:03:01  BASE  1.56408  165  1.69344  167  -4.6  88    -6.4  16    0     1005.9   NA       0.0000   9999     0     0     0    
2019/07/06  16:04:02  BASE  1.48764  164  1.69344  167  -4.6  88    -6.3  16    0     1005.9   NA       0.0000   9999     0     0     0    
2019/07/06  16:05:02  BASE  1.37004  160  1.69344  167  -4.6  88    -6.3  16    0     1005.9   NA       0.0000   9999     0     0     0    
2019/07/06  16:06:01  BASE  1.22304  154  1.69344  167  -4.8  87    -6.6  16    0     1005.9   NA       0.0000   9999     0     0     0    
2019/07/06  16:07:01  BASE  1.029    155  1.69344  167  -4.9  87    -6.7  17    0     1005.9   NA       0.0000   9999     0     0     0    
2019/07/06  16:08:01  BASE  1.04664  164  1.69344  167  -4.9  87    -6.8  17    0     1005.9   NA       0.0000   9999     0     0     0    
2019/07/06  16:09:02  BASE  1.11132  172  1.69344  167  -5.0  87    -6.9  17    0     1006.0   NA       0.0000   9999     0     0     0    
2019/07/06  16:10:02  BASE  1.01136  176  1.69344  167  -5.0  86    -6.9  17    0     1006.1   NA       0.0000   9999     0     0     0    
2019/07/06  16:11:02  BASE  0.92904  178  1.69344  167  -5.0  86    -6.9  17    0     1006.1   NA       0.0000   9999     0     0     0    
2019/07/06  16:12:02  BASE  0.90552  186  1.69344  167  -4.9  86    -6.9  17    0     1006.1   NA       0.0000   9999     0     0     0    
2019/07/06  16:13:02  BASE  0.9114   198  1.48176  164  -4.8  86    -6.8  17    0     1006.0   NA       0.0000   9999     0     0     0    
2019/07/06  16:14:01  BASE  1.01724  199  1.42296  159  -4.7  86    -6.7  17    0     1005.9   NA       0.0000   9999     0     0     0    
2019/07/06  16:15:02  BASE  1.21128  191  1.42296  184  -4.6  86    -6.6  17    0     1006.1   NA       0.0000   9999     0     0     0    
2019/07/06  16:16:02  BASE  1.32888  184  1.42296  184  -4.5  86    -6.5  17    0     1006.1   NA       0.0000   9999     0     0     0    
2019/07/06  16:17:02  BASE  1.29948  181  1.42296  184  -4.4  86    -6.4  17    0     1006.1   NA       0.0000   9999     0     0     0    
2019/07/06  16:18:01  BASE  1.37592  176  1.60524  171  -4.4  86    -6.5  17    0     1006.1   NA       0.0000   9999     0     0     0    
2019/07/06  16:19:01  BASE  1.58172  163  1.78752  154  -4.5  85    -6.6  17    0     1006.1   NA       0.0000   9999     0     0     0    
2019/07/06  16:20:02  BASE  1.74048  148  2.0874   153  -4.9  85    -7.0  17    0     1006.1   NA       0.0000   9999     0     0     0    
2019/07/06  16:21:02  BASE  1.911    142  2.38728  141  -5.2  85    -7.4  17    0     1006.1   NA       0.0000   9999     0     0     0    
2019/07/06  16:22:02  BASE  2.10504  137  2.48136  137  -5.5  84    -7.7  17    0     1006.1   NA       0.0000   9999     0     0     0    
2019/07/06  16:23:02  BASE  2.25204  133  2.69304  134  -5.8  84    -8.1  17    0     1006.1   NA       0.0000   9999     0     0     0    
2019/07/06  16:24:02  BASE  2.28732  127  2.90472  128  -5.9  83    -8.3  17    0     1006.1   NA       0.0000   9999     0     0     0    
2019/07/06  16:25:03  BASE  2.1756   120  2.90472  128  -5.8  83    -8.3  17    0     1006.1   NA       0.0000   9999     0     0     0    
2019/07/06  16:26:01  BASE  2.1756   113  2.90472  128  -5.6  82    -8.1  17    0     1006.1   NA       0.0000   9999     0     0     0    
2019/07/06  16:27:02  BASE  2.14032  117  2.90472  128  -5.4  81    -8.1  17    0     1006.1   NA       0.0000   9999     0     0     0    
2019/07/06  16:28:02  BASE  2.06976  126  2.90472  128  -5.3  80    -8.1  17    0     1006.1   NA       0.0000   9999     0     0     0    
2019/07/06  16:29:02  BASE  2.19912  125  2.90472  128  -5.2  80    -8.2  17    0     1006.1   NA       0.0000   9999     0     0     0    
2019/07/06  16:30:03  BASE  2.25792  125  2.90472  128  -5.2  79    -8.2  17    0     1006.1   NA       0.0000   9999     0     0     0    
2019/07/06  16:31:02  BASE  2.3226   126  2.96352  129  -5.2  78    -8.4  17    0     1006.1   NA       0.0000   9999     0     0     0    
2019/07/06  16:32:01  BASE  2.59308  128  2.96352  144  -5.4  78    -8.6  17    0     1006.1   NA       0.0000   9999     0     0     0    
2019/07/06  16:33:02  BASE  2.72832  132  2.96352  144  -5.5  78    -8.7  17    0     1006.1   NA       0.0000   9999     0     0     0    
2019/07/06  16:34:02  BASE  2.54016  134  2.96352  144  -5.5  78    -8.8  17    0     1006.1   NA       0.0000   9999     0     0     0    
2019/07/06  16:35:03  BASE  2.63424  133  3.1458   134  -5.6  78    -8.8  17    0     1006.1   NA       0.0000   9999     0     0     0    
2019/07/06  16:36:02  BASE  2.65776  133  3.2046   128  -5.6  78    -8.9  17    0     1006.1   NA       0.0000   9999     0     0     0    
2019/07/06  16:37:02  BASE  2.29908  126  3.2046   128  -5.6  78    -8.9  17    0     1006.1   NA       0.0000   9999     0     0     0    
2019/07/06  16:38:02  BASE  2.21676  124  3.2046   128  -5.5  77    -8.9  17    0     1006.1   NA       0.0000   9999     0     0     0    
2019/07/06  16:39:02  BASE  2.35788  122  3.2046   128  -5.5  77    -8.9  17    0     1006.1   NA       0.0000   9999     0     0     0    
2019/07/06  16:40:02  BASE  2.46372  108  3.2046   128  -5.5  77    -8.8  17    0     1006.1   NA       0.0000   9999     0     0     0    
2019/07/06  16:41:02  BASE  2.35788  103  3.2046   128  -5.3  77    -8.6  17    0     1006.1   NA       0.0000   9999     0     0     0    
2019/07/06  16:42:01  BASE  2.04624  110  3.2046   128  -5.2  77    -8.5  17    0     1006.1   NA       0.0000   9999     0     0     0    
2019/07/06  16:43:02  BASE  1.9698   118  3.2046   128  -5.0  77    -8.5  16    0     1006.1   NA       0.0000   9999     0     0     0    
2019/07/06  16:44:01  BASE  2.28144  125  3.2046   128  -5.0  76    -8.5  16    0     1006.1   NA       0.0000   9999     0     0     0    
2019/07/06  16:45:02  BASE  2.13444  122  3.2046   128  -5.0  76    -8.6  16    0     1006.0   NA       0.0000   9999     0     0     0    
2019/07/06  16:46:01  BASE  1.65816  116  3.087    102  -5.1  75    -8.8  16    0     1006.0   NA       0.0000   9999     0     0     0    
2019/07/06  16:47:02  BASE  1.59936  109  3.087    102  -5.1  75    -8.9  16    0     1006.0   NA       0.0000   9999     0     0     0    
2019/07/06  16:48:01  BASE  1.6758   117  3.087    102  -5.2  75    -8.9  16    0     1006.0   NA       0.0000   9999     0     0     0    
2019/07/06  16:49:01  BASE  1.8522   128  3.02232  128  -5.1  75    -9.0  16    0     1005.9   NA       0.0000   9999     0     0     0    
2019/07/06  16:50:02  BASE  2.26968  124  3.02232  128  -5.1  74    -9.0  16    0     1005.9   NA       0.0000   9999     0     0     0    
2019/07/06  16:51:01  BASE  2.63424  119  3.41628  119  -5.1  74    -9.0  16    0     1005.9   NA       0.0000   9999     0     0     0    
2019/07/06  16:52:01  BASE  2.68716  120  3.41628  119  -5.1  74    -9.0  16    0     1005.9   NA       0.0000   9999     0     0     0    
2019/07/06  16:53:02  BASE  2.84004  121  3.41628  120  -5.0  74    -8.9  16    0     1006.0   NA       0.0000   9000     0     0     0    
2019/07/06  16:54:01  BASE  2.48724  116  3.41628  120  -5.0  74    -8.8  16    0     1005.9   NA       0.0000   9999     0     0     0    
2019/07/06  16:55:02  BASE  2.1168   111  3.41628  120  -4.9  75    -8.7  16    0     1005.9   NA       0.0000   9999     0     0     0    
2019/07/06  16:56:01  BASE  2.03448  109  3.41628  120  -4.8  75    -8.5  16    0     1005.9   NA       0.0000   9999     0     0     0    
2019/07/06  16:57:02  BASE  1.78164  108  3.41628  120  -4.7  75    -8.4  16    0     1005.9   NA       0.0000   9999     0     0     0    
2019/07/06  16:58:01  BASE  1.86396  112  3.41628  120  -4.6  76    -8.3  16    0     1005.9   NA       0.0000   9999     0     0     0    
2019/07/06  16:59:01  BASE  2.04624  119  3.41628  120  -4.5  76    -8.1  15    0     1006.0   NA       0.0000   9999     0     0     0    
2019/07/06  17:00:02  BASE  1.82868  118  3.41628  120  -4.5  76    -8.1  15    0     1006.1   NA       0.0000   9999     0     0     0    
2019/07/06  17:01:02  BASE  1.31712  112  3.41628  120  -4.5  76    -8.1  15    0     1006.1   NA       0.0000   9999     0     0     0    
2019/07/06  17:02:01  BASE  0.97608  83   3.41628  120  -4.5  76    -8.1  15    0     1006.1   NA       0.0000   9999     0     0     0    
2019/07/06  17:03:01  BASE  0.95256  59   2.54016  135  -4.5  76    -8.2  15    0     1006.1   NA       0.0000   9999     0     0     0    
2019/07/06  17:04:00  BASE  0.882    42   2.54016  135  -4.6  75    -8.3  15    0     1005.9   NA       0.0000   9999     0     0     0    
2019/07/06  17:05:01  BASE  0.91728  13   2.54016  135  -4.6  75    -8.3  15    0     1006.1   NA       0.0000   9999     0     0     0    
2019/07/06  17:06:02  BASE  1.30536  355  2.54016  135  -4.6  75    -8.4  15    0     1006.1   NA       0.0000   9999     0     0     0    
2019/07/06  17:07:01  BASE  1.33476  349  2.54016  135  -4.6  75    -8.4  15    0     1006.1   NA       0.0000   9999     0     0     0    
2019/07/06  17:08:02  BASE  1.04076  354  2.54016  135  -4.7  76    -8.3  15    0     1005.9   NA       0.0000   9999     0     0     0    
2019/07/06  17:09:01  BASE  0.87612  2    2.0874   139  -4.7  76    -8.3  15    0     1006.1   NA       0.0000   9999     0     0     0    
2019/07/06  17:10:02  BASE  0.87612  4    1.69344  347  -4.7  77    -8.2  15    0     1006.1   NA       0.0000   9999     0     0     0    
2019/07/06  17:11:02  BASE  0.85848  6    1.69344  347  -4.8  78    -8.1  15    0     1006.1   NA       0.0000   9999     0     0     0    
2019/07/06  17:12:02  BASE  0.95256  22   1.69344  347  -4.8  79    -7.9  14    0     1006.1   NA       0.0000   9999     0     0     0    
2019/07/06  17:13:01  BASE  1.21716  19   1.69344  347  -4.8  79    -7.8  14    0     1006.1   NA       0.0000   9999     0     0     0    
2019/07/06  17:14:01  BASE  1.32888  3    1.69344  347  -4.8  80    -7.8  14    0     1006.1   NA       0.0000   9999     0     0     0    
2019/07/06  17:15:01  BASE  1.54644  2    1.9992   360  -4.8  80    -7.7  14    0     1006.1   NA       0.0000   9999     0     0     0    
2019/07/06  17:16:02  BASE  1.7052   3    1.9992   360  -4.8  81    -7.6  14    0     1006.1   NA       0.0000   9999     0     0     0    
2019/07/06  17:17:02  BASE  1.69344  5    1.9992   360  -4.8  81    -7.6  14    0     1006.1   NA       0.0000   9999     0     0     0    
2019/07/06  17:18:02  BASE  1.79928  20   2.0874   39   -4.8  81    -7.5  14    0     1006.1   NA       0.0000   9999     0     0     0    
2019/07/06  17:19:01  BASE  1.96392  23   2.35788  26   -4.8  82    -7.5  14    0     1006.1   NA       0.0000   9999     0     0     0    
2019/07/06  17:20:02  BASE  2.19324  11   2.38728  16   -4.8  82    -7.4  14    0     1006.1   NA       0.0000   9999     0     0     0    
2019/07/06  17:21:03  BASE  2.31672  15   2.48136  21   -4.9  82    -7.5  14    0     1006.1   NA       0.0000   9999     0     0     0    
2019/07/06  17:22:02  BASE  2.41668  19   2.56956  14   -5.0  82    -7.6  14    0     1006.0   NA       0.0000   9999     0     0     0    
2019/07/06  17:23:02  BASE  2.5284   15   2.66364  17   -5.0  82    -7.6  14    0     1006.0   NA       0.0000   9999     0     0     0    
2019/07/06  17:24:01  BASE  2.52252  16   2.69304  22   -5.1  82    -7.7  14    0     1006.0   NA       0.0000   9999     0     0     0    
2019/07/06  17:25:02  BASE  2.69892  20   3.02232  23   -5.1  82    -7.7  14    0     1005.9   NA       0.0000   9999     0     0     0    
2019/07/06  17:26:02  BASE  2.95764  23   3.1752   22   -5.1  82    -7.7  14    0     1005.8   NA       0.0000   9999     0     0     0    
2019/07/06  17:27:02  BASE  2.98116  28   3.1752   22   -5.2  82    -7.8  14    0     1006.0   NA       0.0000   9999     0     0     0    
2019/07/06  17:28:01  BASE  2.95176  31   3.1752   22   -5.2  82    -7.9  13    0     1006.1   NA       0.0000   9999     0     0     0    
2019/07/06  17:29:02  BASE  2.95764  31   3.26928  31   -5.3  82    -7.9  13    0     1006.1   NA       0.0000   9999     0     0     0    
2019/07/06  17:30:01  BASE  2.96352  27   3.41628  33   -5.4  82    -8.0  13    0     1006.1   NA       0.0000   9999     0     0     0    
2019/07/06  17:31:02  BASE  2.91648  26   3.44568  41   -5.4  82    -8.1  13    0     1006.1   NA       0.0000   9999     0     0     0    
2019/07/06  17:32:02  BASE  2.78124  28   3.44568  41   -5.4  82    -8.1  13    0     1006.0   NA       0.0000   9999     0     0     0    
2019/07/06  17:33:01  BASE  2.58132  27   3.44568  41   -5.4  81    -8.1  13    0     1006.1   NA       0.0000   9999     0     0     0    
2019/07/06  17:34:01  BASE  2.48724  30   3.44568  41   -5.3  81    -8.1  13    0     1006.0   NA       0.0000   9999     0     0     0    
2019/07/06  17:35:03  BASE  2.42844  29   3.44568  41   -5.3  80    -8.2  13    0     1006.1   NA       0.0000   9999     0     0     0    
2019/07/06  17:36:01  BASE  2.40492  28   3.44568  41   -5.2  80    -8.2  12    0     1006.1   NA       0.0000   9999     0     0     0    
2019/07/06  17:37:01  BASE  2.51664  32   3.44568  41   -5.2  79    -8.3  12    0     1006.1   NA       0.0000   9999     0     0     0    
2019/07/06  17:38:02  BASE  2.63424  32   3.44568  41   -5.2  79    -8.3  12    0     1006.1   NA       0.0000   9999     0     0     0    
2019/07/06  17:39:02  BASE  2.646    29   3.44568  41   -5.2  78    -8.4  12    0     1006.1   NA       0.0000   9999     0     0     0    
2019/07/06  17:40:01  BASE  2.59896  24   3.44568  41   -5.1  77    -8.4  12    0     1006.1   NA       0.0000   9999     0     0     0    
2019/07/06  17:41:02  BASE  2.44608  22   2.93412  38   -5.1  77    -8.6  12    0     1006.1   NA       0.0000   9999     0     0     0    
2019/07/06  17:42:02  BASE  2.13444  29   2.90472  28   -5.0  76    -8.6  12    0     1006.0   NA       0.0000   9999     0     0     0    
2019/07/06  17:43:02  BASE  1.92276  31   2.90472  28   -4.9  75    -8.6  12    0     1006.1   NA       0.0000   9999     0     0     0    
2019/07/06  17:44:02  BASE  1.93452  29   2.90472  28   -4.8  75    -8.7  11    0     1006.1   NA       0.0000   9999     0     0     0    
2019/07/06  17:45:02  BASE  2.0874   24   2.90472  28   -4.7  74    -8.7  11    0     1006.1   NA       0.0000   9999     0     0     0    
2019/07/06  17:46:01  BASE  2.06976  15   2.90472  28   -4.6  73    -8.6  11    0     1006.1   NA       0.0000   9999     0     0     0    
2019/07/06  17:47:02  BASE  2.11092  1    2.90472  28   -4.5  73    -8.7  11    0     1006.1   NA       0.0000   9999     0     0     0    
2019/07/06  17:48:02  BASE  2.34612  344  2.75184  19   -4.4  72    -8.8  11    0     1006.1   NA       0.0000   9999     0     0     0    
2019/07/06  17:49:02  BASE  2.43432  336  2.75184  335  -4.3  71    -8.8  11    0     1006.1   NA       0.0000   9000     0     0     0    
2019/07/06  17:50:02  BASE  2.07564  330  2.75184  335  -4.2  70    -8.8  10    0     1006.1   NA       0.0000   9999     0     0     0    
2019/07/06  17:51:02  BASE  1.54644  319  2.75184  335  -4.1  70    -8.8  10    0     1006.1   NA       0.0000   9999     0     0     0    
2019/07/06  17:52:02  BASE  1.51116  311  2.75184  335  -4.0  69    -8.9  10    0     1006.1   NA       0.0000   9999     0     0     0    
2019/07/06  17:53:01  BASE  1.63464  317  2.75184  335  -4.0  69    -9.0  10    0     1006.1   NA       0.0000   9999     0     0     0    
2019/07/06  17:54:02  BASE  1.90512  333  2.75184  335  -4.1  68    -9.0  10    0     1006.1   NA       0.0000   9999     0     0     0    
2019/07/06  17:55:03  BASE  2.37552  343  2.75184  350  -4.2  69    -9.1  10    0     1006.1   NA       0.0000   9999     0     0     0    
2019/07/06  17:56:02  BASE  2.75184  344  3.2046   341  -4.3  69    -9.1  10    0     1006.1   NA       0.0000   9999     0     0     0    
2019/07/06  17:57:01  BASE  2.8224   339  3.2046   341  -4.5  70    -9.1  10    0     1006.1   NA       0.0000   9999     0     0     0    
2019/07/06  17:58:01  BASE  2.80476  339  3.2046   341  -4.6  70    -9.1  10    0     1006.1   NA       0.0000   9999     0     0     0    
2019/07/06  17:59:02  BASE  2.71068  339  3.2046   341  -4.7  71    -9.2  9     0     1006.1   NA       0.0000   9999     0     0     0    
2019/07/06  18:00:02  BASE  2.59308  336  3.2046   341  -4.8  71    -9.2  9     0     1006.1   NA       0.0000   9999     0     0     0    
2019/07/06  18:01:02  BASE  2.84004  336  3.29868  336  -4.8  72    -9.2  9     0     1006.1   NA       0.0000   9999     0     0     0    
2019/07/06  18:02:01  BASE  2.98704  338  3.29868  336  -4.8  72    -9.1  9     0     1006.1   NA       0.0000   9999     0     0     0    
2019/07/06  18:03:01  BASE  3.234    339  3.69264  336  -4.8  73    -9.0  9     0     1006.1   NA       0.0000   9999     0     0     0    
2019/07/06  18:04:01  BASE  3.45744  338  3.69264  339  -4.8  73    -8.9  9     0     1006.1   NA       0.0000   9999     0     0     0    
2019/07/06  18:05:01  BASE  3.33984  339  3.69264  339  -4.8  73    -8.8  9     0     1006.1   NA       0.0000   9999     0     0     0    
2019/07/06  18:06:02  BASE  3.3516   341  3.69264  339  -4.8  73    -8.8  9     0     1006.1   NA       0.0000   9999     0     0     0    
2019/07/06  18:07:02  BASE  3.31044  336  3.69264  339  -4.8  74    -8.8  9     0     1006.1   NA       0.0000   9999     0     0     0    
2019/07/06  18:08:03  BASE  3.39864  326  3.93372  317  -4.8  74    -8.8  8     0     1006.1   NA       0.0000   9999     0     0     0    
2019/07/06  18:09:02  BASE  3.52212  316  3.93372  317  -4.9  74    -8.8  8     0     1006.1   NA       0.0000   9999     0     0     0    
2019/07/06  18:10:02  BASE  3.53388  311  3.93372  317  -5.0  74    -8.9  8     0     1006.1   NA       0.0000   9999     0     0     0    
2019/07/06  18:11:02  BASE  3.50448  313  3.93372  317  -5.0  75    -8.8  8     0     1006.1   NA       0.0000   9999     0     0     0    
2019/07/06  18:12:02  BASE  3.33984  318  3.93372  317  -5.0  76    -8.7  8     0     1006.1   NA       0.0000   9999     0     0     0    
2019/07/06  18:13:02  BASE  3.15168  317  3.93372  317  -5.0  76    -8.6  8     0     1006.1   NA       0.0000   9999     0     0     0    
2019/07/06  18:14:01  BASE  3.16344  312  3.93372  317  -5.0  77    -8.5  8     0     1006.1   NA       0.0000   9999     0     0     0    
2019/07/06  18:15:02  BASE  3.06348  315  3.93372  317  -5.1  77    -8.4  7     0     1006.1   NA       0.0000   9999     0     0     0    
2019/07/06  18:16:02  BASE  2.69304  316  3.93372  317  -5.1  77    -8.4  7     0     1006.1   NA       0.0000   9999     0     0     0    
2019/07/06  18:17:01  BASE  2.63424  306  3.93372  317  -5.0  78    -8.3  7     0     1006.1   NA       0.0000   9999     0     0     0    
2019/07/06  18:18:02  BASE  2.90472  298  3.83964  314  -5.1  78    -8.3  7     0     1006.1   NA       0.0000   9999     0     0     0    
2019/07/06  18:19:02  BASE  3.22812  298  3.83964  314  -5.0  79    -8.2  7     0     1006.1   NA       0.0000   9999     0     0     0    
2019/07/06  18:20:01  BASE  3.33984  306  3.62796  321  -5.0  79    -8.1  6     0     1006.1   NA       0.0000   9999     0     0     0    
2019/07/06  18:21:02  BASE  3.28104  318  3.62796  321  -4.9  79    -8.0  6     0     1006.1   NA       0.0000   9999     0     0     0    
2019/07/06  18:22:02  BASE  3.12816  323  3.48096  311  -4.9  79    -7.9  6     0     1005.9   NA       0.0000   9999     0     0     0    
2019/07/06  18:23:01  BASE  2.8518   318  3.48096  311  -4.8  79    -7.9  6     0     1005.9   NA       0.0000   9999     0     0     0    
2019/07/06  18:24:01  BASE  2.57544  316  3.48096  311  -4.8  79    -7.8  5     0     1005.9   NA       0.0000   9999     0     0     0    
2019/07/06  18:25:02  BASE  2.4696   317  3.48096  311  -4.7  79    -7.8  5     0     1005.9   NA       0.0000   9999     0     0     0    
2019/07/06  18:26:02  BASE  2.25204  317  3.48096  311  -4.7  79    -7.8  5     0     1005.9   NA       0.0000   9999     0     0     0    
2019/07/06  18:27:02  BASE  1.68168  315  3.48096  311  -4.7  79    -7.8  5     0     1006.1   NA       0.0000   9999     0     0     0    
2019/07/06  18:28:01  BASE  0.7938   305  3.48096  311  -4.7  79    -7.8  4     0     1006.1   NA       0.0000   9999     0     0     0    
2019/07/06  18:29:01  BASE  0.18816  275  3.48096  311  -4.7  79    -7.8  4     0     1006.1   NA       0.0000   9999     0     0     0    
2019/07/06  18:30:03  BASE  0.93492  164  3.38688  326  -4.9  78    -8.0  4     0     1006.1   NA       0.0000   9999     0     0     0    
2019/07/06  18:31:02  BASE  1.7346   135  3.2046   316  -5.1  78    -8.3  4     0     1006.2   NA       0.0000   9999     0     0     0    
2019/07/06  18:32:01  BASE  1.617    146  2.90472  312  -5.3  78    -8.5  4     0     1006.1   NA       0.0000   9999     0     0     0    
2019/07/06  18:33:02  BASE  1.37004  158  2.78124  314  -5.4  78    -8.5  3     0     1006.1   NA       0.0000   9999     0     0     0    
2019/07/06  18:34:01  BASE  1.19364  171  2.63424  315  -5.4  78    -8.6  3     0     1006.1   NA       0.0000   9999     0     0     0    
2019/07/06  18:35:03  BASE  1.17012  175  2.42256  142  -5.3  79    -8.5  3     0     1006.1   NA       0.0000   9999     0     0     0    
2019/07/06  18:36:02  BASE  1.15836  171  2.42256  142  -5.2  79    -8.3  3     0     1006.1   NA       0.0000   9999     0     0     0    
2019/07/06  18:37:02  BASE  1.30536  154  2.42256  142  -5.1  78    -8.3  3     0     1006.1   NA       0.0000   9999     0     0     0    
2019/07/06  18:38:02  BASE  1.5582   136  2.42256  142  -5.0  78    -8.3  3     0     1006.1   NA       0.0000   9999     0     0     0    
2019/07/06  18:39:01  BASE  1.68756  131  2.42256  142  -5.0  77    -8.3  3     0     1006.1   NA       0.0000   9999     0     0     0    
2019/07/06  18:40:01  BASE  1.81104  135  2.42256  142  -5.0  77    -8.4  3     0     1006.1   NA       0.0000   9999     0     0     0    
2019/07/06  18:41:02  BASE  1.8228   141  2.0286   140  -5.0  76    -8.5  3     0     1006.1   NA       0.0000   9999     0     0     0    
2019/07/06  18:42:01  BASE  1.5876   144  1.96392  141  -5.0  76    -8.6  2     0     1006.1   NA       0.0000   9999     0     0     0    
2019/07/06  18:43:01  BASE  1.32888  142  1.96392  141  -5.0  75    -8.7  2     0     1006.2   NA       0.0000   9999     0     0     0    
2019/07/06  18:44:02  BASE  1.18776  136  1.96392  141  -4.9  74    -8.8  2     0     1006.3   NA       0.0000   9999     0     0     0    
2019/07/06  18:45:02  BASE  1.19364  131  1.96392  141  -4.7  74    -8.7  2     0     1006.4   NA       0.0000   9999     0     0     0    
2019/07/06  18:46:01  BASE  1.12896  130  1.96392  141  -4.5  73    -8.6  2     0     1006.4   NA       0.0000   9999     0     0     0    
2019/07/06  18:47:02  BASE  0.8526   126  1.96392  141  -4.3  72    -8.6  2     0     1006.4   NA       0.0000   9999     0     0     0    
2019/07/06  18:48:01  BASE  0.61152  110  1.96392  141  -4.1  71    -8.6  2     0     1006.4   NA       0.0000   9999     0     0     0    
2019/07/06  18:49:01  BASE  0.74088  97   1.96392  141  -4.0  70    -8.7  2     0     1006.4   NA       0.0000   9999     0     0     0    
2019/07/06  18:50:01  BASE  1.35828  109  2.0286   117  -4.0  69    -8.8  2     0     1006.4   NA       0.0000   9999     0     0     0    
2019/07/06  18:51:02  BASE  1.66404  120  2.0286   117  -4.1  69    -8.9  2     0     1006.4   NA       0.0000   9999     0     0     0    
2019/07/06  18:52:02  BASE  1.94628  116  2.90472  98   -4.2  69    -9.0  2     0     1006.4   NA       0.0000   9999     0     0     0    
2019/07/06  18:53:01  BASE  2.86944  110  3.83964  107  -4.5  70    -9.2  2     0     1006.4   NA       0.0000   9999     0     0     0    
2019/07/06  18:54:01  BASE  3.47508  106  4.08072  101  -4.7  71    -9.1  1     0     1006.4   NA       0.0000   9999     0     0     0    
2019/07/06  18:55:01  BASE  3.54564  101  4.08072  101  -4.8  73    -8.9  1     0     1006.4   NA       0.0000   9999     0     0     0    
2019/07/06  18:56:02  BASE  3.56916  102  4.08072  101  -4.8  74    -8.6  1     0     1006.4   NA       0.0000   9999     0     0     0    
2019/07/06  18:57:02  BASE  3.77496  106  4.32768  105  -4.9  75    -8.5  1     0     1006.4   NA       0.0000   9999     0     0     0    
2019/07/06  18:58:01  BASE  3.80436  107  4.32768  105  -4.8  76    -8.3  1     0     1006.4   NA       0.0000   9999     0     0     0    
2019/07/06  18:59:01  BASE  3.41628  105  4.32768  105  -4.8  77    -8.2  1     0     1006.4   NA       0.0000   9999     0     0     0    
2019/07/06  19:00:02  BASE  3.08112  111  4.32768  105  -4.8  76    -8.3  1     0     1006.4   NA       0.0000   9999     0     0     0    
2019/07/06  19:01:02  BASE  2.51076  122  4.32768  105  -4.7  76    -8.3  1     0     1006.4   NA       0.0000   9999     0     0     0    
2019/07/06  19:02:02  BASE  2.08152  118  4.32768  105  -4.6  76    -8.1  1     0     1006.4   NA       0.0000   9999     0     0     0    
2019/07/06  19:03:01  BASE  2.16972  105  4.32768  105  -4.3  76    -8.0  1     0     1006.4   NA       0.0000   9999     0     0     0    
2019/07/06  19:04:01  BASE  2.18736  106  4.32768  105  -4.1  75    -7.9  1     0     1006.4   NA       0.0000   9999     0     0     0    
2019/07/06  19:05:02  BASE  1.87572  113  4.32768  105  -3.9  75    -7.7  1     0     1006.3   NA       0.0000   9999     0     0     0    
2019/07/06  19:06:02  BASE  1.51116  110  4.32768  105  -3.6  74    -7.5  1     0     1006.3   NA       0.0000   9999     0     0     0    
2019/07/06  19:07:01  BASE  1.09368  106  3.81024  104  -3.5  74    -7.4  1     0     1006.3   NA       0.0000   9999     0     0     0    
2019/07/06  19:08:02  BASE  0.36456  75   3.62796  102  -3.3  74    -7.3  1     0     1006.2   NA       0.0000   9999     0     0     0    
2019/07/06  19:09:02  BASE  0        6    3.1752   117  -3.2  74    -7.2  1     0     1006.1   NA       0.0000   9999     0     0     0    
2019/07/06  19:10:02  BASE  0        346  2.72244  123  -3.1  74    -7.1  1     0     1006.1   NA       0.0000   9999     0     0     0    
2019/07/06  19:11:01  BASE  0        356  2.48136  101  -3.1  74    -7.1  1     0     1006.1   NA       0.0000   9999     0     0     0    
2019/07/06  19:12:01  BASE  0        351  2.48136  101  -3.1  74    -7.1  0     0     1006.1   NA       0.0000   9999     0     0     0    
2019/07/06  19:13:01  BASE  0        349  2.48136  101  -3.0  74    -7.1  0     0     1006.1   NA       0.0000   9999     0     0     0    
2019/07/06  19:14:01  BASE  0        350  1.9992   121  -3.0  74    -7.1  0     0     1006.1   NA       0.0000   9999     0     0     0    
2019/07/06  19:15:01  BASE  0        349  1.69344  108  -3.1  74    -7.1  0     0     1006.1   NA       0.0000   9999     0     0     0    
2019/07/06  19:16:02  BASE  0        341  0.90552  109  -3.1  74    -7.2  0     0     1006.1   NA       0.0000   9999     0     0     0    
2019/07/06  19:17:01  BASE  0        328  0        M    -3.2  73    -7.3  0     0     1006.1   NA       0.0000   9999     0     0     0    
2019/07/06  19:18:02  BASE  0        341  0        M    -3.3  73    -7.4  0     0     1006.1   NA       0.0000   9999     0     0     0    
2019/07/06  19:19:01  BASE  0.34104  2    0.84672  8    -3.3  73    -7.5  0     0     1006.1   NA       0.0000   9999     0     0     0    
2019/07/06  19:20:02  BASE  0.78204  10   0.9996   20   -3.4  73    -7.5  0     0     1006.1   NA       0.0000   9999     0     0     0    
2019/07/06  19:21:02  BASE  1.1172   25   1.48176  30   -3.4  72    -7.7  0     0     1006.1   NA       0.0000   9999     0     0     0    
2019/07/06  19:22:02  BASE  1.27596  23   1.48176  30   -3.6  72    -8.0  0     0     1006.1   NA       0.0000   9999     0     0     0    
2019/07/06  19:23:01  BASE  1.029    14   1.48176  30   -3.8  71    -8.3  0     0     1006.1   NA       0.0000   9999     0     0     0    
2019/07/06  19:24:01  BASE  0.5292   23   1.48176  30   -3.9  70    -8.7  0     0     1006.1   NA       0.0000   9999     0     0     0    
2019/07/06  19:25:01  BASE  0.25872  51   1.48176  30   -4.1  69    -9.0  0     0     1006.1   NA       0.0000   9999     0     0     0    
2019/07/06  19:26:02  BASE  1.05252  96   2.96352  131  -4.2  68    -9.2  0     0     1006.1   NA       0.0000   9999     0     0     0    
2019/07/06  19:27:01  BASE  2.0286   119  2.96352  131  -4.4  68    -9.4  0     0     1006.1   NA       0.0000   9999     0     0     0    
2019/07/06  19:28:00  BASE  2.42844  123  2.96352  133  -4.5  68    -9.5  0     0     1006.1   NA       0.0000   9999     0     0     0    
2019/07/06  19:29:01  BASE  2.47548  124  3.1164   128  -4.5  68    -9.5  0     0     1006.1   NA       0.0000   9999     0     0     0    
2019/07/06  19:30:02  BASE  2.44608  123  3.1164   128  -4.7  69    -9.4  0     0     1006.1   NA       0.0000   9999     0     0     0    
2019/07/06  19:31:01  BASE  2.16972  121  3.1164   128  -4.8  70    -9.4  0     0     1006.1   NA       0.0000   9999     0     0     0    
2019/07/06  19:32:01  BASE  1.7934   104  3.1164   128  -4.7  72    -9.0  0     0     1006.2   NA       0.0000   9999     0     0     0    
2019/07/06  19:33:01  BASE  2.22264  80   3.1164   128  -4.7  73    -8.8  0     0     1006.3   NA       0.0000   9999     0     0     0    
2019/07/06  19:34:01  BASE  2.59308  67   3.1164   128  -4.7  74    -8.7  0     0     1006.3   NA       0.0000   9999     0     0     0    
2019/07/06  19:35:04  BASE  2.31084  65   3.1164   128  -4.7  75    -8.5  0     0     1006.3   NA       0.0000   9999     0     0     0    
2019/07/06  19:36:01  BASE  1.90512  68   3.1164   128  -4.6  75    -8.4  0     0     1006.3   NA       0.0000   9999     0     0     0    
2019/07/06  19:37:02  BASE  1.56408  74   3.1164   128  -4.5  74    -8.5  0     0     1006.2   NA       0.0000   9999     0     0     0    
2019/07/06  19:38:01  BASE  1.43472  82   3.1164   128  -4.4  73    -8.5  0     0     1006.1   NA       0.0000   9999     0     0     0    
2019/07/06  19:39:02  BASE  1.42884  91   2.87532  56   -4.3  72    -8.6  0     0     1006.1   NA       0.0000   9999     0     0     0    
2019/07/06  19:40:02  BASE  1.28772  96   2.87532  56   -4.2  72    -8.6  0     0     1006.1   NA       0.0000   9999     0     0     0    
2019/07/06  19:41:02  BASE  0.77028  109  2.87532  56   -4.1  71    -8.5  0     0     1006.1   NA       0.0000   9999     0     0     0    
2019/07/06  19:42:01  BASE  0.38808  132  2.87532  56   -4.0  72    -8.4  0     0     1006.1   NA       0.0000   9999     0     0     0    
2019/07/06  19:43:01  BASE  0.2352   141  2.63424  56   -3.9  72    -8.2  0     0     1006.1   NA       0.0000   9999     0     0     0    
2019/07/06  19:44:01  BASE  0.05292  139  2.63424  56   -3.7  73    -7.9  0     0     1006.1   NA       0.0000   9999     0     0     0    
2019/07/06  19:45:01  BASE  0.11172  141  1.87572  69   -3.6  73    -7.8  0     0     1006.1   NA       0.0000   9999     0     0     0    
2019/07/06  19:46:01  BASE  0.53508  147  1.69344  96   -3.6  74    -7.6  0     0     1006.0   NA       0.0000   9999     0     0     0    
2019/07/06  19:47:01  BASE  0.9996   149  1.69344  96   -3.6  74    -7.6  0     0     1005.9   NA       0.0000   9999     0     0     0    
2019/07/06  19:48:01  BASE  1.14072  145  1.69344  96   -3.7  74    -7.6  0     0     1005.9   NA       0.0000   9999     0     0     0    
2019/07/06  19:49:01  BASE  0.78204  135  1.24068  96   -3.7  74    -7.7  0     0     1006.0   NA       0.0000   9999     0     0     0    
2019/07/06  19:50:02  BASE  0.21168  103  1.21128  146  -3.8  74    -7.7  0     0     1006.1   NA       0.0000   9999     0     0     0    
2019/07/06  19:51:02  BASE  0.89964  46   2.42256  29   -3.8  75    -7.7  0     0     1006.1   NA       0.0000   9999     0     0     0    
2019/07/06  19:52:01  BASE  2.03448  28   2.42256  29   -3.9  75    -7.8  0     0     1006.1   NA       0.0000   9999     0     0     0    
2019/07/06  19:53:01  BASE  2.18148  32   2.42256  29   -4.0  74    -7.9  0     0     1006.1   NA       0.0000   9999     0     0     0    
2019/07/06  19:54:02  BASE  1.86396  46   2.42256  29   -4.1  74    -8.0  0     0     1006.1   NA       0.0000   9999     0     0     0    
2019/07/06  19:55:02  BASE  1.50528  66   2.42256  29   -4.1  73    -8.2  0     0     1006.1   NA       0.0000   9999     0     0     0    
2019/07/06  19:56:01  BASE  1.21128  85   2.42256  29   -4.2  72    -8.4  0     0     1006.0   NA       0.0000   9999     0     0     0    
2019/07/06  19:57:02  BASE  1.09368  95   2.42256  29   -4.1  71    -8.5  0     0     1005.9   NA       0.0000   9999     0     0     0    
2019/07/06  19:58:02  BASE  0.9702   94   2.42256  29   -3.9  70    -8.5  0     0     1005.9   NA       0.0000   9999     0     0     0    
2019/07/06  19:59:00  BASE  0.84672  78   2.42256  29   -3.8  69    -8.7  0     0     1005.9   NA       0.0000   9999     0     0     0    
2019/07/06  20:00:01  BASE  0.99372  54   2.42256  29   -3.7  67    -8.9  0     0     1005.9   NA       0.0000   9999     0     0     0    
2019/07/06  20:01:02  BASE  0.9114   46   2.32848  27   -3.7  66    -9.0  0     0     1006.0   NA       0.0000   9999     0     0     0    
2019/07/06  20:02:02  BASE  0.38808  59   2.24028  27   -3.7  66    -9.2  0     0     1006.0   NA       0.0000   9999     0     0     0    
2019/07/06  20:03:01  BASE  0.18816  97   1.84632  44   -3.7  65    -9.3  0     0     1005.9   NA       0.0000   9999     0     0     0    
2019/07/06  20:04:01  BASE  0.65268  139  1.54056  69   -3.8  65    -9.4  0     0     1005.9   NA       0.0000   9999     0     0     0    
2019/07/06  20:05:02  BASE  1.00548  158  1.24068  46   -3.8  65    -9.5  0     0     1006.0   NA       0.0000   9999     0     0     0    
2019/07/06  20:06:03  BASE  1.0584   167  1.24068  169  -3.9  65    -9.5  0     0     1006.1   NA       0.0000   9999     0     0     0    
2019/07/06  20:07:02  BASE  0.83496  185  1.24068  169  -3.9  65    -9.4  0     0     1006.1   NA       0.0000   9999     0     0     0    
2019/07/06  20:08:01  BASE  0.34692  198  1.24068  169  -3.8  66    -9.3  0     0     1006.1   NA       0.0000   9999     0     0     0    
2019/07/06  20:09:02  BASE  0.09996  193  1.24068  169  -3.8  67    -9.1  0     0     1006.1   NA       0.0000   9999     0     0     0    
2019/07/06  20:10:02  BASE  0.3822   181  1.24068  169  -3.7  68    -8.8  0     0     1006.1   NA       0.0000   9999     0     0     0    
2019/07/06  20:11:01  BASE  0.79968  169  1.24068  169  -3.7  69    -8.5  0     0     1006.1   NA       0.0000   9999     0     0     0    
2019/07/06  20:12:01  BASE  1.01724  159  1.24068  169  -3.7  70    -8.4  0     0     1006.1   NA       0.0000   9999     0     0     0    
2019/07/06  20:13:01  BASE  1.10544  158  1.32888  157  -3.9  70    -8.5  0     0     1006.1   NA       0.0000   9999     0     0     0    
2019/07/06  20:14:02  BASE  1.11132  152  1.42296  141  -4.0  71    -8.6  0     0     1006.1   NA       0.0000   9999     0     0     0    
2019/07/06  20:15:02  BASE  1.3818   147  1.87572  157  -4.3  71    -8.7  0     0     1006.1   NA       0.0000   9999     0     0     0    
2019/07/06  20:16:01  BASE  1.71108  150  2.0874   156  -4.5  72    -8.8  0     0     1006.1   NA       0.0000   9999     0     0     0    
2019/07/06  20:17:01  BASE  1.75224  148  2.29908  150  -4.6  72    -8.8  0     0     1006.1   NA       0.0000   9999     0     0     0    
2019/07/06  20:18:02  BASE  1.80516  140  2.29908  150  -4.6  73    -8.6  0     0     1006.1   NA       0.0000   9999     0     0     0    
2019/07/06  20:19:01  BASE  1.61112  131  2.29908  150  -4.6  74    -8.5  0     0     1006.1   NA       0.0000   9999     0     0     0    
2019/07/06  20:20:01  BASE  1.1172   112  2.29908  150  -4.5  75    -8.2  0     0     1006.1   NA       0.0000   9999     0     0     0    
2019/07/06  20:21:01  BASE  1.17012  93   2.29908  150  -4.4  76    -8.0  0     0     1006.1   NA       0.0000   9999     0     0     0    
2019/07/06  20:22:02  BASE  2.25204  89   3.41628  103  -4.4  75    -8.1  0     0     1006.1   NA       0.0000   9999     0     0     0    
2019/07/06  20:23:02  BASE  2.92236  88   3.41628  103  -4.5  75    -8.3  0     0     1006.1   NA       0.0000   9999     0     0     0    
2019/07/06  20:24:01  BASE  2.94588  93   3.59856  112  -4.5  74    -8.4  0     0     1006.2   NA       0.0000   9999     0     0     0    
2019/07/06  20:25:02  BASE  2.92824  113  3.59856  114  -4.6  73    -8.6  0     0     1006.2   NA       0.0000   9999     0     0     0    
2019/07/06  20:26:01  BASE  2.35788  125  3.59856  114  -4.8  73    -8.9  0     0     1006.3   NA       0.0000   9999     0     0     0    
2019/07/06  20:27:02  BASE  1.56996  135  3.59856  114  -5.0  72    -9.2  0     0     1006.3   NA       0.0000   9999     0     0     0    
2019/07/06  20:28:01  BASE  0.81732  132  3.59856  114  -5.0  73    -9.2  0     0     1006.3   NA       0.0000   9999     0     0     0    
2019/07/06  20:29:01  BASE  0.22344  108  3.59856  114  -5.1  73    -9.2  0     0     1006.3   NA       0.0000   9999     0     0     0    
2019/07/06  20:30:02  BASE  0.34692  94   3.59856  114  -5.0  73    -9.0  0     0     1006.3   NA       0.0000   9999     0     0     0    
2019/07/06  20:31:02  BASE  0.71148  93   3.59856  114  -4.8  74    -8.8  0     0     1006.3   NA       0.0000   9999     0     0     0    
2019/07/06  20:32:02  BASE  0.78204  84   3.59856  114  -4.5  74    -8.5  0     0     1006.3   NA       0.0000   9999     0     0     0    
2019/07/06  20:33:02  BASE  0.89964  46   3.59856  114  -4.4  73    -8.4  0     0     1006.3   NA       0.0000   9999     0     0     0    
2019/07/06  20:34:02  BASE  1.03488  18   3.59856  114  -4.1  73    -8.3  0     0     1006.3   NA       0.0000   9999     0     0     0    
2019/07/06  20:35:03  BASE  1.31124  25   2.38728  129  -4.0  72    -8.3  0     0     1006.3   NA       0.0000   9999     0     0     0    
2019/07/06  20:36:02  BASE  1.61112  39   2.0286   45   -4.1  71    -8.5  0     0     1006.3   NA       0.0000   9999     0     0     0    
2019/07/06  20:37:01  BASE  1.81692  45   2.1168   46   -4.2  71    -8.7  0     0     1006.3   NA       0.0000   9999     0     0     0    
2019/07/06  20:38:01  BASE  2.07564  43   2.38728  44   -4.3  71    -8.8  0     0     1006.3   NA       0.0000   9999     0     0     0    
2019/07/06  20:39:01  BASE  2.04036  39   2.38728  44   -4.4  71    -9.0  0     0     1006.3   NA       0.0000   9999     0     0     0    
2019/07/06  20:40:01  BASE  1.7934   36   2.38728  44   -4.5  71    -9.0  0     0     1006.3   NA       0.0000   9999     0     0     0    
2019/07/06  20:41:01  BASE  1.74636  32   2.38728  44   -4.5  71    -9.0  0     0     1006.3   NA       0.0000   9999     0     0     0    
2019/07/06  20:42:02  BASE  1.93452  27   2.38728  44   -4.6  71    -9.1  0     0     1006.3   NA       0.0000   9999     0     0     0    
2019/07/06  20:43:01  BASE  2.1462   24   2.38728  44   -4.6  71    -9.1  0     0     1006.3   NA       0.0000   9999     0     0     0    
2019/07/06  20:44:01  BASE  2.19912  23   2.38728  44   -4.7  71    -9.2  0     0     1006.3   NA       0.0000   9999     0     0     0    
2019/07/06  20:45:03  BASE  2.18736  24   2.38728  44   -4.7  71    -9.2  0     0     1006.3   NA       0.0000   9999     0     0     0    
2019/07/06  20:46:02  BASE  2.11092  21   2.38728  44   -4.8  71    -9.2  0     0     1006.3   NA       0.0000   9999     0     0     0    
2019/07/06  20:47:02  BASE  2.09916  18   2.38728  44   -4.7  72    -9.0  0     0     1006.3   NA       0.0000   9999     0     0     0    
2019/07/06  20:48:01  BASE  2.09916  15   2.35788  17   -4.7  72    -8.9  0     0     1006.2   NA       0.0000   9999     0     0     0    
2019/07/06  20:49:01  BASE  2.02272  16   2.35788  17   -4.7  73    -8.8  0     0     1006.1   NA       0.0000   9999     0     0     0    
2019/07/06  20:50:02  BASE  1.94628  20   2.35788  17   -4.6  73    -8.6  0     0     1006.1   NA       0.0000   9999     0     0     0    
2019/07/06  20:51:02  BASE  1.94628  24   2.35788  17   -4.5  74    -8.5  0     0     1006.1   NA       0.0000   9999     0     0     0    
2019/07/06  20:52:02  BASE  2.1168   26   2.42256  25   -4.5  74    -8.4  0     0     1006.1   NA       0.0000   9999     0     0     0    
2019/07/06  20:53:01  BASE  2.39316  26   2.75184  27   -4.4  75    -8.2  0     0     1006.1   NA       0.0000   9999     0     0     0    
2019/07/06  20:54:02  BASE  2.60484  23   3.02232  17   -4.4  75    -8.2  0     0     1006.1   NA       0.0000   9999     0     0     0    
2019/07/06  20:55:02  BASE  2.66952  17   3.02232  17   -4.4  74    -8.3  0     0     1006.1   NA       0.0000   9999     0     0     0    
2019/07/06  20:56:01  BASE  2.51076  13   3.02232  17   -4.4  74    -8.4  0     0     1006.1   NA       0.0000   9999     0     0     0    
2019/07/06  20:57:01  BASE  2.34612  14   3.02232  17   -4.4  73    -8.5  0     0     1006.1   NA       0.0000   9999     0     0     0    
2019/07/06  20:58:01  BASE  2.27556  14   3.02232  17   -4.4  72    -8.6  0     0     1006.1   NA       0.0000   9999     0     0     0    
2019/07/06  20:59:02  BASE  2.2638   15   3.02232  17   -4.3  72    -8.7  0     0     1006.1   NA       0.0000   9999     0     0     0    
2019/07/06  21:00:02  BASE  2.2638   18   3.02232  17   -4.3  71    -8.7  0     0     1006.1   NA       0.0000   9999     0     0     0    
2019/07/06  21:01:02  BASE  2.25792  22   3.02232  17   -4.3  71    -8.8  0     0     1006.1   NA       0.0000   9999     0     0     0    
2019/07/06  21:02:02  BASE  2.22852  26   3.02232  17   -4.3  70    -8.8  0     0     1006.1   NA       0.0000   9999     0     0     0    
2019/07/06  21:03:02  BASE  2.14032  32   3.02232  17   -4.3  70    -8.9  0     0     1006.1   NA       0.0000   9999     0     0     0    
2019/07/06  21:04:02  BASE  2.058    37   2.87532  11   -4.3  70    -9.0  0     0     1006.1   NA       0.0000   9999     0     0     0    
2019/07/06  21:05:02  BASE  1.94628  44   2.59896  1    -4.3  70    -9.0  0     0     1006.1   NA       0.0000   9999     0     0     0    
2019/07/06  21:06:02  BASE  1.8816   47   2.48136  18   -4.3  70    -9.0  0     0     1006.1   NA       0.0000   9999     0     0     0    
2019/07/06  21:07:02  BASE  1.92276  42   2.48136  18   -4.3  69    -9.0  0     0     1006.1   NA       0.0000   9999     0     0     0    
2019/07/06  21:08:01  BASE  1.95216  37   2.48136  18   -4.2  69    -9.0  0     0     1006.1   NA       0.0000   9999     0     0     0    
2019/07/06  21:09:01  BASE  1.9404   38   2.42256  13   -4.2  69    -9.1  0     0     1006.1   NA       0.0000   9999     0     0     0    
2019/07/06  21:10:02  BASE  1.91688  37   2.38728  22   -4.2  69    -9.1  0     0     1006.1   NA       0.0000   9999     0     0     0    
2019/07/06  21:11:02  BASE  1.89924  34   2.29908  26   -4.2  68    -9.1  0     0     1006.1   NA       0.0000   9999     0     0     0    
2019/07/06  21:12:01  BASE  1.93452  32   2.21088  37   -4.2  68    -9.2  0     0     1006.1   NA       0.0000   9999     0     0     0    
2019/07/06  21:13:01  BASE  1.98156  28   2.1756   24   -4.2  68    -9.3  0     0     1006.1   NA       0.0000   9999     0     0     0    
2019/07/06  21:14:01  BASE  1.92276  24   2.1756   24   -4.2  68    -9.3  0     0     1006.1   NA       0.0000   9999     0     0     0    
2019/07/06  21:15:03  BASE  1.71696  24   2.1756   24   -4.2  68    -9.2  0     0     1006.1   NA       0.0000   9999     0     0     0    
2019/07/06  21:16:01  BASE  1.49352  31   2.1756   24   -4.2  68    -9.2  0     0     1006.1   NA       0.0000   9999     0     0     0    
2019/07/06  21:17:01  BASE  1.30536  32   2.1756   24   -4.1  68    -9.3  0     0     1006.1   NA       0.0000   9999     0     0     0    
2019/07/06  21:18:01  BASE  1.19364  28   2.1756   24   -4.1  67    -9.3  0     0     1006.1   NA       0.0000   9999     0     0     0    
2019/07/06  21:19:02  BASE  1.32888  29   2.1756   24   -4.1  67    -9.3  0     0     1006.0   NA       0.0000   9999     0     0     0    
2019/07/06  21:20:02  BASE  1.6464   26   2.1756   24   -4.1  67    -9.4  0     0     1005.9   NA       0.0000   9999     0     0     0    
2019/07/06  21:21:01  BASE  1.7934   17   2.1756   24   -4.1  67    -9.4  0     0     1005.9   NA       0.0000   9999     0     0     0    
2019/07/06  21:22:01  BASE  1.76988  13   2.1756   24   -4.1  67    -9.3  0     0     1005.9   NA       0.0000   9999     0     0     0    
2019/07/06  21:23:02  BASE  1.66992  12   1.96392  28   -4.1  67    -9.3  0     0     1005.9   NA       0.0000   9999     0     0     0    
2019/07/06  21:24:01  BASE  1.45236  16   1.90512  16   -4.1  67    -9.3  0     0     1005.9   NA       0.0000   9999     0     0     0    
2019/07/06  21:25:01  BASE  1.16424  26   1.90512  16   -4.1  67    -9.3  0     0     1005.9   NA       0.0000   9999     0     0     0    
2019/07/06  21:26:02  BASE  0.92316  35   1.90512  16   -4.1  67    -9.2  0     0     1005.9   NA       0.0000   9999     0     0     0    
2019/07/06  21:27:02  BASE  0.80556  30   1.90512  16   -4.0  67    -9.2  0     0     1005.9   NA       0.0000   9999     0     0     0    
2019/07/06  21:28:01  BASE  0.81144  10   1.90512  16   -4.0  67    -9.1  0     0     1005.9   NA       0.0000   9999     0     0     0    
2019/07/06  21:29:02  BASE  0.74088  353  1.90512  16   -3.9  67    -9.1  0     0     1005.9   NA       0.0000   9999     0     0     0    
2019/07/06  21:30:02  BASE  0.85848  346  1.90512  16   -3.8  67    -9.0  0     0     1005.9   NA       0.0000   9999     0     0     0    
2019/07/06  21:31:01  BASE  1.07016  347  1.87572  12   -3.8  67    -9.0  0     0     1005.9   NA       0.0000   9999     0     0     0    
2019/07/06  21:32:02  BASE  1.0878   0    1.72284  10   -3.8  67    -9.1  0     0     1005.9   NA       0.0000   9999     0     0     0    
2019/07/06  21:33:01  BASE  1.21716  12   1.45236  11   -3.8  67    -9.1  0     0     1005.9   NA       0.0000   9999     0     0     0    
2019/07/06  21:34:02  BASE  1.27596  21   1.45236  11   -3.9  66    -9.3  0     0     1005.9   NA       0.0000   9999     0     0     0    
2019/07/06  21:35:03  BASE  1.12896  25   1.45236  11   -4.1  66    -9.4  0     0     1006.0   NA       0.0000   9999     0     0     0    
2019/07/06  21:36:02  BASE  0.98784  23   1.45236  11   -4.2  67    -9.4  0     0     1006.0   NA       0.0000   9999     0     0     0    
2019/07/06  21:37:02  BASE  0.97608  16   1.45236  11   -4.2  67    -9.4  0     0     1005.9   NA       0.0000   9999     0     0     0    
2019/07/06  21:38:01  BASE  1.06428  13   1.45236  11   -4.2  67    -9.4  0     0     1005.9   NA       0.0000   9999     0     0     0    
2019/07/06  21:39:02  BASE  1.12308  11   1.45236  11   -4.1  67    -9.3  0     0     1005.9   NA       0.0000   9999     0     0     0    
2019/07/06  21:40:02  BASE  1.1172   9    1.45236  11   -4.0  67    -9.2  0     0     1005.9   NA       0.0000   9999     0     0     0    
2019/07/06  21:41:02  BASE  1.1466   18   1.45236  11   -4.0  67    -9.2  0     0     1005.9   NA       0.0000   9999     0     0     0    
2019/07/06  21:42:02  BASE  1.21716  25   1.45236  11   -4.0  67    -9.2  0     0     1006.0   NA       0.0000   9999     0     0     0    
2019/07/06  21:43:02  BASE  1.30536  21   1.42296  16   -4.0  67    -9.3  0     0     1006.1   NA       0.0000   9999     0     0     0    
2019/07/06  21:44:01  BASE  1.39356  17   1.48176  19   -4.1  67    -9.3  0     0     1006.1   NA       0.0000   9999     0     0     0    
2019/07/06  21:45:02  BASE  1.49352  19   1.63464  19   -4.1  67    -9.3  0     0     1006.0   NA       0.0000   9999     0     0     0    
2019/07/06  21:46:02  BASE  1.59936  25   1.75224  37   -4.2  67    -9.3  0     0     1006.0   NA       0.0000   9999     0     0     0    
2019/07/06  21:47:02  BASE  1.68168  35   1.78752  39   -4.2  68    -9.3  0     0     1005.9   NA       0.0000   9999     0     0     0    
2019/07/06  21:48:01  BASE  1.95216  42   2.26968  50   -4.3  68    -9.2  0     0     1006.0   NA       0.0000   9999     0     0     0    
2019/07/06  21:49:01  BASE  2.2638   45   2.56956  45   -4.3  69    -9.2  0     0     1006.0   NA       0.0000   9999     0     0     0    
2019/07/06  21:50:02  BASE  2.35788  39   2.56956  32   -4.4  69    -9.2  0     0     1005.9   NA       0.0000   9999     0     0     0    
2019/07/06  21:51:01  BASE  2.3814   34   2.72244  32   -4.5  70    -9.2  0     0     1005.9   NA       0.0000   9999     0     0     0    
2019/07/06  21:52:02  BASE  2.30496  36   2.72244  32   -4.5  70    -9.2  0     0     1005.9   NA       0.0000   9999     0     0     0    
2019/07/06  21:53:02  BASE  2.205    38   2.72244  32   -4.5  70    -9.2  0     0     1005.9   NA       0.0000   9999     0     0     0    
2019/07/06  21:54:01  BASE  2.0874   38   2.72244  32   -4.5  70    -9.2  0     0     1005.9   NA       0.0000   9999     0     0     0    
2019/07/06  21:55:02  BASE  2.1756   43   2.72244  32   -4.5  70    -9.1  0     0     1005.9   NA       0.0000   9999     0     0     0    
2019/07/06  21:56:02  BASE  2.50488  50   2.78124  52   -4.4  70    -9.1  0     0     1005.9   NA       0.0000   9999     0     0     0    
2019/07/06  21:57:02  BASE  2.5872   53   2.81064  54   -4.4  70    -9.0  0     0     1005.9   NA       0.0000   9999     0     0     0    
2019/07/06  21:58:01  BASE  2.54604  52   2.81064  54   -4.4  70    -9.0  0     0     1005.9   NA       0.0000   9999     0     0     0    
2019/07/06  21:59:01  BASE  2.55192  47   2.81064  54   -4.4  70    -9.1  0     0     1005.9   NA       0.0000   9999     0     0     0    
2019/07/06  22:00:01  BASE  2.46372  41   2.81064  54   -4.5  70    -9.1  0     0     1005.9   NA       0.0000   9999     0     0     0    
2019/07/06  22:01:02  BASE  2.48136  41   2.84592  42   -4.5  70    -9.1  0     0     1005.9   NA       0.0000   9999     0     0     0    
2019/07/06  22:02:02  BASE  2.71068  41   2.96352  41   -4.5  70    -9.2  0     0     1005.9   NA       0.0000   9999     0     0     0    
2019/07/06  22:03:01  BASE  2.89296  40   3.02232  46   -4.6  70    -9.3  0     0     1005.9   NA       0.0000   9999     0     0     0    
2019/07/06  22:04:02  BASE  2.9106   38   3.02232  46   -4.6  69    -9.4  0     0     1005.9   NA       0.0000   9999     0     0     0    
2019/07/06  22:05:01  BASE  2.98116  42   3.26928  46   -4.7  69    -9.5  0     0     1005.9   NA       0.0000   9999     0     0     0    
2019/07/06  22:06:01  BASE  3.1752   47   3.41628  43   -4.7  69    -9.5  0     0     1005.9   NA       0.0000   9999     0     0     0    
2019/07/06  22:07:02  BASE  3.12816  50   3.41628  43   -4.8  69    -9.5  0     0     1005.9   NA       0.0000   9999     0     0     0    
2019/07/06  22:08:01  BASE  2.793    49   3.41628  43   -4.7  70    -9.4  0     0     1005.9   NA       0.0000   9999     0     0     0    
2019/07/06  22:09:01  BASE  2.53428  47   3.41628  43   -4.6  70    -9.2  0     0     1005.9   NA       0.0000   9999     0     0     0    
2019/07/06  22:10:01  BASE  2.38728  46   3.41628  43   -4.4  70    -9.1  0     0     1005.9   NA       0.0000   9999     0     0     0    
2019/07/06  22:11:02  BASE  2.205    42   3.41628  43   -4.3  70    -9.0  0     0     1005.9   NA       0.0000   9999     0     0     0    
2019/07/06  22:12:01  BASE  1.9992   37   3.41628  43   -4.2  69    -9.0  0     0     1005.9   NA       0.0000   9999     0     0     0    
2019/07/06  22:13:02  BASE  1.7934   34   3.41628  43   -4.1  69    -8.9  0     0     1005.9   NA       0.0000   9999     0     0     0    
2019/07/06  22:14:01  BASE  1.68756  39   3.41628  43   -4.1  69    -8.9  0     0     1005.9   NA       0.0000   9999     0     0     0    
2019/07/06  22:15:02  BASE  1.79928  47   3.41628  43   -4.0  69    -8.9  0     0     1005.9   NA       0.0000   9999     0     0     0    
2019/07/06  22:16:02  BASE  1.76988  47   3.2046   53   -3.9  68    -8.9  0     0     1005.9   NA       0.0000   9999     0     0     0    
2019/07/06  22:17:02  BASE  1.6464   46   2.90472  41   -3.9  68    -8.9  0     0     1005.9   NA       0.0000   9999     0     0     0    
2019/07/06  22:18:02  BASE  1.65228  40   2.75184  46   -3.8  67    -9.0  0     0     1005.9   NA       0.0000   9999     0     0     0    
2019/07/06  22:19:02  BASE  1.66992  31   2.54016  48   -3.8  67    -9.1  0     0     1005.9   NA       0.0000   9999     0     0     0    
2019/07/06  22:20:02  BASE  1.68756  28   2.42256  45   -3.7  66    -9.2  0     0     1005.9   NA       0.0000   9999     0     0     0    
2019/07/06  22:21:01  BASE  1.58172  21   2.1462   46   -3.7  66    -9.2  0     0     1005.9   NA       0.0000   9999     0     0     0    
2019/07/06  22:22:02  BASE  1.31124  10   2.1462   46   -3.7  65    -9.3  0     0     1005.9   NA       0.0000   9999     0     0     0    
2019/07/06  22:23:01  BASE  1.24068  359  2.1462   46   -3.7  65    -9.4  0     0     1005.9   NA       0.0000   9999     0     0     0    
2019/07/06  22:24:02  BASE  1.47     355  2.1462   46   -3.6  65    -9.4  0     0     1005.9   NA       0.0000   9999     0     0     0    
2019/07/06  22:25:01  BASE  1.68168  11   1.96392  28   -3.6  64    -9.4  0     0     1005.9   NA       0.0000   9999     0     0     0    
2019/07/06  22:26:01  BASE  1.75812  27   1.96392  28   -3.6  64    -9.4  0     0     1005.9   NA       0.0000   9999     0     0     0    
2019/07/06  22:27:02  BASE  1.86984  33   2.26968  44   -3.6  64    -9.5  0     0     1005.9   NA       0.0000   9999     0     0     0    
2019/07/06  22:28:02  BASE  2.1462   40   2.56956  40   -3.7  64    -9.5  0     0     1005.9   NA       0.0000   9999     0     0     0    
2019/07/06  22:29:02  BASE  2.28144  44   2.56956  40   -3.7  64    -9.5  0     0     1005.9   NA       0.0000   9999     0     0     0    
2019/07/06  22:30:02  BASE  2.33436  40   2.56956  40   -3.8  64    -9.6  0     0     1005.9   NA       0.0000   9999     0     0     0    
2019/07/06  22:31:01  BASE  2.205    38   2.56956  40   -3.9  64    -9.6  0     0     1005.9   NA       0.0000   9999     0     0     0    
2019/07/06  22:32:01  BASE  2.18736  42   2.69304  44   -3.9  64    -9.7  0     0     1005.9   NA       0.0000   9999     0     0     0    
2019/07/06  22:33:02  BASE  2.30496  44   2.69304  44   -4.0  64    -9.8  0     0     1005.9   NA       0.0000   9999     0     0     0    
2019/07/06  22:34:01  BASE  2.13444  47   2.69304  44   -4.1  64    -9.9  0     0     1005.9   NA       0.0000   9999     0     0     0    
2019/07/06  22:35:03  BASE  1.99332  50   2.69304  44   -4.1  64    -9.9  0     0     1005.9   NA       0.0000   9999     0     0     0    
2019/07/06  22:36:02  BASE  1.94628  52   2.69304  44   -4.1  65    -9.8  0     0     1005.9   NA       0.0000   9999     0     0     0    
2019/07/06  22:37:02  BASE  1.92864  50   2.69304  44   -4.0  65    -9.7  0     0     1005.9   NA       0.0000   9999     0     0     0    
2019/07/06  22:38:01  BASE  2.01096  46   2.69304  44   -3.9  64    -9.7  0     0     1005.9   NA       0.0000   9999     0     0     0    
2019/07/06  22:39:01  BASE  2.15796  47   2.69304  44   -3.9  63    -9.8  0     0     1005.9   NA       0.0000   9999     0     0     0    
2019/07/06  22:40:02  BASE  2.14032  47   2.69304  44   -3.8  63    -9.9  0     0     1005.9   NA       0.0000   9999     0     0     0    
2019/07/06  22:41:02  BASE  1.95804  45   2.69304  44   -3.8  62    -10.1 0     0     1005.9   NA       0.0000   9999     0     0     0    
2019/07/06  22:42:01  BASE  1.81692  46   2.45196  51   -3.8  61    -10.2 0     0     1005.9   NA       0.0000   9999     0     0     0    
2019/07/06  22:43:02  BASE  1.71696  44   2.45196  51   -3.8  61    -10.2 0     0     1005.9   NA       0.0000   9999     0     0     0    
2019/07/06  22:44:02  BASE  1.59348  47   2.35788  51   -3.7  61    -10.1 0     0     1005.9   NA       0.0000   9999     0     0     0    
2019/07/06  22:45:02  BASE  1.39356  50   2.35788  51   -3.7  61    -10.1 0     0     1005.9   NA       0.0000   9999     0     0     0    
2019/07/06  22:46:01  BASE  1.323    49   2.35788  51   -3.6  61    -10.1 0     0     1005.9   NA       0.0000   9999     0     0     0    
2019/07/06  22:47:02  BASE  1.33476  51   2.35788  51   -3.6  61    -10.1 0     0     1005.9   NA       0.0000   9999     0     0     0    
2019/07/06  22:48:01  BASE  1.0878   47   2.35788  51   -3.5  60    -10.1 0     0     1005.9   NA       0.0000   9999     0     0     0    
2019/07/06  22:49:01  BASE  0.87024  36   2.1462   45   -3.4  60    -10.1 0     0     1005.9   NA       0.0000   9999     0     0     0    
2019/07/06  22:50:02  BASE  0.92316  30   2.0286   48   -3.4  59    -10.2 0     0     1005.9   NA       0.0000   9999     0     0     0    
2019/07/06  22:51:01  BASE  1.18776  33   1.90512  48   -3.3  59    -10.2 0     0     1005.9   NA       0.0000   9999     0     0     0    
2019/07/06  22:52:01  BASE  1.40532  40   1.87572  46   -3.3  58    -10.3 0     0     1005.9   NA       0.0000   9999     0     0     0    
2019/07/06  22:53:01  BASE  1.764    42   2.24028  42   -3.3  58    -10.4 0     0     1005.9   NA       0.0000   9999     0     0     0    
2019/07/06  22:54:01  BASE  2.14032  40   2.26968  40   -3.4  58    -10.4 0     0     1005.9   NA       0.0000   9999     0     0     0    
2019/07/06  22:55:02  BASE  2.10504  40   2.26968  40   -3.5  58    -10.5 0     0     1005.9   NA       0.0000   9999     0     0     0    
2019/07/06  22:56:01  BASE  1.87572  42   2.26968  40   -3.7  59    -10.6 0     0     1005.9   NA       0.0000   9999     0     0     0    
2019/07/06  22:57:01  BASE  1.7934   45   2.26968  40   -3.7  59    -10.5 0     0     1005.9   NA       0.0000   9999     0     0     0    
2019/07/06  22:58:01  BASE  1.92864  47   2.26968  40   -3.8  60    -10.5 0     0     1005.9   NA       0.0000   9999     0     0     0    
2019/07/06  22:59:02  BASE  2.24616  48   2.69304  53   -3.8  60    -10.4 0     0     1005.9   NA       0.0000   9999     0     0     0    
2019/07/06  23:00:01  BASE  2.56956  51   2.78124  54   -3.7  60    -10.4 0     0     1005.9   NA       0.0000   9999     0     0     0    
2019/07/06  23:01:01  BASE  2.54604  52   2.78124  54   -3.7  60    -10.3 0     0     1005.9   NA       0.0000   9999     0     0     0    
2019/07/06  23:02:01  BASE  2.35788  51   2.78124  54   -3.7  60    -10.2 0     0     1005.9   NA       0.0000   9999     0     0     0    
2019/07/06  23:03:01  BASE  2.31672  49   2.78124  54   -3.7  61    -10.2 0     0     1005.9   NA       0.0000   9999     0     0     0    
2019/07/06  23:04:01  BASE  2.35788  48   2.78124  54   -3.7  61    -10.2 0     0     1005.9   NA       0.0000   9999     0     0     0    
2019/07/06  23:05:02  BASE  2.45196  48   2.78124  54   -3.8  61    -10.2 0     0     1005.9   NA       0.0000   9999     0     0     0    
2019/07/06  23:06:01  BASE  2.49312  48   2.78124  54   -3.8  61    -10.2 0     0     1005.9   NA       0.0000   9999     0     0     0    
2019/07/06  23:07:01  BASE  2.48724  50   2.78124  54   -3.8  61    -10.2 0     0     1005.9   NA       0.0000   9999     0     0     0    
2019/07/06  23:08:02  BASE  2.48724  51   2.78124  54   -3.8  61    -10.2 0     0     1005.9   NA       0.0000   9999     0     0     0    
2019/07/06  23:09:01  BASE  2.54016  51   2.78124  53   -3.8  61    -10.1 0     0     1005.9   NA       0.0000   9999     0     0     0    
2019/07/06  23:10:02  BASE  2.58132  54   2.81064  54   -3.7  61    -10.1 0     0     1005.9   NA       0.0000   9999     0     0     0    
2019/07/06  23:11:02  BASE  2.40492  59   2.81064  54   -3.7  61    -10.1 0     0     1005.9   NA       0.0000   9999     0     0     0    
2019/07/06  23:12:01  BASE  2.21676  62   2.81064  54   -3.6  61    -10.1 0     0     1005.9   NA       0.0000   9999     0     0     0    
2019/07/06  23:13:02  BASE  2.09328  64   2.81064  54   -3.5  60    -10.1 0     0     1005.9   NA       0.0000   9999     0     0     0    
2019/07/06  23:14:01  BASE  1.8522   70   2.81064  54   -3.4  60    -10.1 0     0     1006.0   NA       0.0000   9999     0     0     0    
2019/07/06  23:15:02  BASE  1.75812  75   2.81064  54   -3.4  59    -10.2 0     0     1006.0   NA       0.0000   9999     0     0     0    
2019/07/06  23:16:01  BASE  1.78164  75   2.81064  54   -3.3  59    -10.2 0     0     1006.1   NA       0.0000   9999     0     0     0    
2019/07/06  23:17:01  BASE  1.63464  73   2.81064  54   -3.2  58    -10.2 0     0     1006.1   NA       0.0000   9999     0     0     0    
2019/07/06  23:18:02  BASE  1.62876  73   2.81064  54   -3.1  58    -10.2 0     0     1006.1   NA       0.0000   9999     0     0     0    
2019/07/06  23:19:01  BASE  1.50528  75   2.81064  54   -3.0  57    -10.3 0     0     1006.1   NA       0.0000   9999     0     0     0    
2019/07/06  23:20:01  BASE  1.28772  90   2.35788  58   -3.0  57    -10.4 0     0     1006.1   NA       0.0000   9999     0     0     0    
2019/07/06  23:21:02  BASE  1.1172   117  2.32848  61   -3.0  56    -10.5 0     0     1006.2   NA       0.0000   9999     0     0     0    
2019/07/06  23:22:02  BASE  0.75852  141  2.21088  70   -3.1  56    -10.5 0     0     1006.2   NA       0.0000   9999     0     0     0    
2019/07/06  23:23:01  BASE  0.4116   156  2.058    85   -3.1  56    -10.6 0     0     1006.2   NA       0.0000   9999     0     0     0    
2019/07/06  23:24:02  BASE  0.44688  157  2.058    85   -3.1  56    -10.6 0     0     1006.1   NA       0.0000   9999     0     0     0    
2019/07/06  23:25:01  BASE  0.62328  149  2.058    85   -3.1  57    -10.5 0     0     1006.2   NA       0.0000   9999     0     0     0    
2019/07/06  23:26:02  BASE  0.85848  147  1.90512  70   -3.0  57    -10.4 0     0     1006.1   NA       0.0000   9999     0     0     0    
2019/07/06  23:27:01  BASE  1.19952  145  1.90512  70   -2.9  57    -10.3 0     0     1006.1   NA       0.0000   9999     0     0     0    
2019/07/06  23:28:02  BASE  1.37004  140  1.54056  137  -2.9  57    -10.2 0     0     1006.1   NA       0.0000   9999     0     0     0    
2019/07/06  23:29:01  BASE  1.42296  134  1.54056  137  -2.8  57    -10.2 0     0     1006.1   NA       0.0000   9999     0     0     0    
2019/07/06  23:30:02  BASE  1.41708  128  1.54056  127  -2.8  57    -10.1 0     0     1006.1   NA       0.0000   9999     0     0     0    
2019/07/06  23:31:01  BASE  1.3524   124  1.54056  127  -2.9  57    -10.2 0     0     1006.1   NA       0.0000   9999     0     0     0    
2019/07/06  23:32:02  BASE  1.19952  120  1.54056  127  -2.9  57    -10.2 0     0     1006.1   NA       0.0000   9999     0     0     0    
2019/07/06  23:33:02  BASE  0.98784  112  1.54056  127  -2.9  57    -10.2 0     0     1006.1   NA       0.0000   9999     0     0     0    
2019/07/06  23:34:01  BASE  0.74676  85   1.54056  127  -2.8  57    -10.1 0     0     1006.1   NA       0.0000   9999     0     0     0    
2019/07/06  23:35:02  BASE  1.11132  60   1.69344  51   -2.8  57    -10.2 0     0     1006.1   NA       0.0000   9999     0     0     0    
2019/07/06  23:36:02  BASE  1.54056  57   1.69344  58   -2.9  57    -10.3 0     0     1006.1   NA       0.0000   9999     0     0     0    
2019/07/06  23:37:02  BASE  1.39356  58   1.69344  58   -2.9  57    -10.3 0     0     1006.1   NA       0.0000   9999     0     0     0    
2019/07/06  23:38:01  BASE  1.27008  60   1.69344  58   -2.9  57    -10.4 0     0     1006.1   NA       0.0000   9999     0     0     0    
2019/07/06  23:39:01  BASE  1.34064  61   1.69344  58   -3.0  57    -10.4 0     0     1006.1   NA       0.0000   9999     0     0     0    
2019/07/06  23:40:01  BASE  1.54056  58   1.78752  58   -3.1  57    -10.4 0     0     1006.1   NA       0.0000   9999     0     0     0    
2019/07/06  23:41:02  BASE  1.68168  57   1.78752  58   -3.1  57    -10.4 0     0     1006.2   NA       0.0000   9999     0     0     0    
2019/07/06  23:42:01  BASE  1.71108  57   1.81692  55   -3.1  58    -10.3 0     0     1006.2   NA       0.0000   9999     0     0     0    
2019/07/06  23:43:01  BASE  1.69932  56   1.81692  55   -3.1  58    -10.2 0     0     1006.3   NA       0.0000   9999     0     0     0    
2019/07/06  23:44:01  BASE  1.58172  52   1.81692  55   -3.2  59    -10.1 0     0     1006.3   NA       0.0000   9999     0     0     0    
2019/07/06  23:45:01  BASE  1.45824  47   1.81692  55   -3.2  59    -10.0 0     0     1006.3   NA       0.0000   9999     0     0     0    
2019/07/06  23:46:01  BASE  1.41708  41   1.81692  55   -3.2  60    -10.0 0     0     1006.3   NA       0.0000   9999     0     0     0    
2019/07/06  23:47:01  BASE  1.44648  35   1.81692  55   -3.3  60    -10.0 0     0     1006.3   NA       0.0000   9999     0     0     0    
2019/07/06  23:48:01  BASE  1.45236  32   1.81692  55   -3.3  61    -9.9  0     0     1006.3   NA       0.0000   9999     0     0     0    
2019/07/06  23:49:01  BASE  1.4112   35   1.81692  55   -3.4  61    -9.8  0     0     1006.3   NA       0.0000   9999     0     0     0    
2019/07/06  23:50:01  BASE  1.41708  38   1.81692  55   -3.4  61    -9.8  0     0     1006.3   NA       0.0000   9999     0     0     0    
2019/07/06  23:51:01  BASE  1.38768  37   1.81692  55   -3.4  62    -9.7  0     0     1006.3   NA       0.0000   9999     0     0     0    
2019/07/06  23:52:01  BASE  1.31712  37   1.69344  56   -3.4  62    -9.6  0     0     1006.3   NA       0.0000   9999     0     0     0    
2019/07/06  23:53:02  BASE  1.31712  36   1.60524  53   -3.4  62    -9.6  0     0     1006.3   NA       0.0000   9999     0     0     0    
2019/07/06  23:54:02  BASE  1.37592  33   1.57584  29   -3.4  62    -9.6  0     0     1006.3   NA       0.0000   9999     0     0     0    
2019/07/06  23:55:02  BASE  1.4406   29   1.57584  29   -3.3  62    -9.5  0     0     1006.3   NA       0.0000   9999     0     0     0    
2019/07/06  23:56:01  BASE  1.48176  25   1.57584  25   -3.3  62    -9.5  0     0     1006.3   NA       0.0000   9999     0     0     0    
2019/07/06  23:57:02  BASE  1.58172  21   1.78752  16   -3.3  62    -9.6  0     0     1006.3   NA       0.0000   9999     0     0     0    
2019/07/06  23:58:01  BASE  1.68756  17   1.78752  16   -3.3  62    -9.6  0     0     1006.3   NA       0.0000   9999     0     0     0    
2019/07/06  23:59:01  BASE  1.7934   15   1.93452  14   -3.3  62    -9.6  0     0     1006.3   NA       0.0000   9999     0     0     0